[[{"header":{"parameterUnit":"m.s-1","parameterCategory":1,"la1":30.6,"la2":29.2853,"lo1":-89.7004,"lo2":-87.6739,"dy":0.0162,"dx":0.0183,"nx":112,"ny":82,"refTime":"2024-07-06T12:00:00:Z","depth":0,"parameterNumber":2,"parameterNumberName":"U-component_of_WINDS"},"data":[0.0,0.0,0.0,0.0,0.0,0.0,0.0,0.0,0.0,0.0,0.0,0.0,0.0,0.0,0.0,0.0,0.0,0.0,0.0,0.0,0.0,0.0,0.0,0.0,0.0,0.0,0.0,0.0,0.0,0.0,0.0,0.0,0.0,0.0,0.0,0.0,0.0,0.0,0.0,0.0,0.0,0.0,0.0,0.0,0.0,0.0,0.0,0.0,0.0,0.0,0.0,0.0,0.0,0.0,0.0,0.0,0.0,0.0,0.0,0.0,0.0,0.0,0.0,0.0,0.0,0.0,0.0,0.0,0.0,0.0,0.0,0.0,0.0,0.0,0.0,0.0,0.0,0.0,0.0,0.0,0.0,0.0,0.0,0.0,0.0,0.0,0.0,0.0,0.0,0.0,-4.6464,-4.8917,-5.0845,-5.1454,-5.0202,-4.9982,-4.8714,-4.586,0.0,0.0,0.0,0.0,0.0,0.0,0.0,0.0,0.0,0.0,0.0,0.0,0.0,0.0,0.0,0.0,0.0,0.0,0.0,0.0,0.0,0.0,0.0,0.0,0.0,0.0,0.0,0.0,0.0,0.0,0.0,0.0,0.0,0.0,0.0,0.0,0.0,0.0,0.0,0.0,0.0,0.0,0.0,0.0,0.0,0.0,0.0,0.0,0.0,0.0,0.0,0.0,0.0,0.0,0.0,0.0,0.0,0.0,0.0,0.0,0.0,0.0,0.0,0.0,0.0,0.0,0.0,0.0,0.0,0.0,0.0,0.0,0.0,0.0,0.0,0.0,0.0,0.0,0.0,0.0,0.0,0.0,0.0,0.0,0.0,0.0,0.0,0.0,0.0,0.0,0.0,0.0,0.0,0.0,0.0,0.0,0.0,0.0,0.0,0.0,0.0,0.0,0.0,0.0,-4.6075,-4.9543,-5.0219,-5.0338,-5.0101,-4.9526,-4.8142,-4.5693,0.0,0.0,0.0,0.0,0.0,0.0,0.0,0.0,0.0,0.0,0.0,0.0,0.0,0.0,0.0,0.0,0.0,0.0,0.0,0.0,0.0,0.0,0.0,0.0,0.0,0.0,0.0,0.0,0.0,0.0,0.0,0.0,0.0,0.0,0.0,0.0,0.0,0.0,0.0,0.0,0.0,0.0,0.0,0.0,0.0,0.0,0.0,0.0,0.0,0.0,0.0,0.0,0.0,0.0,0.0,0.0,0.0,0.0,0.0,0.0,0.0,0.0,0.0,0.0,0.0,0.0,0.0,0.0,0.0,0.0,0.0,0.0,0.0,0.0,0.0,0.0,0.0,0.0,0.0,0.0,0.0,0.0,0.0,0.0,0.0,0.0,0.0,0.0,0.0,0.0,0.0,0.0,0.0,0.0,0.0,0.0,0.0,0.0,0.0,0.0,0.0,0.0,0.0,-4.5348,-4.6735,-4.9238,-4.9847,-4.9932,-4.9543,-4.9187,-4.7808,-4.5029,-4.438,0.0,0.0,0.0,0.0,0.0,0.0,0.0,0.0,0.0,0.0,0.0,0.0,0.0,0.0,0.0,0.0,0.0,0.0,0.0,0.0,0.0,0.0,0.0,0.0,0.0,0.0,0.0,0.0,0.0,0.0,0.0,0.0,0.0,0.0,0.0,0.0,0.0,0.0,0.0,0.0,0.0,0.0,0.0,0.0,0.0,0.0,0.0,0.0,0.0,0.0,0.0,0.0,0.0,0.0,0.0,0.0,0.0,0.0,0.0,0.0,0.0,0.0,0.0,0.0,0.0,0.0,0.0,0.0,0.0,0.0,0.0,0.0,0.0,0.0,0.0,0.0,0.0,0.0,0.0,0.0,0.0,0.0,0.0,0.0,0.0,0.0,0.0,0.0,0.0,0.0,0.0,0.0,0.0,0.0,0.0,0.0,0.0,0.0,0.0,0.0,0.0,0.0,-4.6735,-4.7564,-4.8866,-4.9509,-4.961,-4.9052,-4.8649,-4.7241,-4.4433,-4.3671,0.0,0.0,0.0,0.0,0.0,0.0,0.0,0.0,0.0,0.0,0.0,0.0,0.0,0.0,0.0,0.0,0.0,0.0,0.0,0.0,0.0,0.0,0.0,0.0,0.0,0.0,0.0,0.0,0.0,0.0,0.0,0.0,0.0,0.0,0.0,0.0,0.0,0.0,0.0,0.0,0.0,0.0,0.0,0.0,0.0,0.0,0.0,0.0,0.0,0.0,0.0,0.0,0.0,0.0,0.0,0.0,0.0,0.0,0.0,0.0,0.0,0.0,0.0,0.0,0.0,0.0,0.0,0.0,0.0,0.0,0.0,0.0,0.0,0.0,0.0,0.0,0.0,0.0,0.0,0.0,0.0,0.0,0.0,0.0,0.0,0.0,0.0,0.0,0.0,0.0,0.0,0.0,0.0,0.0,0.0,0.0,0.0,0.0,0.0,0.0,0.0,0.0,-4.6549,-4.8139,-4.8917,-4.9052,-4.9069,-4.9001,-4.7629,-4.5997,-4.4222,-4.2187,0.0,0.0,0.0,0.0,0.0,0.0,0.0,0.0,0.0,0.0,0.0,0.0,0.0,0.0,0.0,0.0,0.0,0.0,0.0,0.0,0.0,0.0,0.0,0.0,0.0,0.0,0.0,0.0,0.0,0.0,0.0,0.0,0.0,0.0,0.0,0.0,0.0,0.0,0.0,0.0,0.0,0.0,0.0,0.0,0.0,0.0,0.0,0.0,0.0,0.0,0.0,0.0,0.0,0.0,0.0,0.0,0.0,0.0,0.0,0.0,0.0,0.0,0.0,0.0,0.0,0.0,0.0,0.0,0.0,0.0,0.0,0.0,0.0,0.0,0.0,0.0,0.0,0.0,0.0,0.0,0.0,0.0,0.0,0.0,0.0,0.0,0.0,0.0,0.0,0.0,0.0,0.0,0.0,0.0,0.0,0.0,0.0,0.0,0.0,0.0,0.0,0.0,-4.5737,-4.7175,-4.8832,-4.8925,-4.8863,-4.8863,-4.7765,-4.6018,-4.3495,0.0,0.0,0.0,0.0,0.0,0.0,0.0,0.0,0.0,0.0,0.0,0.0,0.0,0.0,0.0,0.0,0.0,0.0,0.0,0.0,0.0,0.0,0.0,0.0,0.0,0.0,0.0,0.0,0.0,0.0,0.0,0.0,0.0,0.0,0.0,0.0,0.0,0.0,0.0,0.0,0.0,0.0,0.0,0.0,0.0,0.0,0.0,0.0,0.0,0.0,0.0,0.0,0.0,0.0,0.0,0.0,0.0,0.0,0.0,0.0,0.0,0.0,0.0,0.0,0.0,0.0,0.0,0.0,0.0,0.0,0.0,0.0,0.0,0.0,0.0,0.0,0.0,0.0,0.0,0.0,0.0,0.0,0.0,0.0,0.0,0.0,0.0,0.0,0.0,0.0,0.0,0.0,0.0,0.0,0.0,0.0,0.0,0.0,0.0,0.0,0.0,0.0,-4.4164,-4.5449,-4.6773,-4.8737,-4.8863,-4.8769,-4.8707,-4.7426,-4.5488,-4.2771,0.0,0.0,0.0,0.0,0.0,0.0,0.0,0.0,0.0,0.0,0.0,0.0,0.0,0.0,0.0,0.0,0.0,0.0,0.0,0.0,0.0,0.0,0.0,0.0,0.0,0.0,0.0,0.0,0.0,0.0,0.0,0.0,0.0,0.0,0.0,0.0,0.0,0.0,0.0,0.0,0.0,0.0,0.0,0.0,0.0,0.0,0.0,0.0,0.0,0.0,0.0,0.0,0.0,0.0,0.0,0.0,0.0,0.0,0.0,0.0,0.0,0.0,0.0,0.0,0.0,0.0,0.0,0.0,0.0,0.0,0.0,0.0,0.0,0.0,0.0,0.0,0.0,0.0,0.0,0.0,0.0,0.0,0.0,0.0,0.0,0.0,0.0,0.0,0.0,0.0,0.0,0.0,0.0,0.0,0.0,0.0,0.0,0.0,0.0,0.0,0.0,0.0,-4.4265,-4.5872,-4.7301,-4.8632,-4.8769,-4.8707,-4.8515,-4.6352,-4.4105,0.0,0.0,0.0,0.0,0.0,0.0,0.0,0.0,0.0,0.0,0.0,0.0,0.0,0.0,0.0,0.0,0.0,0.0,0.0,0.0,0.0,0.0,0.0,0.0,0.0,0.0,0.0,0.0,0.0,0.0,0.0,0.0,0.0,0.0,0.0,0.0,0.0,0.0,0.0,0.0,0.0,0.0,0.0,0.0,0.0,0.0,0.0,0.0,0.0,0.0,0.0,0.0,0.0,0.0,0.0,0.0,0.0,0.0,0.0,0.0,0.0,0.0,0.0,0.0,0.0,0.0,0.0,0.0,0.0,0.0,0.0,0.0,0.0,0.0,0.0,0.0,0.0,0.0,0.0,0.0,0.0,0.0,0.0,0.0,0.0,0.0,0.0,0.0,0.0,0.0,0.0,0.0,0.0,0.0,0.0,0.0,0.0,0.0,0.0,0.0,0.0,0.0,0.0,-4.3166,-4.5198,-4.6797,-4.774,-4.815,-4.8356,-4.8292,-4.6188,-4.3764,-4.1226,0.0,0.0,0.0,0.0,0.0,0.0,0.0,0.0,0.0,0.0,0.0,0.0,0.0,0.0,0.0,0.0,0.0,0.0,0.0,0.0,0.0,0.0,0.0,0.0,0.0,0.0,0.0,0.0,0.0,0.0,0.0,0.0,0.0,0.0,0.0,0.0,0.0,0.0,0.0,0.0,0.0,0.0,0.0,0.0,0.0,0.0,0.0,0.0,0.0,0.0,0.0,0.0,0.0,0.0,0.0,0.0,0.0,0.0,0.0,0.0,0.0,0.0,0.0,0.0,0.0,0.0,0.0,0.0,0.0,0.0,0.0,0.0,0.0,0.0,0.0,0.0,0.0,0.0,0.0,0.0,0.0,0.0,0.0,0.0,0.0,0.0,0.0,0.0,0.0,0.0,0.0,0.0,0.0,0.0,0.0,0.0,0.0,0.0,0.0,0.0,0.0,0.0,-4.2708,-4.465,-4.6257,-4.7218,-4.732,-4.7406,-4.7666,-4.5619,-4.3182,-4.0451,0.0,0.0,0.0,0.0,0.0,0.0,0.0,0.0,0.0,0.0,0.0,0.0,0.0,0.0,0.0,0.0,0.0,0.0,0.0,0.0,0.0,0.0,0.0,0.0,0.0,0.0,0.0,0.0,0.0,0.0,0.0,0.0,0.0,0.0,0.0,0.0,0.0,0.0,0.0,0.0,0.0,0.0,0.0,0.0,0.0,0.0,0.0,0.0,0.0,0.0,0.0,0.0,0.0,0.0,0.0,0.0,0.0,0.0,0.0,0.0,0.0,0.0,0.0,0.0,0.0,0.0,0.0,0.0,0.0,0.0,0.0,0.0,0.0,0.0,0.0,0.0,0.0,0.0,0.0,0.0,0.0,0.0,0.0,0.0,0.0,0.0,0.0,0.0,0.0,0.0,0.0,0.0,0.0,0.0,0.0,0.0,0.0,0.0,0.0,0.0,0.0,0.0,-4.2551,-4.4202,-4.5614,-4.6766,-4.629,-4.6077,-4.6551,-4.463,-4.2361,-3.985,0.0,0.0,0.0,0.0,0.0,0.0,0.0,0.0,0.0,0.0,0.0,0.0,0.0,0.0,0.0,0.0,0.0,0.0,0.0,0.0,0.0,0.0,0.0,0.0,0.0,0.0,0.0,0.0,0.0,0.0,0.0,0.0,0.0,0.0,0.0,0.0,0.0,0.0,0.0,0.0,0.0,0.0,0.0,0.0,0.0,0.0,0.0,0.0,0.0,0.0,0.0,0.0,0.0,0.0,0.0,0.0,0.0,0.0,0.0,0.0,-4.2082,-4.1441,0.0,0.0,0.0,0.0,0.0,0.0,0.0,0.0,0.0,0.0,0.0,0.0,0.0,0.0,0.0,0.0,0.0,0.0,0.0,0.0,0.0,0.0,0.0,0.0,0.0,0.0,0.0,0.0,0.0,0.0,0.0,0.0,0.0,0.0,0.0,0.0,0.0,0.0,0.0,0.0,-4.1526,-4.3547,-4.4712,-4.4477,-4.4821,-4.4867,-4.4433,-4.2944,-4.1348,-3.9722,-3.7674,0.0,0.0,0.0,0.0,0.0,0.0,0.0,0.0,0.0,0.0,0.0,0.0,0.0,0.0,0.0,0.0,0.0,0.0,0.0,0.0,0.0,0.0,0.0,0.0,0.0,0.0,0.0,0.0,0.0,0.0,0.0,0.0,0.0,0.0,0.0,0.0,0.0,0.0,0.0,0.0,0.0,0.0,0.0,0.0,0.0,0.0,0.0,0.0,0.0,0.0,0.0,0.0,0.0,0.0,0.0,0.0,0.0,0.0,0.0,-4.3431,-4.2489,0.0,0.0,0.0,0.0,0.0,0.0,0.0,0.0,0.0,0.0,0.0,0.0,0.0,0.0,0.0,0.0,0.0,0.0,0.0,0.0,0.0,0.0,0.0,0.0,0.0,0.0,0.0,0.0,0.0,0.0,0.0,0.0,0.0,0.0,0.0,0.0,0.0,0.0,0.0,0.0,-4.0816,-4.2553,-4.3691,-4.3686,-4.3388,-4.3158,-4.3176,-4.1855,-4.0608,-3.9606,-3.7891,0.0,0.0,0.0,0.0,0.0,0.0,0.0,0.0,0.0,0.0,0.0,0.0,0.0,0.0,0.0,0.0,0.0,0.0,0.0,0.0,0.0,0.0,0.0,0.0,0.0,0.0,0.0,0.0,0.0,0.0,0.0,0.0,0.0,0.0,0.0,0.0,0.0,0.0,0.0,0.0,0.0,0.0,0.0,0.0,0.0,0.0,0.0,0.0,0.0,0.0,0.0,0.0,0.0,-4.7068,-4.7508,-4.9246,-4.7669,-4.7199,-4.7424,-4.4415,-4.3436,-4.3944,-4.3047,0.0,0.0,0.0,0.0,0.0,0.0,0.0,0.0,0.0,0.0,0.0,0.0,0.0,0.0,0.0,0.0,0.0,0.0,0.0,0.0,0.0,0.0,0.0,-4.297,-4.3456,-4.3294,-4.095,0.0,0.0,0.0,0.0,0.0,0.0,0.0,0.0,0.0,0.0,0.0,-4.0542,-4.1806,-4.2749,-4.3105,-4.199,-4.1473,-4.199,-4.0934,-3.9992,-3.952,-3.8273,-3.7105,0.0,0.0,0.0,0.0,0.0,0.0,0.0,0.0,0.0,0.0,0.0,0.0,0.0,0.0,0.0,0.0,0.0,0.0,0.0,0.0,0.0,0.0,0.0,0.0,0.0,0.0,0.0,0.0,0.0,0.0,0.0,0.0,-4.3196,-4.4977,0.0,0.0,0.0,0.0,0.0,0.0,0.0,0.0,0.0,0.0,0.0,0.0,0.0,-4.8876,-4.9477,-4.9477,-4.9586,-4.9782,-4.9084,-4.8936,-4.9156,-4.8031,-4.752,-4.7558,-4.6606,0.0,-4.6244,-4.484,0.0,0.0,0.0,0.0,0.0,0.0,0.0,0.0,0.0,0.0,0.0,0.0,0.0,0.0,0.0,0.0,0.0,0.0,0.0,0.0,0.0,0.0,-4.4085,-4.4708,-4.444,-4.4077,-4.4164,-4.2601,-4.0956,-4.026,-3.9597,-3.8714,0.0,0.0,0.0,0.0,0.0,0.0,-4.1193,-4.2083,-4.2158,-4.1031,-4.0739,-4.0408,-3.9873,-3.9637,-3.9505,-3.9433,-3.8702,-3.8182,-3.8018,-3.6312,0.0,0.0,0.0,0.0,0.0,0.0,0.0,0.0,0.0,0.0,0.0,0.0,0.0,0.0,0.0,0.0,0.0,0.0,0.0,0.0,0.0,0.0,0.0,0.0,0.0,0.0,0.0,0.0,0.0,-4.2741,-4.4907,-4.6091,-4.6218,-4.6071,0.0,0.0,0.0,0.0,0.0,0.0,0.0,0.0,0.0,-4.9691,-5.0071,-5.0416,-5.0782,-5.0782,-5.0782,-5.076,-4.9833,-4.9781,-5.0492,-4.9041,-4.8579,-4.8879,-4.8273,-4.8037,-4.7919,-4.643,-4.585,-4.5698,0.0,0.0,0.0,0.0,-4.2803,-4.301,-4.3514,-4.3544,-4.3265,-4.2596,0.0,0.0,0.0,0.0,0.0,0.0,0.0,-4.2721,0.0,0.0,-4.4018,-4.475,-4.4667,-4.4487,-4.4743,-4.3986,-4.2916,-4.1806,-4.1326,-4.0433,-3.829,-3.8579,0.0,0.0,0.0,-4.0084,-4.0339,-4.1001,-4.1176,-4.0581,-4.0111,-3.9753,-3.9424,-3.9388,-3.9388,-3.9388,-3.9125,-3.8796,-3.8407,-3.7569,-3.6477,0.0,0.0,0.0,0.0,0.0,0.0,0.0,0.0,0.0,0.0,0.0,0.0,0.0,0.0,0.0,0.0,0.0,0.0,0.0,0.0,0.0,0.0,0.0,0.0,0.0,0.0,0.0,0.0,-4.4433,-4.6202,-4.7006,-4.7501,-4.7499,0.0,0.0,0.0,0.0,0.0,0.0,-4.9492,-5.047,-5.1285,-5.19,-5.21,-5.2208,-5.2208,-5.1858,-5.1679,-5.1656,-5.0267,-5.0144,-5.1122,-4.9656,-4.9243,-4.9627,-4.9199,-4.9001,-4.89,-4.7614,-4.7073,-4.6955,-4.5681,-4.5071,-4.4872,-4.4259,-4.4255,-4.4619,-4.5213,-4.529,-4.5023,-4.4338,-4.3107,-4.1793,-4.1133,0.0,0.0,0.0,0.0,-4.2903,-4.3449,-4.3598,-4.375,-4.4292,-4.4278,-4.4165,-4.4174,-4.3997,-4.3664,-4.291,-4.2771,-4.1989,-3.9447,-3.9823,0.0,-3.7585,-3.8965,-4.0141,-3.981,-4.0204,-4.0409,-4.025,-3.9717,-3.9388,-3.9388,-3.9388,-3.9388,-3.9388,-3.9388,-3.9185,-3.8676,-3.8482,-3.7629,-3.6028,0.0,0.0,0.0,0.0,0.0,0.0,0.0,0.0,0.0,0.0,0.0,0.0,0.0,0.0,0.0,0.0,0.0,0.0,0.0,0.0,0.0,0.0,0.0,0.0,0.0,0.0,0.0,0.0,0.0,-4.7866,-4.9407,0.0,0.0,0.0,0.0,-4.7753,-4.98,-5.114,-5.1176,-5.2661,-5.3548,-5.3585,-5.4327,-5.4725,-5.4725,-5.3387,-5.2723,-5.2697,-5.0802,-4.9913,-4.9959,-4.9303,-4.9001,-4.9032,-4.9001,-4.9001,-4.8951,-4.8173,-4.7821,-4.7753,-4.6989,-4.6667,-4.6638,-4.6422,-4.626,-4.616,-4.6007,-4.587,-4.5647,-4.4901,-4.3645,-4.2452,-4.2419,-4.2373,0.0,0.0,-4.2986,-4.3549,-4.3582,-4.3598,-4.3614,-4.3731,-4.3231,-4.2717,-4.2695,-4.2164,-4.2045,-4.3292,-4.3532,-4.2862,-4.0753,0.0,-4.0227,-3.947,-3.9449,-3.9776,-4.0374,-4.0497,-4.0216,-3.9517,-3.9409,-3.9388,-3.9388,-3.9388,-3.9388,-3.9388,-3.9388,-3.9373,-3.9328,-3.8736,-3.8048,-3.733,-3.6088,0.0,0.0,0.0,0.0,0.0,0.0,0.0,0.0,0.0,0.0,0.0,0.0,0.0,0.0,0.0,0.0,0.0,0.0,0.0,0.0,0.0,0.0,0.0,0.0,0.0,0.0,0.0,0.0,-4.8784,-4.9823,0.0,-4.9193,-4.9801,-5.0185,-5.0039,-5.1285,-5.2299,-5.2824,-5.3874,-5.4689,-5.516,-5.545,-5.5613,-5.5613,-5.5115,-5.4173,-5.2796,-5.172,-5.0724,-4.989,-4.929,-4.9001,-4.9001,-4.9001,-4.9001,-4.8984,-4.8731,-4.8612,-4.8545,-4.7817,-4.7513,-4.7432,-4.6759,-4.6727,-4.6979,-4.6791,-4.6603,-4.6378,-4.5632,-4.5052,-4.4539,-4.4059,-4.3926,-4.372,-4.2804,-4.2731,-4.2851,-4.238,-4.2253,-4.2238,-4.2268,-4.2075,-4.1883,-4.1892,-4.1699,-4.1656,-4.2142,-4.2253,-4.1725,-4.0121,-4.0585,-4.0628,-3.9028,-3.9574,-4.0044,-3.9814,-3.9788,-3.9681,-3.9424,-3.9388,-3.9388,-3.9388,-3.9388,-3.9388,-3.9388,-3.9388,-3.9388,-3.9388,-3.9185,-3.8736,-3.8063,-3.718,-3.5669,0.0,0.0,0.0,0.0,0.0,0.0,0.0,0.0,0.0,0.0,0.0,0.0,0.0,0.0,0.0,0.0,0.0,0.0,0.0,0.0,0.0,0.0,0.0,0.0,0.0,0.0,-4.8758,-4.9685,-5.0665,-5.1152,-5.0836,-5.1184,-5.1619,-5.2086,-5.3078,-5.3911,-5.4454,-5.5233,-5.5903,-5.6373,-5.6391,-5.6317,-5.6096,-5.5628,-5.4581,-5.2958,-5.2072,-5.1186,-5.0339,-4.9916,-4.961,-4.9373,-4.9373,-4.9238,-4.9001,-4.8956,-4.8909,-4.8875,-4.8385,-4.8199,-4.8101,-4.7365,-4.7328,-4.7638,-4.7479,-4.7186,-4.6825,-4.6328,-4.5997,-4.5698,-4.5202,-4.4882,-4.447,-4.3555,-4.3089,-4.2734,-4.2036,-4.184,-4.171,-4.129,-4.116,-4.1093,-4.0839,-4.0805,-4.0805,-4.0805,-4.116,-4.1152,-4.0013,-4.0577,-4.0616,-3.8973,-3.9521,-3.995,-3.9445,-3.9388,-3.9388,-3.9388,-3.9388,-3.9388,-3.9388,-3.9388,-3.9388,-3.9388,-3.9388,-3.9388,-3.9388,-3.9185,-3.8856,-3.8407,-3.7539,-3.6133,-3.4173,0.0,0.0,0.0,0.0,0.0,0.0,0.0,0.0,0.0,0.0,0.0,0.0,0.0,0.0,0.0,0.0,0.0,0.0,0.0,0.0,0.0,0.0,0.0,-4.7925,-4.8819,-4.9763,-5.055,-5.2029,-5.2645,-5.177,-5.2967,-5.3798,-5.3766,-5.516,-5.5993,-5.6029,-5.6772,-5.7188,-5.7188,-5.7163,-5.6889,-5.6339,-5.4928,-5.3934,-5.3301,-5.1926,-5.1234,-5.1185,-5.1185,-5.0811,-5.0118,-5.0101,-4.9678,-4.9004,-4.8863,-4.8818,-4.8818,-4.8769,-4.8769,-4.8738,-4.834,-4.8195,-4.8179,-4.8066,-4.7537,-4.6924,-4.6924,-4.6444,-4.5847,-4.5831,-4.5259,-4.4624,-4.4592,-4.4024,-4.3299,-4.2606,-4.2417,-4.2108,-4.077,-4.0478,-4.0285,-3.9553,-3.9388,-3.9388,-3.9388,-4.0497,-4.1227,-4.0581,-4.0478,-4.0216,-3.9517,-3.9388,0.0,-3.9388,-3.9388,-3.9388,-3.9388,-3.9388,-3.9388,-3.9388,-3.9388,-3.9388,-3.9388,-3.9388,-3.9388,-3.9388,-3.8781,-3.8422,-3.8422,-3.7165,-3.6207,-3.5564,0.0,0.0,0.0,0.0,0.0,0.0,0.0,0.0,0.0,0.0,0.0,0.0,0.0,0.0,0.0,0.0,0.0,0.0,0.0,0.0,0.0,-4.6923,-4.801,-4.8108,-4.9768,-5.1143,-5.1566,-5.2355,-5.2974,-5.3294,-5.3622,-5.4252,-5.5293,-5.5758,-5.6247,-5.6826,-5.708,-5.7188,-5.7188,-5.6785,-5.6679,-5.6941,-5.5702,-5.4682,-5.3929,-5.3124,-5.2189,-5.1185,-5.1185,-5.1099,-5.0879,-5.0321,-4.9965,-4.9746,-4.9082,-4.8818,-4.8786,-4.8627,-4.8595,-4.8564,-4.8292,-4.8147,-4.8066,-4.8001,-4.7868,-4.7703,-4.7703,-4.7554,-4.7305,-4.6758,-4.6061,-4.5188,-4.415,-4.3317,-4.2433,-4.1285,-4.0973,-4.077,-3.9904,-3.9681,-3.9646,-3.9445,-3.9388,-3.9388,-3.9388,-3.9717,-3.9915,-3.9753,-3.9681,-3.961,-3.9424,-3.9388,0.0,-3.9388,-3.9388,-3.9388,-3.9388,-3.9388,-3.9388,-3.9388,-3.9388,-3.9388,-3.9388,-3.9388,-3.9388,-3.9388,-3.923,-3.914,-3.914,-3.7838,-3.706,0.0,0.0,0.0,0.0,0.0,0.0,0.0,0.0,0.0,0.0,0.0,0.0,0.0,0.0,0.0,0.0,0.0,0.0,0.0,0.0,0.0,0.0,-4.8455,-4.9526,-4.9606,-5.0811,-5.1877,-5.2352,-5.2579,-5.3153,-5.4318,-5.4311,-5.487,-5.6373,-5.65,-5.6699,-5.717,-5.7188,-5.7188,-5.7188,-5.6608,-5.6339,-5.6429,-5.5484,-5.4618,-5.3908,-5.3536,-5.2963,-5.2164,-5.2164,-5.1826,-5.12,-5.076,-5.0188,-4.9516,-4.8938,-4.8627,0.0,0.0,0.0,0.0,0.0,-4.8066,-4.8001,-4.8001,-4.8001,-4.8001,-4.8001,-4.8001,-4.7918,-4.7487,-4.6566,-4.5514,-4.4696,-4.349,-4.2159,-4.1078,-4.0606,-4.0232,-3.9574,-3.9388,-3.9388,-3.9388,-3.9388,-3.9388,-3.9388,-3.9388,0.0,-3.9388,-3.9388,-3.9388,-3.9388,-3.9388,-3.9388,-3.9388,-3.9388,-3.9388,-3.9388,-3.9388,-3.9388,-3.9388,-3.9388,0.0,0.0,0.0,-3.9254,-3.899,-3.899,0.0,0.0,0.0,0.0,0.0,0.0,0.0,0.0,-3.6629,-3.6063,0.0,0.0,0.0,0.0,0.0,0.0,0.0,0.0,0.0,0.0,0.0,0.0,0.0,0.0,0.0,0.0,-5.0129,-5.1617,-5.169,-5.1813,-5.2169,-5.2907,-5.2783,-5.3249,-5.4862,-5.4967,-5.554,-5.708,-5.7188,-5.7188,-5.7188,0.0,0.0,0.0,0.0,-5.6045,-5.5502,-5.4765,-5.4139,-5.3584,-5.3534,-5.3501,-5.3501,-5.3501,-5.2706,-5.1303,-5.1219,-5.0312,-4.8904,-4.8597,-4.8356,-4.8179,-4.8179,-4.8179,-4.8163,-4.8017,-4.8001,-4.8001,-4.8001,0.0,0.0,-4.8001,-4.8001,-4.7968,-4.7886,-4.6844,-4.5681,-4.5493,-4.3987,-4.2231,-4.1497,-4.0846,-4.0232,-3.9574,-3.9388,-3.9388,-3.9388,-3.9388,-3.9388,-3.9388,-3.9388,-3.9388,-3.9388,-3.9388,-3.9388,-3.9388,-3.9388,-3.9388,-3.9388,-3.9388,-3.9388,-3.9388,0.0,0.0,-3.9388,-3.9388,-3.9388,-3.9388,-3.9388,-3.914,-3.8527,-3.8497,-3.8497,-3.8497,-3.8497,-3.8811,-3.9388,-3.9301,-3.9228,-3.9075,-3.7179,-3.608,0.0,0.0,0.0,0.0,0.0,0.0,0.0,0.0,0.0,0.0,0.0,0.0,0.0,0.0,0.0,-5.023,-5.1147,-5.1722,-5.2326,-5.2439,-5.2579,-5.2959,-5.285,-5.3381,-5.5002,-5.5049,-5.5583,-5.708,-5.7188,-5.7188,-5.7188,-5.7188,-5.7188,-5.7188,-5.6608,-5.6257,-5.6118,-5.4961,-5.4328,-5.4218,0.0,0.0,-5.3501,-5.3501,-5.2993,-5.2063,-5.1358,-5.0518,-4.9596,-4.8638,-4.8179,-4.8033,-4.8033,-4.8033,-4.8033,-4.8001,-4.8001,-4.8001,-4.8001,-4.8001,-4.8001,-4.8001,-4.8001,-4.7886,-4.722,-4.641,0.0,-4.4256,-4.3183,-4.2126,-4.0905,-4.0502,-4.0232,-3.9574,-3.9388,-3.9388,-3.9388,-3.9388,-3.9388,-3.9388,-3.9388,-3.9388,-3.9388,-3.9388,-3.9388,-3.9388,-3.9388,-3.9388,-3.9388,-3.9388,-3.9388,-3.9388,-3.9388,-3.9388,-3.9388,-3.9388,-3.9388,-3.9388,-3.9388,-3.9328,-3.923,-3.923,-3.923,-3.923,-3.923,-3.929,-3.9388,-3.8738,-3.806,-3.7357,-3.7448,-3.7442,0.0,0.0,0.0,0.0,0.0,0.0,0.0,0.0,0.0,0.0,0.0,-4.4425,-4.5444,0.0,-4.9631,-5.1063,-5.1724,-5.2168,-5.2504,-5.2586,-5.2635,-5.2787,-5.2712,-5.3281,-5.4898,-5.499,-5.5595,-5.708,-5.7188,-5.7188,-5.7188,-5.7188,-5.7188,-5.7188,-5.6321,-5.5848,-5.5848,-5.4582,-5.3946,-5.3946,-5.3634,-5.3501,-5.3501,-5.3501,-5.2858,-5.1742,-5.1289,-5.0448,-4.9276,-4.8523,-4.8115,-4.8001,-4.8001,-4.8001,-4.8001,-4.8001,-4.8001,-4.8001,-4.8001,-4.8001,-4.8001,-4.8001,-4.8001,-4.7853,-4.7033,-4.6288,-4.541,-4.3917,-4.2735,-4.1677,-4.0651,-4.0157,-3.9828,-3.9499,-3.9388,-3.9388,-3.9388,-3.9388,-3.9388,-3.9388,-3.9388,-3.9388,-3.9388,-3.9388,-3.9388,-3.9388,-3.9388,-3.9388,-3.9388,-3.9388,-3.9388,-3.9388,-3.9388,-3.9388,-3.9388,-3.9388,-3.9388,-3.9388,-3.9388,-3.9388,-3.9388,-3.9388,-3.9388,-3.9388,-3.9388,-3.9192,-3.8811,-3.8389,-3.7744,-3.6908,-3.7396,-3.7387,0.0,0.0,0.0,0.0,0.0,0.0,0.0,0.0,-4.1677,-4.183,-4.4207,-4.6347,-4.6611,-4.9097,-5.1207,-5.1502,-5.2118,-5.2559,-5.2521,-5.2554,-5.2586,-5.2586,-5.2531,-5.3132,-5.475,-5.4907,-5.554,-5.708,-5.7188,-5.7188,-5.7188,-5.7188,-5.7188,-5.7188,-5.6128,-5.5502,-5.5385,-5.4269,-5.3618,-5.3501,-5.3501,-5.3501,-5.3501,-5.3501,-5.2756,-5.1371,-5.1019,-5.0114,-4.8813,-4.8358,-4.8082,-4.8001,-4.8001,-4.8001,-4.8001,-4.8001,-4.8001,-4.8001,-4.8001,-4.8001,-4.8001,-4.8001,-4.8001,-4.7853,-4.7033,-4.6288,-4.5378,-4.3747,-4.2386,-4.1205,-4.0412,-3.9813,-3.9388,-3.9388,-3.9388,-3.9388,-3.9388,-3.9388,-3.9388,-3.9388,-3.9388,-3.9388,-3.9388,-3.9388,-3.9388,-3.9388,-3.9388,-3.9388,-3.9388,-3.9388,-3.9388,-3.9388,-3.9388,-3.9388,-3.9388,-3.9388,-3.9388,-3.9388,-3.9388,-3.9388,-3.9388,-3.9388,-3.9388,-3.9388,-3.9388,-3.8995,-3.8202,-3.8037,-3.7501,-3.6688,-3.6987,-3.6834,-3.3231,-3.4881,-3.7126,-3.9987,-4.0886,-4.1567,0.0,0.0,-4.3369,-4.409,-4.5419,-4.6846,-4.8021,-4.9469,-5.091,-5.2157,-5.2449,-5.2521,-5.2498,-5.2521,-5.2503,-5.2503,-5.2498,-5.316,-5.4833,-5.4919,-5.554,-5.708,-5.7188,-5.7188,-5.7188,-5.7188,-5.7188,-5.7188,-5.6555,-5.5932,-5.5402,-5.4672,-5.4027,-5.3501,-5.3501,-5.3501,-5.3501,-5.3501,-5.3027,-5.2081,-5.0471,-4.9508,-4.8995,-4.8299,-4.8001,-4.8001,-4.8001,-4.8001,-4.8001,-4.8001,-4.8001,-4.8001,-4.8001,-4.8001,-4.8001,-4.8001,-4.8001,-4.7853,-4.7033,-4.6288,-4.5268,-4.318,-4.2043,-4.11,-3.9843,-3.9469,-3.9388,-3.9388,-3.9388,-3.9388,-3.9388,-3.9388,-3.9388,-3.9388,-3.9388,-3.9388,-3.9388,-3.9388,-3.9388,-3.9388,-3.9388,-3.9388,-3.9388,-3.9388,-3.9388,-3.9388,-3.9388,-3.9388,-3.9388,-3.9388,-3.9388,-3.9388,-3.9388,-3.9388,-3.9388,-3.9388,-3.9388,-3.9388,-3.9388,-3.8995,-3.8202,-3.7424,-3.6621,-3.5843,-3.6104,-3.6618,-3.4771,-3.713,-3.9254,0.0,-4.2189,-4.3301,-4.3792,-4.3995,-4.4181,-4.4547,-4.6229,-4.7849,-4.8406,-5.0581,-5.2492,0.0,-5.3585,-5.3729,-5.3259,-5.3204,-5.3023,-5.2552,-5.2915,-5.3663,-5.4834,-5.5293,-5.5993,-5.7116,-5.7188,-5.7188,-5.7188,-5.7188,-5.7036,-5.6706,-5.6073,-5.5473,-5.4826,-5.4188,-5.375,-5.3501,-5.3501,-5.3501,-5.3501,-5.3501,-5.3011,-5.2117,-5.0924,-4.9957,-4.9194,-4.8895,-4.8464,-4.8001,-4.8001,-4.8001,-4.8001,-4.8001,-4.8001,-4.8001,-4.8001,-4.8001,-4.8001,-4.8001,-4.8001,-4.7787,-4.6515,-4.5933,-4.5143,-4.2585,-4.1656,-4.107,-3.9768,-3.9388,-3.9388,-3.9388,-3.9388,-3.9388,-3.9388,-3.9388,-3.9388,-3.9388,-3.9388,-3.9388,-3.9388,-3.9388,-3.9388,-3.9388,-3.9388,-3.9388,-3.9388,-3.9388,-3.9388,-3.9388,-3.9388,-3.9388,-3.9388,-3.9388,-3.9388,-3.9388,-3.9388,-3.9388,-3.9388,-3.9388,-3.9388,-3.9388,-3.8922,-3.83,-3.7462,-3.6596,-3.5967,-3.5467,-3.5903,-3.6468,-3.6773,0.0,0.0,-4.1562,-4.3047,-4.4164,-4.3809,-4.4181,-4.4615,-4.4615,-4.6562,-4.8286,-4.8459,-5.103,-5.3255,-5.3633,-5.42,-5.4381,-5.3784,-5.3693,-5.3476,-5.2896,-5.3548,-5.4345,-5.5124,-5.5685,-5.6319,-5.7134,-5.7188,-5.7188,-5.7188,-5.7188,-5.6915,-5.6311,-5.5705,-5.5087,-5.4422,-5.3816,-5.3501,-5.3501,-5.3501,-5.3501,-5.3501,-5.3501,-5.3062,-5.2287,-5.1547,-5.0576,-4.9543,-4.9344,-4.8762,-4.8001,-4.8001,-4.8001,-4.8001,-4.8001,-4.8001,-4.8001,-4.8001,-4.8001,-4.8001,-4.8001,-4.8001,-4.7787,-4.6671,-4.602,-4.5227,-4.2925,-4.2002,-4.1384,-4.0247,-3.9828,-3.9694,-3.9694,-3.9508,-3.9388,-3.9388,-3.9388,-3.9388,-3.9388,-3.9388,-3.9388,-3.9388,-3.9388,-3.9388,-3.9388,-3.9388,-3.9388,-3.9388,-3.9388,-3.9388,-3.9388,-3.9388,-3.9388,-3.9388,-3.9388,-3.9388,-3.9388,-3.9388,-3.9388,-3.9388,-3.9388,-3.9301,-3.9068,-3.8516,-3.7668,-3.6582,-3.6141,-3.5706,-3.5312,-3.6018,-3.6593,0.0,0.0,-4.0641,-4.2772,-4.3375,-4.3639,-4.4384,-4.4581,-4.4615,-4.4615,-4.6206,-4.7808,-4.8381,-5.0224,-5.2122,-5.3495,-5.3729,-5.3729,-5.3693,-5.3693,-5.3693,-5.3675,-5.4381,-5.516,-5.5884,-5.5975,-5.6319,-5.7134,-5.7188,-5.7188,-5.7188,-5.7188,-5.6915,-5.6311,-5.5705,-5.5087,-5.4422,-5.3816,-5.3501,-5.3501,-5.3501,-5.3501,-5.3501,-5.3501,-5.3264,-5.2836,-5.2083,-5.116,-5.0121,-4.9409,-4.8663,-4.8001,-4.8001,-4.8001,-4.8001,-4.8001,-4.8001,-4.8001,-4.8001,-4.8001,-4.8001,-4.8001,-4.8001,-4.8001,-4.7935,-4.6894,-4.5555,-4.4792,-4.3516,-4.2216,-4.1527,-4.0846,-4.0367,-4.0367,-3.9888,-3.9388,-3.9388,-3.9388,-3.9388,-3.9388,-3.9388,-3.9388,-3.9388,-3.9388,-3.9388,-3.9388,-3.9388,-3.9388,-3.9388,-3.9388,-3.9388,-3.9388,-3.9388,-3.9388,-3.9388,-3.9388,-3.9388,-3.9388,-3.9388,-3.9388,-3.9388,-3.9388,-3.9031,-3.824,-3.8202,-3.7414,-3.5749,-3.6239,-3.6066,-3.5325,-3.6449,-3.6985,-3.9301,0.0,-4.1866,-4.3084,-4.3809,-4.4265,-4.4547,-4.4615,-4.4615,-4.4615,-4.6094,-4.7464,-4.7661,-5.0185,-5.2546,-5.3543,-5.4562,-5.5233,-5.5233,-5.5233,-5.5033,-5.4562,-5.5178,-5.5721,-5.5975,-5.6482,0.0,-5.717,-5.7188,-5.7188,-5.7188,-5.6811,-5.6321,-5.5652,-5.5052,-5.444,-5.3816,-5.3618,-5.3501,-5.3501,-5.3501,-5.3501,-5.3501,-5.3501,-5.328,-5.287,-5.2116,-5.1193,-5.0154,-4.9409,-4.868,-4.8001,-4.8001,-4.8001,-4.8001,-4.8001,-4.8001,-4.8001,-4.8001,-4.8001,-4.8001,-4.8001,-4.7638,-4.7118,-4.6636,-4.5717,-4.4673,-4.3485,-4.2788,-4.2246,-4.1587,-4.122,-4.0935,-4.0502,-4.0232,-3.9948,-3.9514,-3.9388,-3.9388,-3.9388,-3.9388,-3.9388,-3.9388,-3.9388,-3.9388,-3.9388,-3.9388,-3.9388,-3.9388,-3.9388,-3.9388,-3.9388,-3.9388,-3.9388,-3.9388,-3.9388,-3.9604,-4.0053,-4.0068,-4.0068,-4.0068,-4.0068,-3.9476,-3.8202,-3.802,-3.7382,-3.6211,-3.6233,-3.6322,-3.6436,-3.6828,-3.722,-3.9775,-4.1164,-4.2083,-4.2828,-4.3589,-4.4164,-4.4164,-4.4384,-4.4615,-4.4615,-4.5905,-4.7071,-4.7274,-4.9757,-5.2203,-5.3489,-5.4762,-5.5703,-5.5957,-5.5993,-5.5812,-5.5341,-5.5957,-5.6428,-5.6428,-5.7152,0.0,-5.7224,-5.7188,-5.7188,-5.7188,-5.6626,-5.5999,-5.5379,-5.4717,-5.4106,-5.3501,-5.3501,-5.3501,-5.3501,-5.3501,-5.3501,-5.3501,-5.3213,-5.2859,-5.2468,-5.1731,-5.081,-4.979,-4.9309,-4.868,-4.8001,-4.8001,-4.8001,-4.8001,-4.8001,-4.8001,-4.8001,-4.8001,-4.8001,-4.7968,-4.7671,-4.722,-4.6673,-4.5897,-4.5147,-4.4319,-4.3411,-4.2934,-4.2611,-4.2192,-4.1728,-4.1265,-4.0846,-4.0382,-3.9933,-3.9514,-3.9388,-3.9388,-3.9388,-3.9388,-3.9388,-3.9388,-3.9388,-3.9388,-3.9388,-3.9388,-3.9388,-3.9388,-3.9388,-3.9388,-3.9388,-3.9388,-3.9388,-3.9388,-3.9388,-3.9709,-4.0367,-4.0397,-4.0502,-4.0741,-4.0426,-3.9674,-3.8447,-3.791,-3.725,-3.6373,-3.6397,-3.6619,-3.7011,-3.722,-3.7534,-4.0584,-4.11,-4.139,-4.2117,-4.2828,-4.3325,-4.3325,-4.3927,-4.4496,-4.4507,-4.5531,-4.6603,-4.7126,0.0,-5.1173,-5.3296,-5.4345,-5.5178,-5.5939,-5.6047,-5.6047,0.0,0.0,0.0,0.0,0.0,0.0,-5.7261,0.0,-5.7188,-5.7188,-5.6582,-5.5989,-5.5414,-5.4703,-5.4091,-5.3501,-5.3501,-5.3501,-5.3501,-5.3501,-5.3501,-5.3467,-5.2672,-5.2101,-5.1748,-5.0978,-5.0043,-4.911,-4.9061,-4.863,-4.8001,-4.8001,-4.8001,-4.8001,-4.8001,-4.8001,-4.8001,-4.8001,-4.8001,-4.7853,-4.7118,-4.6811,-4.6604,-4.5913,-4.511,-4.4434,-4.4434,-4.3888,-4.329,-4.329,-4.2387,-4.1452,-4.1384,-4.0397,-3.9454,-3.9388,-3.9388,-3.9388,-3.9388,-3.9388,-3.9388,-3.9388,-3.9388,-3.9388,-3.9388,-3.9388,-3.9388,-3.9388,-3.9388,-3.9388,-3.9388,-3.9388,-3.9388,-3.9388,-3.9418,-3.9753,-4.0412,-4.0487,-4.0786,-4.1399,-4.0602,-3.9718,-3.8804,-3.795,-3.7059,-3.6149,-3.675,-3.705,-3.7063,-3.7639,-3.79,-4.0624,-4.1178,-4.139,-4.2117,-4.2439,-4.2574,-4.2574,-4.2726,-4.2996,-4.3331,-4.4462,-4.553,-4.6005,-4.8335,0.0,-5.2511,-5.3983,0.0,-5.6699,-5.688,0.0,-5.688,0.0,-5.7188,-5.7188,-5.7387,0.0,0.0,-5.7188,-5.7188,-5.7188,-5.6211,-5.556,-5.5385,-5.4316,-5.3668,-5.3501,-5.3501,-5.3501,-5.3501,-5.3501,-5.3501,-5.3484,-5.2539,-5.2018,-5.1715,-5.0326,-4.9477,-4.9061,-4.8514,-4.8166,-4.8001,-4.8001,-4.8001,-4.8001,-4.8001,-4.8001,-4.8001,-4.8001,-4.8001,-4.7968,-4.7737,-4.6913,-4.5949,-4.5769,-4.4699,-4.3591,-4.3591,-4.3448,-4.329,-4.329,-4.2731,-4.2036,-4.1542,-4.0756,-4.0023,-3.9493,-3.9388,-3.9388,-3.9388,-3.9388,-3.9388,-3.9388,-3.9388,-3.9388,-3.9388,-3.9388,-3.9388,-3.9388,-3.9388,-3.9388,-3.9388,-3.9388,-3.9388,-3.9388,-3.9873,-4.0427,-4.1085,-4.1632,-4.1976,-4.2141,-4.1909,-4.0846,-3.8858,-3.8964,-3.8283,-3.6776,-3.7377,-3.7678,-3.7678,-3.7835,-3.79,-4.0374,-4.0713,-4.0815,-4.1247,-4.1576,-4.1813,-4.1813,-4.2066,-4.2366,-4.2646,-4.3537,-4.451,-4.5258,-4.7588,0.0,0.0,0.0,0.0,-5.6971,-5.7188,-5.7188,0.0,-5.7514,0.0,-5.7224,-5.7514,-5.7587,0.0,-5.7188,-5.7087,-5.6811,-5.5904,-5.5266,-5.4978,-5.3996,-5.3501,-5.3501,-5.3501,-5.3501,-5.3501,-5.3501,-5.3501,-5.3467,-5.2185,-5.1513,-5.1212,-4.9592,-4.8779,-4.8597,-4.8166,-4.8001,-4.8001,-4.8001,-4.8001,-4.8001,-4.8001,-4.8001,-4.8001,-4.8001,-4.8001,-4.7935,-4.7588,-4.6671,-4.5624,-4.5295,-4.4297,-4.329,-4.329,-4.329,-4.329,-4.329,-4.2851,-4.2306,-4.1931,-4.1347,-4.0726,-4.0367,-4.0053,-3.9768,-3.9448,-3.9388,-3.9388,-3.9388,-3.9388,-3.9388,-3.9388,-3.9388,-3.9388,-3.9388,-3.9388,-3.9388,-3.9388,-3.9388,-3.9388,-3.9388,-4.0023,-4.0681,-4.1339,-4.2036,-4.236,-4.2233,-4.1818,-4.0802,-3.9018,-3.8906,-3.8366,-3.7403,-3.7743,-3.79,-3.79,-3.79,-3.79,-4.018,-4.018,-4.0096,-4.0096,-4.0578,-4.1052,-4.1052,-4.1542,-4.2042,-4.2223,0.0,-4.3723,-4.4885,-4.6931,-4.9309,-5.1907,0.0,-5.5287,-5.6826,-5.7134,-5.7188,-5.7188,-5.7822,-5.7967,-5.7261,-5.7822,-5.7923,-5.7141,-5.7087,-5.6863,-5.6339,-5.5733,-5.5056,-5.4313,-5.3783,-5.3501,-5.3501,-5.3501,-5.3501,-5.3501,-5.3501,-5.3416,-5.3264,-5.168,-5.0808,-5.0426,-4.8859,-4.8115,-4.8001,-4.8001,-4.8001,-4.8001,-4.8001,-4.8001,-4.8001,-4.8001,-4.8001,-4.8001,-4.8001,-4.8001,-4.7853,-4.7067,-4.6288,-4.5551,-4.4737,-4.3927,-4.329,-4.329,-4.329,-4.329,-4.329,-4.2851,-4.2396,-4.2396,-4.1901,-4.1422,-4.1422,-4.0861,-4.0232,-3.9664,-3.9448,-3.9388,-3.9388,-3.9388,-3.9388,-3.9388,-3.9388,-3.9418,-3.9508,-3.9469,-3.9388,-3.9388,-3.9388,-3.9388,-3.9388,-4.0113,-4.0771,-4.1339,-4.2111,-4.2416,-4.2181,-4.138,-4.0461,-3.9417,-3.8652,-3.8161,-3.79,-3.79,-3.79,-3.79,-3.79,-3.79,-4.0849,-4.0544,-4.0096,-4.0096,-4.0197,-4.0299,-4.0299,-4.04,0.0,0.0,-4.2591,-4.3665,-4.5273,-4.6984,-4.8888,-5.1122,0.0,0.0,-5.5975,-5.6772,-5.7188,0.0,-5.7315,-5.7351,-5.7206,-5.7333,0.0,0.0,-5.6447,-5.642,-5.6311,-5.5733,-5.4861,-5.3701,-5.3551,-5.3501,-5.3501,-5.3501,-5.3501,-5.3501,-5.3501,-5.3095,-5.2303,-5.1245,-5.0325,-4.9559,-4.8497,0.0,-4.8001,-4.8001,-4.8001,-4.8001,-4.8001,-4.8001,-4.8001,-4.8001,-4.8001,-4.8001,-4.8001,-4.8001,-4.7853,-4.7067,-4.6288,-4.5551,-4.4737,-4.3927,-4.329,-4.329,-4.329,-4.329,-4.329,-4.2851,-4.2396,-4.2396,-4.1901,-4.1422,-4.1422,-4.0861,-4.0367,-4.0247,-3.9783,-3.9388,-3.9388,-3.9388,-3.9388,-3.9388,-3.9388,-3.9619,-4.0157,-3.9753,-3.9388,-3.9388,-3.9388,-3.9388,-3.9388,-4.0516,-4.1265,-4.1407,-4.2506,-4.313,-4.3076,-4.2915,-4.2044,-4.0375,-4.0216,-3.9384,-3.79,-3.79,-3.79,-3.79,-3.79,-3.79,-4.1102,-4.1221,-4.1136,-4.0764,-4.0663,-4.0663,-4.0663,0.0,0.0,0.0,-4.2159,-4.3133,-4.4649,0.0,0.0,0.0,0.0,0.0,-5.4683,-5.5329,0.0,-5.6634,-5.6732,-5.6863,-5.7163,-5.6915,-5.6608,-5.6311,-5.5989,-5.5676,-5.532,-5.4738,-5.4126,-5.3534,-5.3501,-5.3501,-5.3501,-5.3501,-5.3501,-5.3501,-5.3011,-5.2522,-5.2051,-5.0676,-4.9792,-4.9359,-4.8431,-4.8001,-4.8001,-4.8001,-4.8001,-4.8001,-4.8001,-4.8001,-4.8001,-4.8001,-4.8001,-4.8001,-4.8001,-4.8001,-4.7853,-4.7067,-4.6288,-4.5624,-4.5258,-4.4259,-4.329,-4.329,-4.329,-4.329,-4.329,-4.3105,-4.2865,-4.2865,-4.2626,-4.2207,-4.1534,-4.113,-4.0711,-4.0023,-3.9634,-3.9388,-3.9388,-3.9388,-3.9529,-3.9873,-3.9933,-4.0172,-4.0831,-4.0636,-4.0307,-3.9963,-3.9933,-3.9783,-3.9454,-4.0307,-4.101,-4.1392,-4.2282,-4.2773,-4.2603,-4.214,-4.1281,-3.9899,-3.9414,-3.8742,-3.79,-3.79,-3.79,-3.79,-3.79,-3.79,-4.1593,-4.1982,-4.2151,-4.1576,-4.1441,-4.139,-4.1238,-4.0865,0.0,0.0,-4.2016,-4.293,-4.4199,0.0,-4.7299,0.0,-5.0267,0.0,-5.3273,-5.4128,-5.4981,0.0,-5.6372,0.0,-5.6803,-5.6501,0.0,-5.5915,-5.5325,-5.4813,-5.4422,-5.3832,-5.3501,-5.3501,-5.3501,-5.3501,-5.3501,-5.3501,-5.3416,-5.323,-5.2455,-5.19,-5.1513,-5.0042,-4.9276,-4.906,-4.8315,-4.8001,-4.8001,-4.8001,-4.8001,-4.8001,-4.8001,-4.8001,-4.8001,-4.8001,-4.8001,-4.8001,-4.8001,-4.8001,-4.7902,-4.7253,-4.6445,-4.566,-4.5515,-4.4434,-4.329,-4.329,-4.329,-4.329,-4.329,-4.329,-4.329,-4.329,-4.3185,-4.2836,-4.1841,-4.1407,-4.0861,-3.9828,-3.9514,-3.9388,-3.9388,-3.9508,-3.9798,-4.0322,-4.0516,-4.0846,-4.1542,-4.1632,-4.1384,-4.0876,-4.0561,-4.0127,-3.9448,-4.0023,-4.0681,-4.1339,-4.2036,-4.2367,-4.229,-4.138,-4.0461,-3.9505,-3.8639,-3.8103,-3.79,-3.79,-3.79,-3.79,-3.79,-3.79,-4.2817,-4.276,-4.2269,-4.2202,-4.2185,-4.2016,-4.1356,0.0,0.0,-4.2168,-4.2794,-4.3685,-4.4973,-4.5372,0.0,0.0,0.0,-5.0941,0.0,-5.4363,-5.5882,-5.5531,0.0,0.0,-5.5689,-5.5989,-5.583,-5.4655,-5.4028,-5.3898,-5.4359,-5.3832,-5.3501,-5.3501,-5.3501,-5.3501,-5.3501,-5.3501,-5.3129,-5.2418,-5.2185,-5.1295,-4.9822,-4.9509,-4.8928,-4.8133,-4.8034,-4.8001,0.0,-4.8001,-4.8001,-4.8001,-4.8001,-4.8001,-4.8001,-4.8001,-4.8001,-4.8001,-4.8001,-4.8001,-4.8001,-4.7886,-4.6878,-4.5551,-4.4849,-4.4004,-4.329,-4.329,-4.329,-4.329,-4.329,-4.329,-4.329,-4.329,-4.288,-4.2455,-4.2336,-4.1324,-4.0457,-4.0337,-3.9828,-3.9388,-3.9388,-3.9903,-4.0337,-4.0382,-4.0905,-4.1572,-4.2231,-4.2306,-4.2291,-4.2231,-4.1115,-4.0127,-3.9448,-4.0023,-4.0681,-4.1339,-4.2036,-4.2656,-4.314,-4.2319,-4.1421,-4.0504,-3.9563,-3.8671,-3.79,-3.79,-3.79,-3.79,-3.79,-3.79,-4.2574,-4.32,-4.3582,-4.3081,-4.2963,-4.2895,-4.2608,0.0,-4.2422,-4.2878,-4.3217,-4.3694,-4.4688,-4.5098,-4.5468,0.0,-4.7605,-4.9037,-4.9855,-5.1448,-5.2909,-5.4014,-5.462,0.0,0.0,0.0,-5.4795,-5.3913,-5.3651,-5.3618,-5.3832,-5.3651,-5.3501,-5.3501,-5.3501,-5.3501,-5.3501,-5.3027,-5.2588,-5.2184,-5.1093,-5.0207,-4.9475,-4.8845,-4.8348,-4.8001,-4.8001,-4.8001,0.0,-4.8001,-4.8001,-4.8001,-4.8001,-4.8001,-4.8001,-4.8001,-4.8001,-4.8001,-4.8001,-4.8001,-4.8001,-4.8001,-4.727,-4.6218,-4.5463,-4.4662,-4.3927,-4.3448,-4.329,-4.329,-4.329,-4.329,-4.329,-4.329,-4.3135,-4.2836,-4.2485,-4.1991,-4.1392,-4.0561,-4.0187,-3.9888,-3.9448,-3.9963,-4.0531,-4.0935,-4.1587,-4.2246,-4.2865,-4.294,-4.2791,-4.244,-4.1931,-4.1309,-4.0651,-4.0846,-4.1265,-4.1976,-4.2246,-4.2445,-4.2508,-4.163,-4.0731,-3.9768,-3.8895,-3.8226,-3.79,-3.79,-3.79,-3.79,-3.79,-3.79,-4.2574,-4.3572,-4.4479,-4.391,-4.3758,-4.3707,0.0,-4.3183,-4.3047,-4.3325,-4.3606,-4.3927,-4.4513,-4.4879,-4.5098,0.0,-4.6505,-4.7789,-4.838,-4.9922,-5.1512,0.0,0.0,-5.4188,0.0,-5.4425,-5.3946,-5.3534,-5.3501,-5.3501,-5.3501,-5.3247,-5.3197,-5.3501,-5.3247,-5.3095,-5.3095,-5.2235,-5.1713,-5.1445,-5.0173,-4.939,-4.9108,-4.8331,-4.8001,-4.8001,-4.8001,-4.8001,0.0,-4.8001,-4.8001,-4.8001,-4.8001,-4.8001,-4.8001,-4.8001,-4.8001,-4.8001,-4.8001,-4.8001,-4.8001,-4.8001,-4.7454,-4.6673,-4.5897,-4.5147,-4.432,-4.3512,-4.329,-4.329,-4.329,-4.3155,-4.309,-4.3245,-4.2991,-4.2686,-4.2455,-4.2096,-4.1542,-4.0576,-4.0247,-4.0023,-3.9753,-4.0247,-4.0905,-4.1564,-4.2261,-4.2821,-4.3245,-4.329,-4.3125,-4.2701,-4.2656,-4.2312,-4.1444,-4.1422,-4.1707,-4.2366,-4.2147,-4.1995,-4.2003,-4.0817,-3.9899,-3.921,-3.8349,-3.79,-3.79,-3.79,-3.79,-3.79,-3.79,-3.79,-4.3172,-4.3978,-4.4615,-4.4598,-4.4598,-4.4395,-4.3589,-4.4012,-4.4361,-4.3572,-4.4028,-4.4598,-4.4615,-4.4598,-4.4598,-4.4598,-4.6302,-4.7687,-4.789,-5.095,0.0,0.0,0.0,-5.4962,-5.3669,-5.3501,-5.3501,-5.3501,-5.3501,0.0,-5.3501,-5.2623,-5.2522,-5.3484,-5.2623,-5.2101,-5.2101,-5.1195,-5.044,-4.9931,-4.9573,-4.9107,-4.85,-4.8164,-4.8001,-4.8001,-4.8001,-4.8001,0.0,-4.8001,-4.8001,-4.8001,-4.8001,-4.8001,-4.8001,-4.8001,-4.8001,-4.8001,-4.8001,-4.8001,-4.8001,-4.8001,-4.7454,-4.6673,-4.5897,-4.5147,-4.432,-4.3512,-4.329,-4.329,-4.329,-4.2865,-4.2575,-4.314,-4.2342,-4.1617,-4.2261,-4.1339,-4.0412,-4.0397,-3.9873,-3.9634,-4.0277,-4.0935,-4.1632,-4.2291,-4.2895,-4.329,-4.329,-4.329,-4.329,-4.329,-4.329,-4.2791,-4.1489,-4.1422,-4.1707,-4.2366,-4.1527,-4.1323,-4.1961,-4.0202,-3.921,-3.921,-3.8349,-3.79,-3.79,-3.79,-3.79,-3.79,-3.79,-3.79,-4.1982,-4.3217,-4.4479,-4.3927,-4.4181,-4.4547,-4.4265,-4.4429,-4.453,-4.4265,-4.4429,-4.4615,-4.4615,-4.4615,-4.4936,-4.5952,-4.7063,0.0,0.0,0.0,0.0,-5.2265,-5.3379,-5.3973,0.0,0.0,-5.3501,-5.3501,-5.3501,-5.3264,-5.2706,-5.2419,-5.2336,-5.2522,-5.1614,-5.1161,-5.1161,-5.0341,-4.9807,-4.9557,-4.9038,-4.8557,-4.8164,-4.8147,-4.8082,-4.8001,-4.8001,-4.8001,-4.8001,-4.8001,-4.8001,-4.8001,-4.8001,-4.8001,-4.8001,-4.8001,-4.8001,-4.8001,-4.8001,-4.8001,-4.8001,-4.8001,-4.7454,-4.6673,-4.5897,-4.5147,-4.432,-4.3512,-4.329,-4.32,-4.2776,-4.2545,-4.2455,-4.2626,-4.2396,-4.2261,-4.288,-4.2342,-4.1782,-4.1782,-4.1205,-4.0831,-4.104,-4.1647,-4.2156,-4.2366,-4.291,-4.329,-4.329,-4.329,-4.329,-4.329,-4.329,-4.3125,-4.2746,-4.2716,-4.2806,-4.3015,-4.2738,-4.2099,-4.1071,-4.0461,-3.9577,-3.8362,-3.8024,-3.79,-3.79,-3.79,-3.79,-3.79,-3.79,-3.79,0.0,-4.3284,-4.4496,-4.3978,-4.4215,-4.4615,-4.4615,-4.4615,-4.4615,-4.4615,-4.4615,-4.4615,-4.4615,-4.4615,-4.5004,-4.6194,-4.7005,0.0,0.0,0.0,0.0,-5.2638,0.0,0.0,0.0,-5.3501,-5.3501,-5.3501,-5.323,-5.2841,-5.2334,-5.1727,-5.1325,-5.116,-5.0575,-5.0275,-5.0209,-4.9392,-4.8959,-4.8927,-4.8525,-4.8244,-4.8099,-4.8115,-4.8082,-4.8001,-4.8001,-4.8001,0.0,-4.8001,-4.8001,-4.8001,-4.8001,-4.8001,-4.8001,-4.8001,-4.8001,-4.8001,-4.8001,-4.8001,-4.7968,-4.7638,-4.6828,-4.5773,-4.502,-4.4434,-4.3966,-4.3433,-4.3125,-4.2865,-4.2515,-4.2216,-4.2096,-4.2336,-4.2396,-4.259,-4.3155,-4.2821,-4.2396,-4.2396,-4.1871,-4.1497,-4.1752,-4.2126,-4.2485,-4.2701,-4.3075,-4.329,-4.329,-4.329,-4.329,-4.329,-4.329,-4.329,-4.329,-4.329,-4.329,-4.329,-4.2644,-4.1796,-4.0646,-3.9927,-3.9042,-3.79,-3.79,-3.79,-3.79,-3.79,-3.79,-3.79,-3.79,-3.79,0.0,-4.4028,-4.4598,-4.453,-4.4564,-4.4615,-4.4615,-4.4615,0.0,-4.4615,-4.4615,-4.4632,-4.4682,-4.4682,-4.4942,-4.5805,-4.6515,0.0,0.0,-5.0388,0.0,0.0,-5.3501,0.0,-5.3501,-5.3501,-5.3484,-5.3416,-5.2723,-5.2249,-5.2131,-5.0718,-4.9799,-4.9521,-4.9521,-4.9456,-4.9293,-4.8447,-4.8049,-4.8195,-4.8049,-4.8082,-4.8195,-4.8049,-4.8001,0.0,-4.8001,-4.8001,-4.8001,-4.8001,-4.8001,-4.8001,-4.8001,-4.8001,-4.8001,-4.8001,-4.8001,-4.8001,-4.8001,-4.8001,-4.7853,-4.6999,-4.5706,-4.4373,-4.3491,-4.323,-4.323,-4.323,-4.2791,-4.2321,-4.2276,-4.1841,-4.1572,-4.2186,-4.2366,-4.259,-4.3155,-4.2821,-4.241,-4.247,-4.1946,-4.1692,-4.2351,-4.247,-4.2626,-4.32,-4.329,-4.329,-4.329,-4.329,-4.329,-4.329,-4.329,-4.329,-4.329,-4.329,-4.325,-4.321,-4.163,-4.0646,-4.0504,-3.8863,-3.7946,-3.79,-3.79,-3.79,-3.79,-3.79,-3.79,-3.79,-3.79,-3.79,-4.4316,0.0,-4.4462,-4.3842,-4.413,-4.4615,0.0,-4.4615,-4.4615,-4.4615,0.0,-4.4784,-4.5331,-4.5449,-4.6058,-4.7919,0.0,0.0,-5.049,0.0,0.0,-5.3382,-5.3501,-5.3501,-5.3501,-5.3501,-5.3247,-5.2638,-5.2418,-5.1761,-5.0534,-5.0208,-4.9658,-4.88,-4.8895,-4.8785,-4.8331,-4.8198,-4.8115,-4.8066,-4.8115,-4.8163,-4.8195,-4.8179,-4.813,-4.8147,-4.8017,-4.8001,-4.8001,-4.8001,-4.8001,-4.8001,-4.8001,-4.8001,-4.8001,-4.8001,-4.8001,-4.8001,-4.8001,-4.8001,-4.7787,-4.641,-4.5369,-4.4403,-4.303,-4.262,-4.262,-4.262,-4.2156,-4.1527,-4.0995,-4.1115,-4.1452,-4.1617,-4.2036,-4.259,-4.3155,-4.2821,-4.2545,-4.3015,-4.2581,-4.2381,-4.2985,-4.3105,-4.3125,-4.3275,-4.329,-4.329,-4.329,-4.329,-4.329,-4.329,-4.329,-4.329,-4.329,-4.329,-4.301,-4.2333,-4.1908,-4.1029,-3.9593,-3.9135,-3.8594,-3.79,-3.79,-3.79,-3.79,-3.79,-3.79,-3.79,-3.79,-3.79,-4.4615,-4.4869,-4.4993,-4.457,-4.479,-4.5094,-4.5094,0.0,0.0,0.0,0.0,0.0,0.0,0.0,0.0,0.0,-4.8511,0.0,0.0,0.0,-5.301,-5.345,-5.3501,-5.3501,0.0,-5.3179,-5.274,-5.2251,-5.1593,-5.0787,-4.9817,-4.9607,-4.9188,-4.8515,-4.8753,-4.8675,-4.8244,-4.8292,-4.826,-4.8082,-4.8179,-4.8163,-4.8115,-4.8163,-4.8179,-4.8115,-4.8082,-4.8066,-4.8001,-4.8001,-4.8001,-4.8001,-4.8001,-4.8001,-4.8001,-4.8001,-4.8001,-4.7951,-4.7603,-4.7012,-4.6322,-4.5502,-4.4535,-4.3433,-4.2312,-4.1737,-4.1572,-4.1856,-4.1482,-4.092,-4.0861,-4.1115,-4.1497,-4.1796,-4.2327,-4.2895,-4.3215,-4.3045,-4.291,-4.323,-4.3045,-4.2925,-4.323,-4.329,-4.329,-4.329,-4.329,-4.329,-4.329,-4.329,-4.329,-4.329,-4.329,-4.329,-4.329,-4.329,-4.309,-4.2618,-4.1811,-4.0901,-3.9899,-3.906,-3.8395,-3.79,-3.79,-3.79,-3.79,-3.79,-3.79,-3.79,-3.79,-3.79,-4.4615,-4.5213,-4.5838,-4.5737,-4.5703,-4.5703,-4.5703,0.0,0.0,0.0,0.0,0.0,0.0,-4.5974,0.0,0.0,0.0,0.0,-5.1099,-5.2503,-5.3365,-5.3501,-5.3399,0.0,-5.3315,-5.2571,-5.1998,-5.1764,-5.0587,-4.9701,-4.9405,-4.8979,-4.8658,-4.8452,-4.8784,-4.8846,-4.8547,-4.8564,-4.8452,-4.826,-4.8195,-4.8179,-4.8099,-4.8163,-4.8147,-4.8099,0.0,0.0,-4.8033,-4.8033,-4.8033,-4.8001,-4.8001,-4.8001,-4.7984,-4.7868,-4.7835,-4.7736,-4.699,-4.5815,-4.4606,-4.4535,-4.3493,-4.2159,-4.1483,-4.0771,-4.0367,-4.092,-4.0681,-4.0397,-4.1055,-4.1309,-4.1587,-4.2246,-4.2865,-4.329,-4.329,-4.329,-4.329,-4.329,-4.329,-4.329,-4.329,-4.329,-4.329,-4.329,-4.329,-4.329,-4.329,-4.329,-4.329,-4.329,-4.329,-4.329,-4.329,-4.329,-4.325,-4.3115,-4.1532,-4.0475,-4.0216,-3.8697,-3.79,-3.79,-3.79,-3.79,-3.79,-3.79,-3.79,-3.79,-3.79,-3.79,-4.4615,-4.5585,-4.6481,-4.5872,-4.5703,-4.5703,-4.5703,0.0,0.0,0.0,0.0,0.0,0.0,-4.7141,-4.8054,0.0,0.0,-5.1016,0.0,0.0,-5.2739,-5.3416,0.0,-5.2486,-5.2486,-5.1695,-5.0923,-5.0284,-4.9869,-4.9305,-4.846,-4.8487,-4.8452,-4.826,-4.8644,-4.8818,-4.8738,-4.8738,-4.8658,-4.8452,-4.8292,-4.8292,-4.842,-4.826,-4.8292,-4.842,0.0,-4.8356,-4.8163,-4.8163,-4.8115,-4.8001,-4.8001,-4.8001,-4.7918,-4.7305,-4.7073,-4.6957,-4.6212,-4.5453,-4.4673,-4.3979,-4.2825,-4.1592,-4.079,-4.0098,-3.9553,-3.9694,-3.9649,-3.9723,-4.0382,-4.0965,-4.1587,-4.2246,-4.2865,-4.329,-4.329,-4.329,-4.329,-4.329,-4.329,-4.329,-4.329,-4.329,-4.329,-4.329,-4.329,-4.329,-4.329,-4.329,-4.329,-4.329,-4.329,-4.329,-4.329,-4.329,-4.2996,-4.2237,-4.1197,-3.9927,-3.8376,-3.8024,-3.79,-3.79,-3.79,-3.79,-3.79,-3.79,-3.79,-3.79,-3.79,-3.79,-4.4496,-4.5382,-4.621,-4.6278,-4.6599,-4.6904,-4.6904,0.0,0.0,0.0,0.0,0.0,0.0,0.0,-4.8497,-5.0405,0.0,-5.1911,-5.2249,-5.2672,-5.2926,0.0,0.0,-5.2115,-5.1628,-5.0888,-5.0186,-4.9655,-4.914,-4.8626,-4.8131,-4.826,-4.8356,-4.8356,-4.8644,-4.8832,-4.8894,-4.8925,-4.8832,-4.8658,-4.8564,-4.8532,-4.8515,-4.8532,-4.8532,-4.8515,0.0,-4.8564,-4.8356,-4.8227,-4.8163,-4.8115,-4.8033,-4.7769,-4.7322,-4.6576,-4.6046,-4.5715,-4.5765,-4.4846,-4.3541,-4.3186,-4.2125,-4.085,-4.0097,-3.9627,-3.9388,-3.9388,-3.9388,-3.9649,-4.0666,-4.116,-4.1639,-4.2641,-4.312,-4.329,-4.329,-4.329,-4.329,-4.329,-4.329,-4.329,-4.329,-4.329,-4.329,-4.329,-4.329,-4.329,-4.329,-4.329,-4.329,-4.329,-4.329,-4.329,-4.329,-4.329,-4.2699,-4.1338,-4.0375,-3.9282,-3.7946,-3.79,-3.79,-3.79,-3.79,-3.79,-3.79,-3.79,-3.79,-3.79,-3.79,-3.79,-4.4395,-4.5128,-4.5838,-4.6397,-4.6972,-4.753,-4.8054,-4.7445,0.0,0.0,0.0,0.0,0.0,-4.8189,0.0,-5.115,-5.1944,-5.2367,-5.2553,-5.2959,-5.296,-5.2318,-5.1947,-5.1459,-5.0739,-4.9968,-4.9403,-4.9143,-4.8528,-4.8115,-4.8001,-4.8082,-4.8161,-4.8169,-4.8375,-4.8447,-4.8416,-4.8446,-4.8602,-4.8849,-4.8818,-4.8707,-4.8595,-4.8738,-4.8707,-4.8595,-4.8769,-4.8738,-4.8564,-4.8388,-4.8292,-4.8178,-4.7899,-4.7221,-4.6311,-4.5748,-4.5069,-4.4522,-4.5086,-4.4123,-4.2572,-4.2391,-4.1515,-4.0339,-3.961,-3.9388,-3.9388,-3.9388,-3.9388,-3.9694,-4.0846,-4.1145,-4.1489,-4.2791,-4.3105,-4.315,-4.326,-4.329,-4.329,-4.329,-4.329,-4.329,-4.329,-4.329,-4.329,-4.329,-4.329,-4.329,-4.329,-4.329,-4.329,-4.329,-4.329,-4.329,-4.329,-4.3115,-4.2246,-4.052,-3.9642,-3.8792,-3.7946,-3.79,-3.79,-3.79,-3.79,-3.79,-3.79,-3.79,-3.79,-3.79,-3.79,-3.79,-4.4395,-4.5128,-4.572,-4.5771,-4.5821,0.0,-4.846,-4.7817,0.0,-4.7699,0.0,0.0,0.0,-4.9018,-5.0439,-5.1978,-5.2266,-5.2553,-5.3315,0.0,-5.2301,-5.2135,-5.0906,-4.995,-4.9721,-4.8873,-4.8311,-4.8278,-4.8115,-4.8001,-4.8001,-4.8001,-4.7767,-4.7228,-4.7417,-4.7237,-4.6683,-4.6879,-4.7648,-4.897,-4.8863,-4.8769,-4.8786,-4.8769,-4.8769,-4.8769,-4.8925,-4.8925,-4.8786,-4.8769,-4.8532,-4.8129,-4.7511,-4.6286,-4.4837,-4.4818,-4.4307,-4.3681,-4.3731,-4.3256,-4.2491,-4.1818,-4.1073,-4.0339,-3.961,-3.9388,-3.9388,-3.9388,-3.9388,-3.9589,-4.0292,-4.0472,-4.0801,-4.2156,-4.247,-4.2635,-4.317,-4.329,-4.329,-4.329,-4.329,-4.329,-4.329,-4.329,-4.329,-4.329,-4.329,-4.329,-4.329,-4.329,-4.329,-4.329,-4.329,-4.329,-4.329,-4.2578,-4.1441,-3.9872,-3.9422,-3.8792,-3.7946,-3.79,-3.79,-3.79,-3.79,-3.79,-3.79,-3.79,-3.79,-3.79,-3.79,-3.79,-4.3656,-4.4756,-4.5703,-4.5703,-4.6041,0.0,0.0,-4.8578,-4.8511,-4.9729,-4.9238,0.0,0.0,0.0,-5.0422,-5.1454,-5.164,-5.1709,-5.1914,-5.1662,-5.1275,-5.0608,-5.0038,-4.9453,-4.8791,-4.8394,-4.8179,-4.8082,-4.8033,-4.8033,-4.8115,-4.7698,-4.7411,-4.741,-4.7049,-4.677,-4.6697,-4.6756,-4.7073,-4.7631,-4.7571,-4.7794,-4.825,-4.825,-4.8486,-4.8925,-4.897,-4.8717,-4.8284,-4.8664,-4.8152,-4.7058,-4.6124,-4.5338,-4.4622,-4.4191,-4.383,-4.3598,-4.3598,-4.2865,-4.1852,-4.1591,-4.0737,-3.9753,-3.9481,-3.9388,-3.9388,-3.9388,-3.9388,-3.9574,-4.0232,-4.0397,-4.0621,-4.1572,-4.1796,-4.1961,-4.2581,-4.2731,-4.2851,-4.3215,-4.329,-4.329,-4.329,-4.329,-4.329,-4.329,-4.329,-4.329,-4.329,-4.329,-4.329,-4.329,-4.329,-4.329,-4.329,-4.1613,-4.032,-3.9732,-3.9394,-3.8617,-3.7396,-3.7704,-3.79,-3.79,-3.79,-3.79,-3.79,-3.79,-3.79,-3.79,-3.79,-3.79,-4.3422,-4.4666,-4.5703,-4.5703,0.0,0.0,-4.8663,-4.9187,-4.9695,-5.0931,-5.0219,-4.9272,-4.9035,0.0,0.0,0.0,-5.0603,-5.0458,-5.0593,-5.0176,-4.9659,-4.9211,-4.8962,-4.8629,-4.818,-4.8147,-4.8115,-4.8001,-4.7785,-4.7685,-4.7798,-4.7147,-4.6786,-4.6861,-4.64,-4.6119,-4.6092,-4.6092,-4.6092,-4.6092,-4.6092,-4.6599,-4.7564,-4.7564,-4.7834,-4.8308,-4.8308,-4.802,-4.7567,-4.7983,-4.7383,-4.6081,-4.5297,-4.4783,-4.4397,-4.387,-4.3658,-4.3568,-4.3372,-4.2632,-4.1754,-4.1327,-4.0531,-3.9681,-3.9481,-3.9388,-3.9388,-3.9388,-3.9388,-3.9529,-3.9978,-4.0083,-4.0247,-4.0905,-4.107,-4.1347,-4.2216,-4.2396,-4.259,-4.317,-4.329,-4.329,-4.329,-4.329,-4.329,-4.329,-4.329,-4.329,-4.329,-4.329,-4.329,-4.329,-4.3036,-4.2826,-4.2604,-4.0802,-3.9508,-3.902,-3.8947,-3.838,-3.7056,-3.7586,-3.79,-3.79,-3.79,-3.79,-3.79,-3.79,-3.79,-3.79,-3.79,-3.79,-4.3861,-4.4951,-4.5674,0.0,0.0,0.0,-4.8663,-4.956,-5.0287,-5.1048,-5.0608,-4.9864,-4.9137,-4.9001,0.0,-4.9965,-4.9309,-4.8957,-4.9649,-4.8307,-4.7496,-4.8109,-4.7525,-4.7337,-4.7935,-4.8001,-4.8001,-4.7984,-4.7305,-4.6891,-4.6891,-4.6319,-4.574,-4.5206,-4.535,-4.5125,-4.4615,-4.4615,-4.4615,-4.4615,-4.4615,-4.5376,-4.6786,-4.6786,-4.6786,-4.6786,-4.6786,-4.6786,-4.6786,-4.6769,-4.6241,-4.5408,-4.5232,-4.4649,-4.3898,-4.3898,-4.3763,-4.3492,-4.2834,-4.2585,-4.2349,-4.0974,-4.0478,-4.0339,-3.961,-3.9388,-3.9388,-3.9388,-3.9388,-3.9388,-3.9388,-3.9388,-3.9589,-4.0232,-4.0382,-4.0756,-4.2096,-4.2396,-4.259,-4.3155,-4.329,-4.329,-4.329,-4.329,-4.329,-4.329,-4.329,-4.329,-4.3275,-4.3275,-4.3275,-4.3275,-4.2522,-4.1741,-4.1168,-4.0256,-3.9075,-3.76,-3.8059,-3.799,-3.7043,-3.7586,-3.79,-3.79,-3.79,-3.79,-3.79,-3.79,-3.79,-3.79,-3.79,-3.79,-4.2371,-4.3572,0.0,0.0,0.0,0.0,0.0,-4.8798,0.0,0.0,-5.0253,-4.9864,-4.9137,-4.9001,0.0,-4.8395,-4.8117,-4.7699,-4.7152,-4.6637,-4.6347,-4.6414,-4.6698,-4.6965,-4.7152,-4.7671,-4.7785,-4.7272,-4.7023,-4.6739,-4.6367,-4.5787,-4.539,-4.535,-4.5019,-4.4761,-4.4615,-4.4615,-4.4615,-4.4615,-4.4615,-4.5094,-4.6024,-4.6024,-4.6312,-4.6786,-4.6786,-4.6498,-4.5991,-4.5449,-4.5296,-4.5336,-4.4791,-4.4298,-4.3898,-4.3898,-4.3763,-4.3492,-4.2834,-4.2253,-4.1689,-4.0771,-4.0146,-3.9681,-3.9445,-3.9388,-3.9388,-3.9388,-3.9388,-3.9388,-3.9388,-3.9388,-3.9433,-3.9664,-3.9709,-3.9948,-4.0801,-4.1339,-4.1901,-4.2521,-4.3015,-4.329,-4.329,-4.329,-4.314,-4.2716,-4.2656,-4.2491,-4.2013,-4.1953,-4.1953,-4.1953,-4.1707,-4.1516,-4.1308,-3.9937,-3.8877,-3.8449,-3.7771,-3.7298,-3.6998,-3.7586,-3.79,-3.79,-3.79,-3.79,-3.79,-3.79,-3.79,-3.79,-3.79,-3.79,-4.2851,0.0,0.0,0.0,0.0,-4.8731,-4.843,0.0,0.0,0.0,-5.0084,-4.9864,-4.906,-4.8656,0.0,-4.7589,-4.6918,-4.624,-4.5577,-4.5101,-4.4968,-4.5169,-4.5897,-4.6352,-4.6372,-4.7078,-4.7255,-4.651,-4.6179,-4.5924,-4.5646,-4.508,-4.4825,-4.4954,-4.4722,-4.4615,-4.4615,-4.4615,-4.4615,-4.4615,-4.4615,-4.4852,-4.5263,-4.5263,-4.55,-4.5935,-4.5935,-4.5669,-4.5229,-4.4801,-4.4795,-4.5048,-4.4581,-4.427,-4.4056,-4.3998,-4.3881,-4.3568,-4.2506,-4.1884,-4.1327,-4.0374,-3.9753,-3.9388,-3.9388,-3.9388,-3.9388,-3.9388,-3.9388,-3.9388,-3.9388,-3.9388,-3.9388,-3.9388,-3.9388,-3.9568,-4.0262,-4.0711,-4.1265,-4.2216,-4.2671,-4.303,-4.3245,-4.312,-4.2821,-4.2455,-4.2171,-4.1871,-4.1467,-4.1422,-4.1422,-4.1422,-4.1088,-4.061,-4.0037,-3.8906,-3.8021,-3.7441,-3.7143,-3.6998,-3.6998,-3.7586,-3.79,-3.79,-3.79,-3.79,-3.79,-3.79,-3.79,-3.79,-3.79,-3.79,0.0,0.0,0.0,0.0,0.0,0.0,-4.8931,-4.9417,-4.9871,-4.9982,0.0,-4.9622,-4.8856,-4.8032,-4.7373,-4.7122,-4.5778,-4.4774,-4.4662,-4.3888,-4.3536,-4.422,-4.5017,-4.5496,-4.5508,-4.6225,-4.643,-4.5748,-4.5069,-4.4716,-4.4817,-4.4378,-4.4155,-4.431,-4.4514,-4.4615,-4.4615,-4.4615,-4.4615,-4.4615,-4.4615,-4.4615,-4.4615,-4.4615,-4.4615,-4.4615,-4.4615,-4.4615,-4.4615,-4.4615,-4.4615,-4.4615,-4.4615,-4.4468,-4.4281,-4.4155,-4.3998,-4.3645,-4.2045,-4.1492,-4.126,-3.9844,-3.9388,-3.9388,-3.9388,-3.9388,-3.9388,-3.9388,-3.9388,-3.9388,-3.9388,-3.9388,-3.9388,-3.9388,-3.9388,-3.9589,-4.0187,-4.0367,-4.0756,-4.1991,-4.2276,-4.25,-4.3006,-4.2656,-4.2291,-4.2231,-4.1662,-4.1205,-4.1205,-4.1205,-4.1205,-4.1205,-4.0367,-3.9326,-3.806,-3.7538,-3.6753,-3.5483,-3.6363,-3.692,-3.692,-3.7547,-3.79,-3.79,-3.79,-3.79,-3.79,-3.79,-3.79,-3.79,-3.79,-3.79,0.0,0.0,0.0,0.0,0.0,0.0,0.0,-4.8332,-4.8166,-4.9049,-4.8636,-4.8083,-4.7901,-4.7088,-4.626,-4.5468,-4.5058,-4.451,-4.3732,-4.3448,-4.3174,-4.2883,-4.3516,-4.3982,-4.4034,-4.4783,-4.5161,-4.4939,-4.4771,-4.4547,-4.4147,-4.411,-4.4155,-4.431,-4.4514,-4.4615,-4.4615,-4.4615,-4.4615,-4.4615,-4.4615,-4.4615,-4.4615,-4.4615,-4.4615,-4.4615,-4.4615,-4.4615,-4.4615,-4.4615,-4.4615,-4.4615,-4.4615,-4.4429,-4.4155,-4.4097,-4.3923,-4.3462,-4.2013,-4.1492,-4.126,-3.9844,-3.9388,-3.9388,-3.9388,-3.9388,-3.9388,-3.9388,-3.9388,-3.9388,-3.9388,-3.9388,-3.9388,-3.9388,-3.9388,-3.9454,-3.9568,-4.0038,-4.0487,-4.0771,-4.1272,-4.1677,-4.1773,-4.1683,-4.1452,-4.0905,-4.0262,-3.9843,-3.9843,-3.9843,-3.9843,-3.9843,-3.906,-3.846,-3.8178,-3.7256,-3.6576,-3.6246,-3.6277,-3.6292,-3.6292,-3.7325,-3.79,-3.79,-3.79,-3.79,-3.79,-3.79,-3.79,-3.79,-3.79,-3.79,0.0,0.0,0.0,0.0,0.0,0.0,0.0,0.0,-4.6952,-4.7556,-4.7273,-4.6884,-4.6797,-4.6099,-4.5322,-4.4759,-4.432,-4.3888,-4.3369,-4.306,-4.2746,-4.244,-4.2787,-4.2906,-4.2564,-4.3595,-4.4122,-4.3702,-4.4084,-4.4205,-4.4015,-4.4126,-4.427,-4.444,-4.4542,-4.4615,-4.4615,-4.4615,-4.4615,-4.4615,-4.4615,-4.4615,-4.4615,-4.4615,-4.4615,-4.4615,-4.4615,-4.4615,-4.4615,-4.4615,-4.4615,-4.4615,-4.4615,-4.4485,-4.4315,-4.4155,-4.3981,-4.3671,-4.2443,-4.1787,-4.1327,-4.0285,-3.9681,-3.9388,-3.9388,-3.9388,-3.9388,-3.9388,-3.9388,-3.9388,-3.9388,-3.9388,-3.9388,-3.9388,-3.9388,-3.9388,-3.9388,-3.9694,-4.0023,-4.0337,-4.0681,-4.101,-4.1324,-4.1115,-4.0681,-4.0023,-3.9634,-3.9388,-3.9388,-3.9388,-3.9388,-3.9388,-3.8701,-3.8037,-3.7615,-3.6927,-3.6222,-3.554,-3.5884,-3.5979,-3.573,-3.6567,-3.7168,-3.7469,-3.7469,-3.7612,-3.79,-3.79,-3.79,-3.79,-3.79,-3.7756,0.0,0.0,0.0,0.0,0.0,0.0,0.0,0.0,0.0,-4.5941,-4.5977,-4.5905,-4.5758,-4.5079,-4.4488,-4.4335,-4.3732,-4.3245,-4.314,-4.2701,-4.2306,-4.2096,-4.2112,-4.1909,-4.1289,-4.2412,-4.2993,-4.2634,-4.3295,-4.3835,-4.4097,-4.4224,-4.4395,-4.4598,-4.4615,-4.4615,-4.4615,-4.4615,-4.4615,-4.4615,-4.4615,-4.4615,-4.4615,-4.4615,-4.4615,-4.4615,-4.4615,-4.4615,-4.4615,-4.4615,-4.4615,-4.4615,-4.4615,-4.457,-4.4514,-4.4241,-4.4126,-4.3964,-4.2988,-4.2142,-4.1411,-4.0737,-4.0021,-3.9388,-3.9388,-3.9388,-3.9388,-3.9388,-3.9388,-3.9388,-3.9388,-3.9388,-3.9388,-3.9388,-3.9388,-3.9388,-3.9388,-3.9388,-3.9574,-4.0127,-4.0232,-4.0397,-4.095,-4.0591,-4.0053,-3.9463,-3.9388,-3.9388,-3.9388,-3.9388,-3.9388,-3.9388,-3.8701,-3.791,-3.7179,-3.667,-3.587,-3.4714,-3.5372,-3.5613,-3.5155,-3.5574,-3.6136,-3.6828,-3.6946,-3.7299,-3.79,-3.79,-3.7848,-3.7743,-3.7743,-3.7429,0.0,0.0,0.0,0.0,0.0,0.0,0.0,0.0,0.0,0.0,-4.4983,-4.4983,-4.4946,-4.4143,-4.3472,-4.3472,-4.3369,-4.3135,-4.2605,-4.2455,-4.1976,-4.0801,-4.0673,-4.0671,-4.0643,-4.0808,-4.1404,-4.2522,-4.2818,-4.3276,-4.4068,-4.4224,-4.4395,-4.4598,-4.4615,-4.4615,-4.4615,-4.4615,-4.4615,-4.4615,-4.4615,-4.4615,-4.4615,-4.4615,-4.4615,-4.4615,-4.4615,-4.4615,-4.4615,-4.4615,-4.4615,-4.4615,-4.4615,-4.4497,-4.4338,-4.4281,-4.4196,-4.3964,-4.3078,-4.23,-4.1543,-4.0771,-4.0021,-3.9388,-3.9388,-3.9388,-3.9388,-3.9388,-3.9388,-3.9388,-3.9388,-3.9388,-3.9388,-3.9388,-3.9388,-3.9388,-3.9388,-3.9388,-3.9454,-3.9529,-3.9508,-3.9574,-3.9664,-3.9604,-3.9514,-3.9388,-3.9388,-3.9388,-3.9388,-3.9388,-3.9388,-3.9388,-3.8701,-3.815,-3.8037,-3.6654,-3.571,-3.5548,-3.4973,-3.4593,-3.4515,-3.458,-3.5129,-3.6201,-3.6737,-3.7299,-3.79,-3.79,-3.7639,-3.7116,-3.7116,-3.6802,0.0,0.0,0.0,0.0,0.0,0.0,0.0,0.0,0.0,0.0,-4.3966,-4.3966,-4.3966,-4.3591,-4.329,-4.329,-4.303,-4.2686,-4.244,-4.1767,-4.1055,-4.0472,-4.0068,-3.9832,-3.9874,-4.025,-4.0925,-4.2029,-4.2614,-4.3273,-4.4167,-4.4384,-4.4514,-4.4615,-4.4615,-4.4615,-4.4615,-4.4615,-4.4615,-4.4615,-4.4615,-4.4615,-4.4615,-4.4615,-4.4615,-4.4615,-4.4615,-4.4615,-4.4615,-4.4615,-4.4615,-4.4615,-4.4615,-4.4542,-4.444,-4.4338,-4.4253,-4.4093,-4.3262,-4.2395,-4.1576,-4.0857,-4.0041,-3.9388,-3.9388,-3.9388,-3.9388,-3.9388,-3.9388,-3.9388,-3.9388,-3.9388,-3.9388,-3.9388,-3.9388,-3.9388,-3.9388,-3.9388,-3.9388,-3.9388,-3.9388,-3.9388,-3.9388,-3.9388,-3.9388,-3.9388,-3.9388,-3.9388,-3.9388,-3.9388,-3.9388,-3.9388,-3.8701,-3.8,-3.7501,-3.6373,-3.5507,-3.4991,-3.4592,-3.4397,-3.4397,-3.4397,-3.4933,-3.6083,-3.6358,-3.6959,-3.79,-3.756,-3.726,-3.6998,-3.6658,-3.6188,0.0,0.0,0.0,0.0,0.0,0.0,0.0,0.0,0.0,0.0,-4.329,-4.329,-4.329,-4.329,-4.3245,-4.312,-4.2671,-4.2276,-4.1946,-4.101,-4.0337,-4.0172,-3.9709,-3.9388,-3.9388,-3.995,-4.0687,-4.1626,-4.2394,-4.3257,-4.4236,-4.4468,-4.4615,-4.4615,-4.4615,-4.4615,-4.4615,-4.4615,-4.4615,-4.4615,-4.4615,-4.4615,-4.4615,-4.4615,-4.4615,-4.4615,-4.4615,-4.4615,-4.4615,-4.4615,-4.4615,-4.4615,-4.4615,-4.4615,-4.4542,-4.4236,-4.4105,-4.3989,-4.3171,-4.2332,-4.1478,-4.0891,-4.0146,-3.9445,-3.9424,-3.9388,-3.9388,-3.9388,-3.9388,-3.9388,-3.9388,-3.9388,-3.9388,-3.9388,-3.9388,-3.9388,-3.9388,-3.9388,-3.9388,-3.9388,-3.9388,-3.9388,-3.9388,-3.9388,-3.9388,-3.9388,-3.9388,-3.9388,-3.9388,-3.9388,-3.9388,-3.9388,-3.8701,-3.7947,-3.7295,-3.6281,-3.5426,-3.4758,-3.4522,-3.4397,-3.4397,-3.4397,-3.4868,-3.5874,-3.59,-3.6488,-3.7678,-3.7063,-3.6711,-3.6567,-3.6109,-3.56,0.0,0.0,0.0,0.0,0.0,0.0,0.0,0.0,0.0,0.0,0.0,-4.329,-4.329,-4.329,-4.3135,-4.2545,-4.2425,-4.1961,-4.0681,-4.0442,-4.0172,-3.9544,-3.9403,-3.9388,-3.9388,-3.9625,-4.0305,-4.1593,-4.2093,-4.2892,-4.4236,-4.4468,-4.4615,-4.4615,-4.4615,-4.4615,-4.4615,-4.4615,-4.4615,-4.4615,-4.4615,-4.4615,-4.4615,-4.4615,-4.4615,-4.4615,-4.4615,-4.4615,-4.4615,-4.4615,-4.4615,-4.4615,-4.4615,-4.4615,-4.4514,-4.381,-4.3542,-4.3423,-4.2615,-4.1884,-4.1227,-4.0839,-4.0235,-3.9661,-3.9445,-3.9388,-3.9388,-3.9388,-3.9388,-3.9388,-3.9388,-3.9388,-3.9388,-3.9388,-3.9388,-3.9388,-3.9388,-3.9388,-3.9388,-3.9388,-3.9388,-3.9388,-3.9388,-3.9388,-3.9388,-3.9388,-3.9388,-3.9388,-3.9388,-3.9388,-3.9388,-3.9388,-3.8701,-3.8165,-3.8127,-3.6663,-3.5669,-3.5629,-3.4868,-3.4397,-3.4397,-3.4397,-3.4698,-3.5325,-3.5338,-3.59,-3.705,-3.6449,-3.5887,-3.5391,-3.5351,-3.5012,0.0,0.0,0.0,0.0,0.0,0.0,0.0,0.0,0.0,0.0,0.0,-4.317,-4.2776,-4.2701,-4.2626,-4.244,-4.2051,-4.1602,-4.11,-4.1025,-4.0935,-4.0711,-4.0307,-4.0053,-4.0053,-3.983,-4.0146,-4.1178,-4.1917,-4.2738,-4.3735,-4.431,-4.4615,-4.4615,-4.4615,-4.4615,-4.4615,-4.4615,-4.4615,-4.4615,-4.4615,-4.4615,-4.4615,-4.4615,-4.4615,-4.4615,-4.4615,-4.4615,-4.4615,-4.4615,-4.4615,-4.4615,-4.4615,-4.4615,-4.457,-4.431,-4.3914,-4.3393,-4.2676,-4.1933,-4.1176,-4.0474,-4.0001,-3.9646,-3.9445,-3.9388,-3.9388,-3.9388,-3.9388,-3.9388,-3.9388,-3.9388,-3.9388,-3.9388,-3.9388,-3.9388,-3.9388,-3.9388,-3.9388,-3.9388,-3.9388,-3.9388,-3.9388,-3.9388,-3.9388,-3.9388,-3.9388,-3.9388,-3.9388,-3.9388,-3.9388,-3.9388,-3.9156,-3.8775,-3.824,-3.7155,-3.6241,-3.5736,-3.4868,-3.4397,-3.4397,-3.4397,-3.4685,-3.5286,-3.492,-3.5286,-3.6423,-3.5861,-3.5482,-3.5286,-3.4894,-3.4607,-3.8332,0.0,0.0,0.0,0.0,0.0,0.0,0.0,0.0,0.0,0.0,0.0,-4.2156,-4.1886,-4.1737,-4.1737,-4.1519,-4.1309,-4.1085,-4.125,-4.1422,-4.1422,-4.0995,-4.0726,-4.0726,-4.0383,-4.0461,-4.1283,-4.1996,0.0,-4.3453,-4.4207,-4.4615,-4.4615,-4.4615,-4.4615,-4.4615,-4.4615,-4.4615,-4.4615,-4.4615,-4.4615,-4.4615,-4.4615,-4.4615,-4.4615,-4.4615,-4.4615,-4.4615,-4.4615,-4.4615,-4.4615,-4.4615,-4.4615,-4.457,-4.431,-4.3781,-4.3075,-4.2395,-4.1673,-4.0938,-4.0226,-3.9925,-3.9732,-3.9496,-3.9388,-3.9388,-3.9388,-3.9388,-3.9388,-3.9388,-3.9388,-3.9388,-3.9388,-3.9388,-3.9388,-3.9388,-3.9388,-3.9388,-3.9388,-3.9388,-3.9388,-3.9388,-3.9388,-3.9388,-3.9388,-3.9388,-3.9388,-3.9388,-3.9388,-3.9388,-3.9388,-3.9156,-3.8775,-3.824,-3.7424,-3.6543,-3.5736,-3.5155,-3.4716,-3.4397,-3.4397,-3.458,-3.4986,-3.4607,-3.4776,-3.5534,-3.5168,-3.4999,-3.4986,-3.458,-3.4397,0.0,0.0,0.0,0.0,0.0,0.0,0.0,0.0,0.0,0.0,0.0,0.0,0.0,-4.0831,-4.0382,-4.0367,-4.0935,-4.116,-4.0516,-4.101,-4.1482,-4.1482,-4.1452,-4.1452,-4.1452,-4.1172,-4.1255,-4.1934,-4.2316,-4.2784,-4.3453,-4.4179,-4.4615,-4.4615,-4.4615,-4.4615,-4.4615,-4.4615,-4.4615,-4.4615,-4.4615,-4.4615,-4.4615,-4.4615,-4.4615,-4.4615,-4.4615,-4.4615,-4.4615,-4.4615,-4.4615,-4.4615,-4.4615,-4.4615,-4.4514,-4.3781,-4.3075,-4.2379,-4.1739,-4.1057,-4.042,-4.0101,-4.0011,-3.9925,-3.9532,-3.9388,-3.9388,-3.9388,-3.9388,-3.9388,-3.9388,-3.9388,-3.9388,-3.9388,-3.9388,-3.9388,-3.9388,-3.9388,-3.9388,-3.9388,-3.9388,-3.9388,-3.9388,-3.9388,-3.9388,-3.9388,-3.9388,-3.9388,-3.9388,-3.9388,-3.9388,-3.9388,-3.8701,-3.824,-3.824,-3.741,-3.6582,-3.5776,-3.5709,-3.5264,-3.4439,-3.4397,-3.4397,-3.4397,-3.4397,-3.4397,-3.4397,-3.4397,-3.4397,-3.4397,-3.4397,-3.4397,-3.7764,0.0,0.0,0.0,0.0,0.0,0.0,0.0,0.0,0.0,0.0,0.0,0.0,0.0,-4.0247,-3.9768,-4.0651,-4.1324,-4.113,-4.2087,-4.2751,-4.2751,-4.2372,-4.2126,-4.2126,-4.1444,-4.1091,0.0,-4.2037,-4.2583,-4.2769,-4.3931,-4.4615,-4.4615,-4.4615,-4.4615,-4.4615,-4.4615,-4.4615,-4.4615,-4.4615,-4.4615,-4.4615,-4.4615,-4.4615,-4.4615,-4.4615,-4.4615,-4.4615,-4.4615,-4.4615,-4.4615,-4.4615,-4.4615,-4.4514,-4.3781,-4.3075,-4.2379,-4.1739,-4.1057,-4.042,-4.0101,-4.0011,-3.9925,-3.9532,-3.9388,-3.9388,-3.9388,-3.9388,-3.9388,-3.9388,-3.9388,-3.9388,-3.9388,-3.9388,-3.9388,-3.9388,-3.9388,-3.9388,-3.9388,-3.9388,-3.9388,-3.9388,-3.9388,-3.9388,-3.9388,-3.9388,-3.9388,-3.9388,-3.9388,-3.9388,-3.9388,-3.9192,-3.9083,-3.9083,-3.7753,-3.6802,-3.6582,-3.5413,-3.4634,-3.4397,-3.4397,-3.4397,-3.4397,-3.4397,-3.4397,-3.4397,-3.4397,-3.4397,-3.4397,-3.4397,-3.4397,-3.7584,-3.8392,-3.9313,-3.9065,0.0,0.0,-3.9903,-3.9993,0.0,0.0,0.0,0.0,0.0,0.0,0.0,0.0,-4.0292,-4.107,-4.1339,-4.2506,-4.329,-4.329,-4.3,-4.2815,-4.2932,-4.2251,-4.1748,-4.1584,-4.2414,-4.308,-4.3366,-4.415,-4.4615,-4.4615,-4.4615,-4.4615,-4.4615,-4.4615,-4.4615,-4.4615,-4.4615,-4.4615,-4.4615,-4.4615,-4.4615,-4.4615,-4.4615,-4.4615,-4.4615,-4.4615,-4.4615,-4.4615,-4.4615,-4.4412,-4.4076,-4.3676,-4.2892,-4.2013,-4.1656,-4.1024,-4.0366,-4.0101,-3.9925,-3.9818,-3.9496,-3.9388,-3.9388,-3.9388,-3.9388,-3.9388,-3.9388,-3.9388,-3.9388,-3.9388,-3.9388,-3.9388,-3.9388,-3.9388,-3.9388,-3.9388,-3.9388,-3.9388,-3.9388,-3.9388,-3.9388,-3.9388,-3.9388,-3.9388,-3.9388,-3.9388,-3.9388,-3.9388,-3.9388,-3.9388,-3.9388,-3.8509,-3.7805,-3.7462,-3.6531,-3.5816,-3.5454,-3.5101,-3.495,-3.495,-3.4592,-3.4397,-3.4397,-3.4397,-3.4397,-3.4397,-3.4397,-3.4397,-3.7704,-3.8452,-3.926,-3.8556,-3.8901,0.0,-3.9334,-3.9364,-3.9388,0.0,0.0,0.0,0.0,0.0,0.0,0.0,0.0,-4.0621,-4.1332,-4.2447,-4.32,-4.329,-4.329,-4.3423,-4.369,-4.328,-4.2856,-4.2432,-4.3162,-4.3896,-4.4547,-4.4615,-4.4615,-4.4615,-4.4615,-4.4615,-4.4615,-4.4615,-4.4615,-4.4615,-4.4615,-4.4615,-4.4615,-4.4615,-4.4615,-4.4615,-4.4615,-4.4615,-4.4615,-4.4615,-4.4615,-4.4598,-4.4514,-4.4076,-4.3482,-4.3317,-4.2504,-4.1492,-4.1393,-4.0938,-4.0312,-4.0066,-3.9889,-3.9696,-3.9445,-3.9388,-3.9388,-3.9388,-3.9388,-3.9388,-3.9388,-3.9388,-3.9388,-3.9388,-3.9388,-3.9388,-3.9388,-3.9388,-3.9388,-3.9388,-3.9388,-3.9388,-3.9388,-3.9388,-3.9388,-3.9388,-3.9388,-3.9388,-3.9388,-3.9388,-3.9388,-3.9388,-3.9388,-3.9388,-3.9388,-3.9316,-3.8958,-3.824,-3.8113,-3.7706,-3.6919,-3.6122,-3.5709,-3.5709,-3.484,-3.4397,-3.4397,-3.4397,-3.4397,-3.4397,-3.4397,-3.4397,-3.8377,-3.8796,-3.926,-3.8556,-3.8901,0.0,-3.8721,-3.902,-3.9388,0.0,0.0,0.0,0.0,0.0,0.0,0.0,0.0,0.0,-4.1332,-4.2096,-4.2746,-4.323,-4.329,-4.3423,-4.369,-4.328,-4.3054,-4.3089,-4.3398,-4.3896,-4.4547,-4.4615,-4.4615,-4.4615,-4.4615,-4.4615,-4.4615,-4.4615,-4.4615,-4.4615,-4.4615,-4.4615,-4.4615,-4.4615,-4.4615,-4.4615,-4.4615,-4.4615,-4.4615,-4.4615,-4.4615,-4.4542,-4.3943,-4.3647,-4.3363,-4.23,-4.1739,-4.1426,-4.087,-4.0578,-4.0401,-4.0101,-3.996,-3.9854,-3.9496,-3.9388,-3.9388,-3.9388,-3.9388,-3.9388,-3.9388,-3.9388,-3.9388,-3.9388,-3.9388,-3.9388,-3.9388,-3.9388,-3.9388,-3.9388,-3.9388,-3.9388,-3.9388,-3.9388,-3.9388,-3.9388,-3.9388,-3.9388,-3.9388,-3.9388,-3.9388,-3.9388,-3.9388,-3.9388,-3.9388,-3.8811,-3.8352,-3.8202,-3.7539,-3.7088,-3.6919,-3.6122,-3.5709,-3.5709,-3.484,-3.4397,-3.4397,-3.4397,-3.4397,-3.4397,-3.4397,-3.4397,-3.8571,-3.8901,-3.926,-3.8556,-3.8901,0.0,0.0,-3.917,-3.9388,-3.9388,-3.9388,0.0,0.0,0.0,0.0,0.0,0.0,0.0,0.0,-4.1782,-4.2635,-4.3215,-4.329,-4.3448,-4.3793,-4.3645,-4.3637,-4.3929,-4.3743,-4.3896,-4.4547,-4.4615,-4.4615,-4.4615,-4.4615,-4.4615,-4.4615,-4.4615,-4.4615,-4.4615,-4.4615,-4.4615,-4.4615,-4.4615,-4.4615,-4.4615,-4.4615,-4.4615,-4.4615,-4.4615,-4.4615,-4.4542,-4.3781,-4.3303,-4.2892,-4.1868,-4.1276,-4.0956,-4.0627,-4.047,-4.0366,-4.0101,-3.9925,-3.9768,-3.9496,-3.9388,-3.9388,-3.9388,-3.9388,-3.9388,-3.9388,-3.9388,-3.9388,-3.9388,-3.9388,-3.9388,-3.9388,-3.9388,-3.9388,-3.9388,-3.9388,-3.9388,-3.9388,-3.9388,-3.9388,-3.9388,-3.9388,-3.9388,-3.9388,-3.9388,-3.9388,-3.9388,-3.9388,-3.9388,-3.9388,-3.9031,-3.8811,-3.8811,-3.8397,-3.8144,-3.8144,-3.6947,-3.6122,-3.5709,-3.484,-3.4592,-3.5032,-3.4592,-3.4397,-3.4397,-3.4397,-3.4397,-3.8736,-3.899,-3.923,-3.8407,-3.8811,-3.9313,0.0,0.0,0.0,-3.9388,-3.9388,0.0,0.0,0.0,0.0,0.0,0.0,0.0,0.0,-4.1309,0.0,-4.288,-4.3075,-4.3347,-4.3752,-4.3868,-4.4093,-4.4571,-4.3978,-4.3896,-4.4547,-4.4615,-4.4615,-4.4615,-4.4615,-4.4615,-4.4615,-4.4615,-4.4615,-4.4615,-4.4615,-4.4615,-4.4615,-4.4615,-4.4615,-4.4615,-4.4615,-4.4615,-4.4615,-4.4615,-4.4615,-4.4514,-4.3647,-4.2984,-4.2395,-4.1608,-4.0956,-4.0489,-4.0489,-4.0436,-4.0296,-4.0066,-3.9854,-3.9625,-3.9445,-3.9388,-3.9388,-3.9388,-3.9388,-3.9388,-3.9388,-3.9388,-3.9388,-3.9388,-3.9388,-3.9388,-3.9388,-3.9388,-3.9388,-3.9388,-3.9388,-3.9388,-3.9388,-3.9388,-3.9388,-3.9388,-3.9388,-3.9388,-3.9388,-3.9388,-3.9388,-3.9388,-3.9388,-3.9388,-3.9388,-3.9388,-3.9388,-3.9388,-3.9388,-3.9388,-3.9388,-3.7956,-3.6777,-3.5936,-3.5073,-3.4991,-3.5709,-3.484,-3.4397,-3.4397,-3.4397,-3.4397,-3.9334,-3.9328,-3.911,-3.7838,-3.8467,-3.9074,-3.7913,0.0,-3.9388,-3.9388,0.0,0.0,0.0,0.0,0.0,0.0,0.0,0.0,0.0,0.0,-4.0861,-4.1534,-4.2286,-4.2839,-4.3107,-4.3433,-4.3909,-4.4556,-4.3978,-4.3896,-4.4547,-4.4615,-4.4615,-4.4615,-4.4615,-4.4615,-4.4615,-4.4615,-4.4615,-4.4615,-4.4615,-4.4615,-4.4615,-4.4615,-4.4615,-4.4615,-4.4615,-4.4615,-4.4615,-4.4615,-4.4615,-4.4485,-4.3122,-4.2583,-4.2363,-4.1091,-4.0558,-4.0489,-4.0489,-4.0489,-4.0436,-4.0101,-3.9747,-3.9424,-3.9424,-3.9388,-3.9388,-3.9388,-3.9388,-3.9388,-3.9388,-3.9388,-3.9388,-3.9388,-3.9388,-3.9388,-3.9388,-3.9388,-3.9388,-3.9388,-3.9388,-3.9388,-3.9388,-3.9388,-3.9388,-3.9388,-3.9388,-3.9388,-3.9388,-3.9388,-3.9388,-3.9388,-3.9388,-3.9388,-3.9388,-3.9388,-3.9388,-3.9388,-3.9388,-3.9388,-3.9388,-3.8538,-3.763,-3.6763,-3.5963,-3.5588,-3.5709,-3.484,-3.4397,-3.4397,-3.4397,-3.4397,-3.9388,-3.9388,-3.9185,-3.8212,-3.8392,-3.8676,-3.8108,-3.8123,-3.8362,-3.8736,0.0,0.0,0.0,0.0,0.0,0.0,-3.9388,0.0,0.0,0.0,-4.0217,0.0,0.0,0.0,-4.2372,-4.2781,-4.3305,-4.3977,-4.3751,-4.3896,-4.4547,-4.4615,-4.4615,-4.4615,-4.4615,-4.4615,-4.4615,-4.4615,-4.4615,-4.4615,-4.4615,-4.4615,-4.4615,-4.4615,-4.4615,-4.4615,-4.4615,-4.4615,-4.4615,-4.4615,-4.4615,-4.444,-4.3061,-4.252,-4.2379,-4.1426,-4.0836,-4.0489,-4.0489,-4.047,-4.0331,-3.9945,-3.9625,-3.9388,-3.9388,-3.9388,-3.9388,-3.9388,-3.9388,-3.9388,-3.9388,-3.9388,-3.9388,-3.9388,-3.9388,-3.9388,-3.9388,-3.9388,-3.9388,-3.9388,-3.9388,-3.9388,-3.9388,-3.9388,-3.9388,-3.9388,-3.9388,-3.9388,-3.9388,-3.9388,-3.9388,-3.9388,-3.9388,-3.9388,-3.9388,-3.9388,-3.9388,-3.9388,-3.9388,-3.9192,-3.8738,-3.8389,-3.8037,-3.7668,-3.6373,-3.5936,-3.6385,-3.506,-3.4397,-3.4397,-3.4397,-3.4397,-3.9388,-3.9388,-3.9215,-3.8332,-3.8257,-3.8302,-3.7943,-3.7764,-3.7808,-3.8287,-3.8542,0.0,0.0,0.0,-3.9388,-3.9388,0.0,-3.9388,0.0,0.0,0.0,0.0,0.0,0.0,0.0,-4.2251,-4.2681,-4.3557,-4.3411,-4.3682,-4.4547,-4.4615,-4.4615,-4.4615,-4.4615,-4.4615,-4.4615,-4.4615,-4.4615,-4.4615,-4.4615,-4.4615,-4.4615,-4.4615,-4.4615,-4.4615,-4.4615,-4.4615,-4.4615,-4.4615,-4.4615,-4.4514,-4.3469,-4.2831,-4.2395,-4.1558,-4.0904,-4.047,-4.047,-4.0296,-4.0086,-3.9788,-3.9553,-3.9388,-3.9388,-3.9388,-3.9388,-3.9388,-3.9388,-3.9388,-3.9388,-3.9388,-3.9388,-3.9388,-3.9388,-3.9388,-3.9388,-3.9388,-3.9388,-3.9388,-3.9388,-3.9388,-3.9388,-3.9388,-3.9388,-3.9388,-3.9388,-3.9388,-3.9388,-3.9388,-3.9388,-3.9388,-3.9388,-3.9388,-3.9388,-3.9388,-3.9388,-3.9388,-3.9388,-3.9156,-3.8538,-3.8538,-3.8538,-3.8538,-3.713,-3.6674,-3.7242,-3.5803,-3.4978,-3.4758,-3.4522,-3.4397,-3.9388,-3.9388,-3.9059,-3.7778,-3.7913,-3.8063,-3.6836,-3.7494,-3.8362,-3.8392,-3.8916,-3.9394,-3.9394,-3.9373,-3.9388,-3.9388,-3.9388,0.0,0.0,0.0,0.0,0.0,0.0,0.0,0.0,-4.1894,-4.2166,0.0,-4.2942,-4.3155,-4.4514,-4.4615,-4.4615,-4.4615,-4.4615,-4.4615,-4.4615,-4.4615,-4.4615,-4.4615,-4.4615,-4.4615,-4.4615,-4.4615,-4.4615,-4.4615,-4.4615,-4.4615,-4.4615,-4.4615,-4.4615,-4.4615,-4.4542,-4.371,-4.2332,-4.1024,-4.0436,-4.0312,-4.0312,-4.0051,-3.9732,-3.9681,-3.9553,-3.9388,-3.9388,-3.9388,-3.9388,-3.9388,-3.9388,-3.9388,-3.9388,-3.9388,-3.9388,-3.9388,-3.9388,-3.9388,-3.9388,-3.9388,-3.9388,-3.9388,-3.9388,-3.9388,-3.9388,-3.9388,-3.9388,-3.9388,-3.9388,-3.9388,-3.9388,-3.9388,-3.9388,-3.9388,-3.9388,-3.9388,-3.9388,-3.9388,-3.9388,-3.9388,-3.9388,-3.9388,-3.9337,-3.9337,-3.9337,-3.9337,-3.8538,-3.8127,-3.8165,-3.7256,-3.6425,-3.5629,-3.4799,-3.4397,0.0,0.0,-3.92,-3.8287,-3.7898,-3.7629,-3.7195,-3.712,-3.7255,-3.7659,-3.8272,-3.8736,-3.8736,-3.911,-3.9388,-3.9388,-3.9388,-3.9388,0.0,0.0,0.0,0.0,0.0,0.0,0.0,0.0,0.0,0.0,-4.2619,0.0,-4.4514,-4.4615,-4.4615,-4.4615,-4.4615,-4.4615,-4.4615,-4.4615,-4.4615,-4.4615,-4.4615,-4.4615,-4.4615,-4.4615,-4.4615,-4.4615,-4.4615,-4.4615,-4.4615,-4.4615,-4.4615,-4.4514,-4.3575,-4.2939,-4.2458,-4.1981,-4.1243,-4.0436,-4.0331,-4.0191,-4.0051,-3.9803,-3.9646,-3.9589,-3.946,-3.9388,-3.9388,-3.9388,-3.9388,-3.9388,-3.9388,-3.9388,-3.9388,-3.9388,-3.9388,-3.9388,-3.9388,-3.9388,-3.9388,-3.9388,-3.9388,-3.9388,-3.9388,-3.9388,-3.9388,-3.9388,-3.9388,-3.9388,-3.9388,-3.9388,-3.9388,-3.9388,-3.9388,-3.9388,-3.9388,-3.9388,-3.9388,-3.9388,-3.9388,-3.9388,-3.9388,-3.9388,-3.9388,-3.9388,-3.8627,-3.8202,-3.8202,-3.7333,-3.6503,-3.5709,-3.5386,-3.495,-3.9388,-3.9388,0.0,-3.8556,-3.8078,0.0,-3.7464,-3.7285,-3.7319,-3.7758,-3.8337,-3.8786,-3.8928,-3.9197,-3.9409,-3.9481,-3.946,-3.9388,0.0,-3.9388,0.0,0.0,0.0,0.0,0.0,0.0,-4.1057,-4.2395,-4.252,0.0,0.0,-4.4615,-4.4615,-4.4615,-4.4615,-4.4615,-4.4615,-4.4615,-4.4615,-4.4615,-4.4615,-4.4615,-4.4615,-4.4615,-4.4615,-4.4615,-4.4615,-4.4615,-4.4615,-4.4615,-4.444,-4.4105,-4.3213,-4.2567,-4.2109,-4.1901,-4.1209,-4.0401,-4.0242,-4.0207,-4.0137,-3.9874,-3.9803,-3.9768,-3.964,-3.9553,-3.9517,-3.9517,-3.946,-3.9388,-3.9388,-3.9388,-3.9388,-3.9388,-3.9388,-3.9388,-3.9388,-3.9388,-3.9388,-3.9388,-3.9388,-3.9388,-3.9388,-3.9388,-3.9388,-3.9388,-3.9388,-3.9388,-3.9388,-3.9388,-3.9388,-3.9388,-3.9388,-3.9388,-3.9388,-3.9388,-3.9388,-3.9388,-3.9388,-3.9388,-3.9388,-3.9388,-3.9388,-3.9388,-3.8885,-3.8627,-3.8627,-3.8046,-3.7372,-3.657,-3.657,-3.6136]},{"header":{"parameterUnit":"m.s-1","parameterCategory":1,"la1":30.6,"la2":29.2853,"lo1":-89.7004,"lo2":-87.6739,"dy":0.0162,"dx":0.0183,"nx":112,"ny":82,"refTime":"2024-07-06T12:00:00:Z","depth":0,"parameterNumber":3,"parameterNumberName":"V-component_of_WINDS"},"data":[0.0,0.0,0.0,0.0,0.0,0.0,0.0,0.0,0.0,0.0,0.0,0.0,0.0,0.0,0.0,0.0,0.0,0.0,0.0,0.0,0.0,0.0,0.0,0.0,0.0,0.0,0.0,0.0,0.0,0.0,0.0,0.0,0.0,0.0,0.0,0.0,0.0,0.0,0.0,0.0,0.0,0.0,0.0,0.0,0.0,0.0,0.0,0.0,0.0,0.0,0.0,0.0,0.0,0.0,0.0,0.0,0.0,0.0,0.0,0.0,0.0,0.0,0.0,0.0,0.0,0.0,0.0,0.0,0.0,0.0,0.0,0.0,0.0,0.0,0.0,0.0,0.0,0.0,0.0,0.0,0.0,0.0,0.0,0.0,0.0,0.0,0.0,0.0,0.0,0.0,-2.6826,-2.8242,-2.9355,-2.9707,-2.8984,-2.8857,-2.8125,-2.6544,0.0,0.0,0.0,0.0,0.0,0.0,0.0,0.0,0.0,0.0,0.0,0.0,0.0,0.0,0.0,0.0,0.0,0.0,0.0,0.0,0.0,0.0,0.0,0.0,0.0,0.0,0.0,0.0,0.0,0.0,0.0,0.0,0.0,0.0,0.0,0.0,0.0,0.0,0.0,0.0,0.0,0.0,0.0,0.0,0.0,0.0,0.0,0.0,0.0,0.0,0.0,0.0,0.0,0.0,0.0,0.0,0.0,0.0,0.0,0.0,0.0,0.0,0.0,0.0,0.0,0.0,0.0,0.0,0.0,0.0,0.0,0.0,0.0,0.0,0.0,0.0,0.0,0.0,0.0,0.0,0.0,0.0,0.0,0.0,0.0,0.0,0.0,0.0,0.0,0.0,0.0,0.0,0.0,0.0,0.0,0.0,0.0,0.0,0.0,0.0,0.0,0.0,0.0,0.0,-2.6602,-2.8603,-2.8994,-2.9062,-2.8926,-2.8594,-2.7865,-2.6714,0.0,0.0,0.0,0.0,0.0,0.0,0.0,0.0,0.0,0.0,0.0,0.0,0.0,0.0,0.0,0.0,0.0,0.0,0.0,0.0,0.0,0.0,0.0,0.0,0.0,0.0,0.0,0.0,0.0,0.0,0.0,0.0,0.0,0.0,0.0,0.0,0.0,0.0,0.0,0.0,0.0,0.0,0.0,0.0,0.0,0.0,0.0,0.0,0.0,0.0,0.0,0.0,0.0,0.0,0.0,0.0,0.0,0.0,0.0,0.0,0.0,0.0,0.0,0.0,0.0,0.0,0.0,0.0,0.0,0.0,0.0,0.0,0.0,0.0,0.0,0.0,0.0,0.0,0.0,0.0,0.0,0.0,0.0,0.0,0.0,0.0,0.0,0.0,0.0,0.0,0.0,0.0,0.0,0.0,0.0,0.0,0.0,0.0,0.0,0.0,0.0,0.0,0.0,-2.6182,-2.6982,-2.8428,-2.8779,-2.8828,-2.8603,-2.8398,-2.7741,-2.6458,-2.6403,0.0,0.0,0.0,0.0,0.0,0.0,0.0,0.0,0.0,0.0,0.0,0.0,0.0,0.0,0.0,0.0,0.0,0.0,0.0,0.0,0.0,0.0,0.0,0.0,0.0,0.0,0.0,0.0,0.0,0.0,0.0,0.0,0.0,0.0,0.0,0.0,0.0,0.0,0.0,0.0,0.0,0.0,0.0,0.0,0.0,0.0,0.0,0.0,0.0,0.0,0.0,0.0,0.0,0.0,0.0,0.0,0.0,0.0,0.0,0.0,0.0,0.0,0.0,0.0,0.0,0.0,0.0,0.0,0.0,0.0,0.0,0.0,0.0,0.0,0.0,0.0,0.0,0.0,0.0,0.0,0.0,0.0,0.0,0.0,0.0,0.0,0.0,0.0,0.0,0.0,0.0,0.0,0.0,0.0,0.0,0.0,0.0,0.0,0.0,0.0,0.0,0.0,-2.6982,-2.7461,-2.8213,-2.8584,-2.8643,-2.832,-2.8158,-2.755,-2.6238,-2.637,0.0,0.0,0.0,0.0,0.0,0.0,0.0,0.0,0.0,0.0,0.0,0.0,0.0,0.0,0.0,0.0,0.0,0.0,0.0,0.0,0.0,0.0,0.0,0.0,0.0,0.0,0.0,0.0,0.0,0.0,0.0,0.0,0.0,0.0,0.0,0.0,0.0,0.0,0.0,0.0,0.0,0.0,0.0,0.0,0.0,0.0,0.0,0.0,0.0,0.0,0.0,0.0,0.0,0.0,0.0,0.0,0.0,0.0,0.0,0.0,0.0,0.0,0.0,0.0,0.0,0.0,0.0,0.0,0.0,0.0,0.0,0.0,0.0,0.0,0.0,0.0,0.0,0.0,0.0,0.0,0.0,0.0,0.0,0.0,0.0,0.0,0.0,0.0,0.0,0.0,0.0,0.0,0.0,0.0,0.0,0.0,0.0,0.0,0.0,0.0,0.0,0.0,-2.6875,-2.7793,-2.8242,-2.832,-2.833,-2.8291,-2.7776,-2.7162,-2.644,-2.6618,0.0,0.0,0.0,0.0,0.0,0.0,0.0,0.0,0.0,0.0,0.0,0.0,0.0,0.0,0.0,0.0,0.0,0.0,0.0,0.0,0.0,0.0,0.0,0.0,0.0,0.0,0.0,0.0,0.0,0.0,0.0,0.0,0.0,0.0,0.0,0.0,0.0,0.0,0.0,0.0,0.0,0.0,0.0,0.0,0.0,0.0,0.0,0.0,0.0,0.0,0.0,0.0,0.0,0.0,0.0,0.0,0.0,0.0,0.0,0.0,0.0,0.0,0.0,0.0,0.0,0.0,0.0,0.0,0.0,0.0,0.0,0.0,0.0,0.0,0.0,0.0,0.0,0.0,0.0,0.0,0.0,0.0,0.0,0.0,0.0,0.0,0.0,0.0,0.0,0.0,0.0,0.0,0.0,0.0,0.0,0.0,0.0,0.0,0.0,0.0,0.0,0.0,-2.6406,-2.7236,-2.8193,-2.8461,-2.8568,-2.8568,-2.8277,-2.7925,-2.751,0.0,0.0,0.0,0.0,0.0,0.0,0.0,0.0,0.0,0.0,0.0,0.0,0.0,0.0,0.0,0.0,0.0,0.0,0.0,0.0,0.0,0.0,0.0,0.0,0.0,0.0,0.0,0.0,0.0,0.0,0.0,0.0,0.0,0.0,0.0,0.0,0.0,0.0,0.0,0.0,0.0,0.0,0.0,0.0,0.0,0.0,0.0,0.0,0.0,0.0,0.0,0.0,0.0,0.0,0.0,0.0,0.0,0.0,0.0,0.0,0.0,0.0,0.0,0.0,0.0,0.0,0.0,0.0,0.0,0.0,0.0,0.0,0.0,0.0,0.0,0.0,0.0,0.0,0.0,0.0,0.0,0.0,0.0,0.0,0.0,0.0,0.0,0.0,0.0,0.0,0.0,0.0,0.0,0.0,0.0,0.0,0.0,0.0,0.0,0.0,0.0,0.0,-2.5498,-2.624,-2.7072,-2.828,-2.8568,-2.8727,-2.8834,-2.8426,-2.808,-2.7842,0.0,0.0,0.0,0.0,0.0,0.0,0.0,0.0,0.0,0.0,0.0,0.0,0.0,0.0,0.0,0.0,0.0,0.0,0.0,0.0,0.0,0.0,0.0,0.0,0.0,0.0,0.0,0.0,0.0,0.0,0.0,0.0,0.0,0.0,0.0,0.0,0.0,0.0,0.0,0.0,0.0,0.0,0.0,0.0,0.0,0.0,0.0,0.0,0.0,0.0,0.0,0.0,0.0,0.0,0.0,0.0,0.0,0.0,0.0,0.0,0.0,0.0,0.0,0.0,0.0,0.0,0.0,0.0,0.0,0.0,0.0,0.0,0.0,0.0,0.0,0.0,0.0,0.0,0.0,0.0,0.0,0.0,0.0,0.0,0.0,0.0,0.0,0.0,0.0,0.0,0.0,0.0,0.0,0.0,0.0,0.0,0.0,0.0,0.0,0.0,0.0,0.0,-2.5557,-2.6484,-2.7447,-2.8575,-2.8727,-2.8834,-2.9079,-2.8127,-2.7493,0.0,0.0,0.0,0.0,0.0,0.0,0.0,0.0,0.0,0.0,0.0,0.0,0.0,0.0,0.0,0.0,0.0,0.0,0.0,0.0,0.0,0.0,0.0,0.0,0.0,0.0,0.0,0.0,0.0,0.0,0.0,0.0,0.0,0.0,0.0,0.0,0.0,0.0,0.0,0.0,0.0,0.0,0.0,0.0,0.0,0.0,0.0,0.0,0.0,0.0,0.0,0.0,0.0,0.0,0.0,0.0,0.0,0.0,0.0,0.0,0.0,0.0,0.0,0.0,0.0,0.0,0.0,0.0,0.0,0.0,0.0,0.0,0.0,0.0,0.0,0.0,0.0,0.0,0.0,0.0,0.0,0.0,0.0,0.0,0.0,0.0,0.0,0.0,0.0,0.0,0.0,0.0,0.0,0.0,0.0,0.0,0.0,0.0,0.0,0.0,0.0,0.0,0.0,-2.5617,-2.6823,-2.7841,-2.8473,-2.9003,-2.9343,-2.9448,-2.9354,-2.9105,-2.8533,0.0,0.0,0.0,0.0,0.0,0.0,0.0,0.0,0.0,0.0,0.0,0.0,0.0,0.0,0.0,0.0,0.0,0.0,0.0,0.0,0.0,0.0,0.0,0.0,0.0,0.0,0.0,0.0,0.0,0.0,0.0,0.0,0.0,0.0,0.0,0.0,0.0,0.0,0.0,0.0,0.0,0.0,0.0,0.0,0.0,0.0,0.0,0.0,0.0,0.0,0.0,0.0,0.0,0.0,0.0,0.0,0.0,0.0,0.0,0.0,0.0,0.0,0.0,0.0,0.0,0.0,0.0,0.0,0.0,0.0,0.0,0.0,0.0,0.0,0.0,0.0,0.0,0.0,0.0,0.0,0.0,0.0,0.0,0.0,0.0,0.0,0.0,0.0,0.0,0.0,0.0,0.0,0.0,0.0,0.0,0.0,0.0,0.0,0.0,0.0,0.0,0.0,-2.5661,-2.6828,-2.7794,-2.8582,-2.9425,-2.9839,-2.9497,-3.0266,-3.0166,-2.8854,0.0,0.0,0.0,0.0,0.0,0.0,0.0,0.0,0.0,0.0,0.0,0.0,0.0,0.0,0.0,0.0,0.0,0.0,0.0,0.0,0.0,0.0,0.0,0.0,0.0,0.0,0.0,0.0,0.0,0.0,0.0,0.0,0.0,0.0,0.0,0.0,0.0,0.0,0.0,0.0,0.0,0.0,0.0,0.0,0.0,0.0,0.0,0.0,0.0,0.0,0.0,0.0,0.0,0.0,0.0,0.0,0.0,0.0,0.0,0.0,0.0,0.0,0.0,0.0,0.0,0.0,0.0,0.0,0.0,0.0,0.0,0.0,0.0,0.0,0.0,0.0,0.0,0.0,0.0,0.0,0.0,0.0,0.0,0.0,0.0,0.0,0.0,0.0,0.0,0.0,0.0,0.0,0.0,0.0,0.0,0.0,0.0,0.0,0.0,0.0,0.0,0.0,-2.5694,-2.6625,-2.7611,-2.8799,-2.9846,-3.021,-2.9585,-3.0889,-3.0847,-2.8754,0.0,0.0,0.0,0.0,0.0,0.0,0.0,0.0,0.0,0.0,0.0,0.0,0.0,0.0,0.0,0.0,0.0,0.0,0.0,0.0,0.0,0.0,0.0,0.0,0.0,0.0,0.0,0.0,0.0,0.0,0.0,0.0,0.0,0.0,0.0,0.0,0.0,0.0,0.0,0.0,0.0,0.0,0.0,0.0,0.0,0.0,0.0,0.0,0.0,0.0,0.0,0.0,0.0,0.0,0.0,0.0,0.0,0.0,0.0,0.0,-2.3267,-2.3926,0.0,0.0,0.0,0.0,0.0,0.0,0.0,0.0,0.0,0.0,0.0,0.0,0.0,0.0,0.0,0.0,0.0,0.0,0.0,0.0,0.0,0.0,0.0,0.0,0.0,0.0,0.0,0.0,0.0,0.0,0.0,0.0,0.0,0.0,0.0,0.0,0.0,0.0,0.0,0.0,-2.576,-2.6948,-2.8143,-2.916,-2.9808,-3.0406,-3.0968,-3.1704,-3.1584,-3.0206,-3.0102,0.0,0.0,0.0,0.0,0.0,0.0,0.0,0.0,0.0,0.0,0.0,0.0,0.0,0.0,0.0,0.0,0.0,0.0,0.0,0.0,0.0,0.0,0.0,0.0,0.0,0.0,0.0,0.0,0.0,0.0,0.0,0.0,0.0,0.0,0.0,0.0,0.0,0.0,0.0,0.0,0.0,0.0,0.0,0.0,0.0,0.0,0.0,0.0,0.0,0.0,0.0,0.0,0.0,0.0,0.0,0.0,0.0,0.0,0.0,-2.4136,-2.4531,0.0,0.0,0.0,0.0,0.0,0.0,0.0,0.0,0.0,0.0,0.0,0.0,0.0,0.0,0.0,0.0,0.0,0.0,0.0,0.0,0.0,0.0,0.0,0.0,0.0,0.0,0.0,0.0,0.0,0.0,0.0,0.0,0.0,0.0,0.0,0.0,0.0,0.0,0.0,0.0,-2.6443,-2.7568,-2.8577,-2.9328,-3.0451,-3.1212,-3.1154,-3.2335,-3.2374,-3.0805,-3.089,0.0,0.0,0.0,0.0,0.0,0.0,0.0,0.0,0.0,0.0,0.0,0.0,0.0,0.0,0.0,0.0,0.0,0.0,0.0,0.0,0.0,0.0,0.0,0.0,0.0,0.0,0.0,0.0,0.0,0.0,0.0,0.0,0.0,0.0,0.0,0.0,0.0,0.0,0.0,0.0,0.0,0.0,0.0,0.0,0.0,0.0,0.0,0.0,0.0,0.0,0.0,0.0,0.0,-2.1574,-2.2343,-2.1926,-2.5213,-2.6163,-2.5216,-2.4938,-2.5078,-2.5371,-2.4853,0.0,0.0,0.0,0.0,0.0,0.0,0.0,0.0,0.0,0.0,0.0,0.0,0.0,0.0,0.0,0.0,0.0,0.0,0.0,0.0,0.0,0.0,0.0,-2.6656,-2.6761,-2.6465,-2.5094,0.0,0.0,0.0,0.0,0.0,0.0,0.0,0.0,0.0,0.0,0.0,-2.7282,-2.8132,-2.897,-2.9695,-3.1284,-3.1967,-3.1284,-3.278,-3.304,-3.1295,-3.141,-3.1135,0.0,0.0,0.0,0.0,0.0,0.0,0.0,0.0,0.0,0.0,0.0,0.0,0.0,0.0,0.0,0.0,0.0,0.0,0.0,0.0,0.0,0.0,0.0,0.0,0.0,0.0,0.0,0.0,0.0,0.0,0.0,0.0,-1.669,-1.766,0.0,0.0,0.0,0.0,0.0,0.0,0.0,0.0,0.0,0.0,0.0,0.0,0.0,-1.9747,-1.9927,-1.9927,-1.9971,-2.0113,-2.147,-2.2044,-2.2079,-2.4473,-2.5533,-2.542,-2.6301,0.0,-2.6699,-2.5889,0.0,0.0,0.0,0.0,0.0,0.0,0.0,0.0,0.0,0.0,0.0,0.0,0.0,0.0,0.0,0.0,0.0,0.0,0.0,0.0,0.0,0.0,-2.6554,-2.6996,-2.6835,-2.6681,-2.7064,-2.6362,-2.553,-2.5096,-2.4683,-2.4545,0.0,0.0,0.0,0.0,0.0,0.0,-2.7785,-2.8386,-2.9382,-3.113,-3.1543,-3.1998,-3.2723,-3.3039,-3.3075,-3.2796,-3.2331,-3.2039,-3.1901,-3.047,0.0,0.0,0.0,0.0,0.0,0.0,0.0,0.0,0.0,0.0,0.0,0.0,0.0,0.0,0.0,0.0,0.0,0.0,0.0,0.0,0.0,0.0,0.0,0.0,0.0,0.0,0.0,0.0,0.0,-1.6675,-1.7464,-1.7924,-1.7973,-1.7974,0.0,0.0,0.0,0.0,0.0,0.0,0.0,0.0,0.0,-2.0077,-2.023,-2.0369,-2.0453,-2.0453,-2.0453,-2.0508,-2.2383,-2.3015,-2.2679,-2.5666,-2.6652,-2.6058,-2.7242,-2.7734,-2.7666,-2.6807,-2.6405,-2.6317,0.0,0.0,0.0,0.0,-2.5655,-2.6292,-2.6405,-2.6618,-2.6773,-2.6295,0.0,0.0,0.0,0.0,0.0,0.0,0.0,-2.6501,0.0,0.0,-2.704,-2.749,-2.7439,-2.7396,-2.7688,-2.7352,-2.6817,-2.6123,-2.5823,-2.5883,-2.6563,-2.6453,0.0,0.0,0.0,-2.846,-2.9443,-2.9994,-3.0678,-3.1492,-3.212,-3.2624,-3.3081,-3.3124,-3.3124,-3.3124,-3.283,-3.2554,-3.2227,-3.1524,-3.0608,0.0,0.0,0.0,0.0,0.0,0.0,0.0,0.0,0.0,0.0,0.0,0.0,0.0,0.0,0.0,0.0,0.0,0.0,0.0,0.0,0.0,0.0,0.0,0.0,0.0,0.0,0.0,0.0,-1.7391,-1.7851,-1.8103,-1.8175,-1.8233,0.0,0.0,0.0,0.0,0.0,0.0,-1.9996,-2.0391,-2.072,-2.0969,-2.105,-2.1094,-2.1094,-2.1282,-2.1406,-2.1463,-2.3774,-2.4525,-2.3975,-2.6961,-2.7789,-2.7015,-2.7906,-2.8291,-2.8232,-2.749,-2.7178,-2.7109,-2.6308,-2.6153,-2.63,-2.6071,-2.646,-2.7142,-2.7369,-2.7618,-2.7793,-2.7303,-2.6546,-2.5736,-2.5578,0.0,0.0,0.0,0.0,-2.6874,-2.7216,-2.7309,-2.7471,-2.8149,-2.8208,-2.8204,-2.855,-2.8572,-2.8153,-2.7009,-2.6791,-2.7073,-2.8008,-2.7949,0.0,-3.0368,-3.0102,-2.9975,-3.0893,-3.134,-3.1713,-3.1945,-3.2667,-3.3124,-3.3124,-3.3124,-3.3124,-3.3124,-3.3124,-3.288,-3.2453,-3.229,-3.1574,-3.0231,0.0,0.0,0.0,0.0,0.0,0.0,0.0,0.0,0.0,0.0,0.0,0.0,0.0,0.0,0.0,0.0,0.0,0.0,0.0,0.0,0.0,0.0,0.0,0.0,0.0,0.0,0.0,0.0,0.0,-1.8314,-1.8657,0.0,0.0,0.0,0.0,-1.9294,-2.012,-2.0662,-2.0676,-2.1276,-2.1635,-2.165,-2.195,-2.2111,-2.2111,-2.2937,-2.3336,-2.3393,-2.5398,-2.64,-2.6354,-2.7682,-2.8291,-2.8237,-2.8291,-2.8291,-2.8262,-2.7812,-2.7679,-2.764,-2.7129,-2.6943,-2.6994,-2.7209,-2.7522,-2.7804,-2.8055,-2.8316,-2.8454,-2.7989,-2.7272,-2.6527,-2.6506,-2.6542,0.0,0.0,-2.6926,-2.7278,-2.7299,-2.7309,-2.7651,-2.9014,-2.8954,-2.9017,-3.0384,-3.0354,-2.9509,-2.7647,-2.7268,-2.7702,-2.9002,0.0,-2.9563,-3.063,-3.0752,-3.0937,-3.1472,-3.1569,-3.1989,-3.2939,-3.3068,-3.3124,-3.3124,-3.3124,-3.3124,-3.3124,-3.3124,-3.3111,-3.3074,-3.2503,-3.1926,-3.1323,-3.0281,0.0,0.0,0.0,0.0,0.0,0.0,0.0,0.0,0.0,0.0,0.0,0.0,0.0,0.0,0.0,0.0,0.0,0.0,0.0,0.0,0.0,0.0,0.0,0.0,0.0,0.0,0.0,0.0,-1.8483,-1.8938,0.0,-1.8945,-1.9429,-1.9895,-2.0154,-2.072,-2.113,-2.1342,-2.1767,-2.2096,-2.2286,-2.2403,-2.2469,-2.2469,-2.2759,-2.3135,-2.3506,-2.4947,-2.5985,-2.6527,-2.7745,-2.8291,-2.8291,-2.8291,-2.8291,-2.8281,-2.8135,-2.8066,-2.8027,-2.7607,-2.7432,-2.7454,-2.7406,-2.7731,-2.8298,-2.8533,-2.8839,-2.898,-2.8514,-2.8152,-2.7831,-2.7531,-2.7448,-2.7519,-2.7864,-2.8082,-2.8362,-2.8991,-2.9176,-2.9301,-2.9803,-2.9805,-2.9806,-3.0297,-3.0296,-2.9988,-2.9303,-2.9176,-2.942,-3.0164,-3.0032,-3.0269,-3.1534,-3.1478,-3.1639,-3.2457,-3.2581,-3.2711,-3.3081,-3.3124,-3.3124,-3.3124,-3.3124,-3.3124,-3.3124,-3.3124,-3.3124,-3.3124,-3.288,-3.2503,-3.1938,-3.1198,-2.993,0.0,0.0,0.0,0.0,0.0,0.0,0.0,0.0,0.0,0.0,0.0,0.0,0.0,0.0,0.0,0.0,0.0,0.0,0.0,0.0,0.0,0.0,0.0,0.0,0.0,0.0,-1.8716,-1.8638,-1.9195,-1.9508,-1.9514,-1.9969,-2.0463,-2.0978,-2.1445,-2.1781,-2.2001,-2.2315,-2.2586,-2.2776,-2.2784,-2.2968,-2.3451,-2.3756,-2.4301,-2.5118,-2.6175,-2.7001,-2.7546,-2.8385,-2.8643,-2.8506,-2.8506,-2.8428,-2.8291,-2.8408,-2.8451,-2.8432,-2.8147,-2.8039,-2.8052,-2.8109,-2.8438,-2.8907,-2.9167,-2.9271,-2.9259,-2.8949,-2.8742,-2.8556,-2.8245,-2.8387,-2.8741,-2.9102,-2.9476,-2.9853,-3.0331,-3.0468,-3.0513,-3.0623,-3.0666,-3.0756,-3.1125,-3.1169,-3.1169,-3.1169,-3.0666,-3.0382,-3.0981,-3.0856,-3.1095,-3.2342,-3.229,-3.2351,-3.3025,-3.3124,-3.3124,-3.3124,-3.3124,-3.3124,-3.3124,-3.3124,-3.3124,-3.3124,-3.3124,-3.3124,-3.3124,-3.288,-3.2604,-3.2227,-3.1499,-3.0319,-2.8674,0.0,0.0,0.0,0.0,0.0,0.0,0.0,0.0,0.0,0.0,0.0,0.0,0.0,0.0,0.0,0.0,0.0,0.0,0.0,0.0,0.0,0.0,0.0,-1.8757,-1.8557,-1.8544,-1.8837,-1.9453,-1.9814,-1.9808,-2.0664,-2.1327,-2.1723,-2.2286,-2.2623,-2.2637,-2.2937,-2.3106,-2.3106,-2.3168,-2.3783,-2.501,-2.5979,-2.7038,-2.8266,-2.9154,-2.958,-2.9626,-2.9626,-2.9336,-2.8935,-2.8926,-2.8682,-2.8364,-2.8568,-2.8684,-2.8684,-2.8727,-2.8727,-2.8781,-2.9406,-2.9606,-2.9669,-2.9889,-2.9704,-2.9321,-2.9321,-2.9021,-2.8649,-2.8638,-2.9391,-3.0241,-3.0219,-3.1041,-3.1748,-3.124,-3.1101,-3.1158,-3.1567,-3.1625,-3.1901,-3.2896,-3.3124,-3.3124,-3.3124,-3.1569,-3.0576,-3.1492,-3.1625,-3.1989,-3.2939,-3.3124,0.0,-3.3124,-3.3124,-3.3124,-3.3124,-3.3124,-3.3124,-3.3124,-3.3124,-3.3124,-3.3124,-3.3124,-3.3124,-3.3124,-3.2541,-3.224,-3.224,-3.1185,-3.0382,-2.9842,0.0,0.0,0.0,0.0,0.0,0.0,0.0,0.0,0.0,0.0,0.0,0.0,0.0,0.0,0.0,0.0,0.0,0.0,0.0,0.0,0.0,-1.8424,-1.8429,-1.8227,-1.8917,-1.9313,-1.896,-1.964,-2.0268,-2.0524,-2.092,-2.1507,-2.227,-2.2528,-2.2725,-2.2959,-2.3062,-2.3106,-2.3106,-2.4031,-2.4278,-2.3658,-2.5753,-2.6892,-2.6961,-2.8098,-2.9003,-2.9626,-2.9626,-2.9502,-2.9375,-2.9053,-2.8848,-2.8721,-2.8696,-2.8684,-2.8737,-2.893,-2.8983,-2.9036,-2.9448,-2.9722,-2.9889,-2.9994,-2.9911,-2.9808,-2.9808,-2.9715,-2.9559,-2.9218,-2.9841,-3.0767,-3.1202,-3.2053,-3.2929,-3.306,-3.3105,-3.3015,-3.2748,-3.2711,-3.2754,-3.3025,-3.3124,-3.3124,-3.3124,-3.2667,-3.2394,-3.2624,-3.2711,-3.2797,-3.3081,-3.3124,0.0,-3.3124,-3.3124,-3.3124,-3.3124,-3.3124,-3.3124,-3.3124,-3.3124,-3.3124,-3.3124,-3.3124,-3.3124,-3.3124,-3.2918,-3.2842,-3.2842,-3.175,-3.1097,0.0,0.0,0.0,0.0,0.0,0.0,0.0,0.0,0.0,0.0,0.0,0.0,0.0,0.0,0.0,0.0,0.0,0.0,0.0,0.0,0.0,0.0,-1.8904,-1.8949,-1.8794,-1.9251,-1.9525,-1.9314,-1.9986,-2.067,-2.1123,-2.1462,-2.196,-2.2776,-2.2828,-2.2908,-2.3098,-2.3106,-2.3106,-2.3106,-2.4394,-2.501,-2.4756,-2.6762,-2.7979,-2.8287,-2.9067,-2.9661,-3.0117,-3.0117,-2.9922,-2.956,-2.9307,-2.9049,-2.8805,-2.8827,-2.893,0.0,0.0,0.0,0.0,0.0,-2.9889,-2.9994,-2.9994,-2.9994,-2.9994,-2.9994,-2.9994,-2.9942,-2.9673,-3.0675,-3.1944,-3.2251,-3.3221,-3.4216,-3.424,-3.4073,-3.3759,-3.3206,-3.3124,-3.3124,-3.3124,-3.3124,-3.3124,-3.3124,-3.3124,0.0,-3.3124,-3.3124,-3.3124,-3.3124,-3.3124,-3.3124,-3.3124,-3.3124,-3.3124,-3.3124,-3.3124,-3.3124,-3.3124,-3.3124,0.0,0.0,0.0,-3.3011,-3.2717,-3.2717,0.0,0.0,0.0,0.0,0.0,0.0,0.0,0.0,-3.2406,-3.3409,0.0,0.0,0.0,0.0,0.0,0.0,0.0,0.0,0.0,0.0,0.0,0.0,0.0,0.0,0.0,0.0,-1.9557,-1.9878,-1.9907,-1.9695,-1.9635,-1.9781,-2.0328,-2.0908,-2.1611,-2.1929,-2.244,-2.3062,-2.3106,-2.3106,-2.3106,0.0,0.0,0.0,0.0,-2.5615,-2.6771,-2.8206,-2.9471,-3.0704,-3.083,-3.0889,-3.0889,-3.0889,-3.043,-2.9695,-2.9646,-2.9341,-2.8807,-2.9056,-2.9343,-2.9669,-2.9669,-2.9669,-2.9659,-2.9931,-2.9994,-2.9994,-2.9994,0.0,0.0,-2.9994,-2.9994,-3.0047,-3.0141,-3.1597,-3.3189,-3.3281,-3.4366,-3.5357,-3.4743,-3.4274,-3.3759,-3.3206,-3.3124,-3.3124,-3.3124,-3.3124,-3.3124,-3.3124,-3.3124,-3.3124,-3.3124,-3.3124,-3.3124,-3.3124,-3.3124,-3.3124,-3.3124,-3.3124,-3.3124,-3.3124,0.0,0.0,-3.3124,-3.3124,-3.3124,-3.3124,-3.3124,-3.2842,-3.2328,-3.2303,-3.2303,-3.2303,-3.2303,-3.2566,-3.3124,-3.3197,-3.3283,-3.3373,-3.3257,-3.4615,0.0,0.0,0.0,0.0,0.0,0.0,0.0,0.0,0.0,0.0,0.0,0.0,0.0,0.0,0.0,-2.0358,-2.0276,-2.0309,-2.048,-2.0458,-2.0315,-1.9866,-2.0155,-2.0625,-2.1251,-2.1615,-2.2175,-2.3062,-2.3106,-2.3106,-2.3106,-2.3106,-2.3106,-2.3106,-2.4394,-2.5194,-2.5501,-2.7778,-2.9039,-2.9285,0.0,0.0,-3.0889,-3.0889,-3.0596,-3.0059,-2.9951,-2.9683,-2.9287,-2.9442,-2.9669,-2.9942,-2.9942,-2.9942,-2.9942,-2.9994,-2.9994,-2.9994,-2.9994,-2.9994,-2.9994,-2.9994,-2.9994,-3.0141,-3.1032,-3.2196,0.0,-3.373,-3.4658,-3.527,-3.4324,-3.3985,-3.3759,-3.3206,-3.3124,-3.3124,-3.3124,-3.3124,-3.3124,-3.3124,-3.3124,-3.3124,-3.3124,-3.3124,-3.3124,-3.3124,-3.3124,-3.3124,-3.3124,-3.3124,-3.3124,-3.3124,-3.3124,-3.3124,-3.3124,-3.3124,-3.3124,-3.3124,-3.3124,-3.3074,-3.2918,-3.2918,-3.2918,-3.2918,-3.2918,-3.2968,-3.3124,-3.3823,-3.4496,-3.5142,-3.5615,-3.6157,0.0,0.0,0.0,0.0,0.0,0.0,0.0,0.0,0.0,0.0,0.0,-2.221,-2.2042,0.0,-2.0685,-2.0696,-2.057,-2.0615,-2.0881,-2.078,-2.0601,-2.0263,-2.0565,-2.0988,-2.1625,-2.1869,-2.2251,-2.3062,-2.3106,-2.3106,-2.3106,-2.3106,-2.3106,-2.3106,-2.5002,-2.6042,-2.6042,-2.8641,-2.9903,-2.9903,-3.0577,-3.0889,-3.0889,-3.0889,-3.0518,-2.9873,-2.9836,-2.9494,-2.9098,-2.9444,-2.9774,-2.9994,-2.9994,-2.9994,-2.9994,-2.9994,-2.9994,-2.9994,-2.9994,-2.9994,-2.9994,-2.9994,-2.9994,-3.0193,-3.1278,-3.2336,-3.3296,-3.3851,-3.4529,-3.4893,-3.411,-3.3696,-3.342,-3.3144,-3.3124,-3.3124,-3.3124,-3.3124,-3.3124,-3.3124,-3.3124,-3.3124,-3.3124,-3.3124,-3.3124,-3.3124,-3.3124,-3.3124,-3.3124,-3.3124,-3.3124,-3.3124,-3.3124,-3.3124,-3.3124,-3.3124,-3.3124,-3.3124,-3.3124,-3.3124,-3.3124,-3.3124,-3.3124,-3.3124,-3.3124,-3.3326,-3.3738,-3.4189,-3.4814,-3.5642,-3.7071,-3.7962,0.0,0.0,0.0,0.0,0.0,0.0,0.0,0.0,-2.4062,-2.415,-2.3444,-2.273,-2.2545,-2.1731,-2.1015,-2.0808,-2.0793,-2.0902,-2.1153,-2.0967,-2.078,-2.078,-2.1024,-2.1467,-2.2051,-2.2184,-2.244,-2.3062,-2.3106,-2.3106,-2.3106,-2.3106,-2.3106,-2.3106,-2.5431,-2.6771,-2.7013,-2.9313,-3.0645,-3.0889,-3.0889,-3.0889,-3.0889,-3.0889,-3.0459,-2.9734,-2.9679,-2.9446,-2.9113,-2.9489,-2.9827,-2.9994,-2.9994,-2.9994,-2.9994,-2.9994,-2.9994,-2.9994,-2.9994,-2.9994,-2.9994,-2.9994,-2.9994,-3.0193,-3.1278,-3.2336,-3.3273,-3.372,-3.4247,-3.4575,-3.3909,-3.3407,-3.3124,-3.3124,-3.3124,-3.3124,-3.3124,-3.3124,-3.3124,-3.3124,-3.3124,-3.3124,-3.3124,-3.3124,-3.3124,-3.3124,-3.3124,-3.3124,-3.3124,-3.3124,-3.3124,-3.3124,-3.3124,-3.3124,-3.3124,-3.3124,-3.3124,-3.3124,-3.3124,-3.3124,-3.3124,-3.3124,-3.3124,-3.3124,-3.3124,-3.3526,-3.4397,-3.4551,-3.5047,-3.5896,-3.8134,-3.9413,-2.7822,-2.6826,-2.5636,-2.5782,-2.4749,-2.4059,0.0,0.0,-2.5039,-2.5391,-2.4982,-2.4257,-2.3486,-2.2805,-2.207,-2.1272,-2.1124,-2.1153,-2.1211,-2.1153,-2.1146,-2.1146,-2.1211,-2.1343,-2.1737,-2.2049,-2.244,-2.3062,-2.3106,-2.3106,-2.3106,-2.3106,-2.3106,-2.3106,-2.4517,-2.5859,-2.7021,-2.8385,-2.9717,-3.0889,-3.0889,-3.0889,-3.0889,-3.0889,-3.0615,-3.0145,-2.9878,-3.0042,-3.0467,-3.0107,-2.9994,-2.9994,-2.9994,-2.9994,-2.9994,-2.9994,-2.9994,-2.9994,-2.9994,-2.9994,-2.9994,-2.9994,-2.9994,-3.0193,-3.1278,-3.2336,-3.3192,-3.3208,-3.3894,-3.4487,-3.3432,-3.3119,-3.3124,-3.3124,-3.3124,-3.3124,-3.3124,-3.3124,-3.3124,-3.3124,-3.3124,-3.3124,-3.3124,-3.3124,-3.3124,-3.3124,-3.3124,-3.3124,-3.3124,-3.3124,-3.3124,-3.3124,-3.3124,-3.3124,-3.3124,-3.3124,-3.3124,-3.3124,-3.3124,-3.3124,-3.3124,-3.3124,-3.3124,-3.3124,-3.3124,-3.3526,-3.4397,-3.5128,-3.5909,-3.6794,-3.8971,-3.9613,-2.6681,-2.5938,-2.5189,0.0,-2.4851,-2.5,-2.5283,-2.54,-2.5508,-2.5654,-2.484,-2.3922,-2.3544,-2.2719,-2.1944,0.0,-2.165,-2.1708,-2.1518,-2.1496,-2.1423,-2.1233,-2.1379,-2.1613,-2.1946,-2.227,-2.2623,-2.3076,-2.3106,-2.3106,-2.3106,-2.3106,-2.3479,-2.4216,-2.5554,-2.6831,-2.8086,-2.9422,-3.0333,-3.0889,-3.0889,-3.0889,-3.0889,-3.0889,-3.076,-3.047,-3.0072,-3.0092,-3.0368,-3.0183,-3.0063,-2.9994,-2.9994,-2.9994,-2.9994,-2.9994,-2.9994,-2.9994,-2.9994,-2.9994,-2.9994,-2.9994,-2.9994,-3.0297,-3.2044,-3.2839,-3.3328,-3.3873,-3.4338,-3.4462,-3.337,-3.3124,-3.3124,-3.3124,-3.3124,-3.3124,-3.3124,-3.3124,-3.3124,-3.3124,-3.3124,-3.3124,-3.3124,-3.3124,-3.3124,-3.3124,-3.3124,-3.3124,-3.3124,-3.3124,-3.3124,-3.3124,-3.3124,-3.3124,-3.3124,-3.3124,-3.3124,-3.3124,-3.3124,-3.3124,-3.3124,-3.3124,-3.3124,-3.3124,-3.3611,-3.4259,-3.5087,-3.5963,-3.7001,-3.8284,-3.9526,-4.0148,-2.5869,0.0,0.0,-2.4299,-2.4853,-2.5498,-2.5293,-2.5508,-2.5693,-2.5693,-2.4757,-2.3877,-2.3569,-2.272,-2.1991,-2.1737,-2.1898,-2.1972,-2.173,-2.1693,-2.1606,-2.1372,-2.1635,-2.1957,-2.2271,-2.2498,-2.2754,-2.3084,-2.3106,-2.3106,-2.3106,-2.3106,-2.372,-2.5071,-2.6346,-2.7615,-2.8861,-3.0216,-3.0889,-3.0889,-3.0889,-3.0889,-3.0889,-3.0889,-3.0945,-3.0953,-3.0515,-3.0389,-3.0509,-3.0386,-3.0175,-2.9994,-2.9994,-2.9994,-2.9994,-2.9994,-2.9994,-2.9994,-2.9994,-2.9994,-2.9994,-2.9994,-2.9994,-3.0297,-3.1852,-3.275,-3.3314,-3.3916,-3.447,-3.4726,-3.3771,-3.342,-3.3307,-3.3307,-3.3224,-3.3124,-3.3124,-3.3124,-3.3124,-3.3124,-3.3124,-3.3124,-3.3124,-3.3124,-3.3124,-3.3124,-3.3124,-3.3124,-3.3124,-3.3124,-3.3124,-3.3124,-3.3124,-3.3124,-3.3124,-3.3124,-3.3124,-3.3124,-3.3124,-3.3124,-3.3124,-3.3124,-3.3197,-3.3441,-3.4076,-3.4896,-3.5949,-3.6777,-3.7873,-3.9218,-4.0002,-4.0641,0.0,0.0,-2.5334,-2.5132,-2.5106,-2.5195,-2.5625,-2.5674,-2.5693,-2.5693,-2.5415,-2.4821,-2.3728,-2.322,-2.2663,-2.1817,-2.1708,-2.1708,-2.1693,-2.1693,-2.1693,-2.1686,-2.1972,-2.2286,-2.2579,-2.2615,-2.2754,-2.3084,-2.3106,-2.3106,-2.3106,-2.3106,-2.372,-2.5071,-2.6346,-2.7615,-2.8861,-3.0216,-3.0889,-3.0889,-3.0889,-3.0889,-3.0889,-3.0889,-3.1218,-3.1747,-3.1295,-3.1197,-3.1319,-3.0874,-3.0408,-2.9994,-2.9994,-2.9994,-2.9994,-2.9994,-2.9994,-2.9994,-2.9994,-2.9994,-2.9994,-2.9994,-2.9994,-2.9994,-3.0099,-3.1556,-3.3097,-3.2618,-3.3922,-3.5345,-3.4768,-3.4274,-3.3872,-3.3872,-3.347,-3.3124,-3.3124,-3.3124,-3.3124,-3.3124,-3.3124,-3.3124,-3.3124,-3.3124,-3.3124,-3.3124,-3.3124,-3.3124,-3.3124,-3.3124,-3.3124,-3.3124,-3.3124,-3.3124,-3.3124,-3.3124,-3.3124,-3.3124,-3.3124,-3.3124,-3.3124,-3.3124,-3.3484,-3.4356,-3.4397,-3.5196,-3.6858,-3.7526,-3.8339,-3.9233,-4.0481,-4.1076,-2.5583,0.0,-2.4784,-2.5063,-2.5293,-2.5557,-2.5654,-2.5693,-2.5693,-2.5693,-2.4638,-2.36,-2.3246,-2.2409,-2.1765,-2.1701,-2.2045,-2.2315,-2.2315,-2.2315,-2.2235,-2.2045,-2.2293,-2.2513,-2.2615,-2.282,0.0,-2.3098,-2.3106,-2.3106,-2.3106,-2.3969,-2.5002,-2.6321,-2.7598,-2.887,-3.0216,-3.0645,-3.0889,-3.0889,-3.0889,-3.0889,-3.0889,-3.0889,-3.1228,-3.1767,-3.1315,-3.1218,-3.134,-3.0874,-3.0419,-2.9994,-2.9994,-2.9994,-2.9994,-2.9994,-2.9994,-2.9994,-2.9994,-2.9994,-2.9994,-2.9994,-3.0495,-3.1187,-3.1902,-3.3139,-3.4278,-3.4435,-3.4959,-3.537,-3.4818,-3.4587,-3.4349,-3.3985,-3.3759,-3.352,-3.3156,-3.3124,-3.3124,-3.3124,-3.3124,-3.3124,-3.3124,-3.3124,-3.3124,-3.3124,-3.3124,-3.3124,-3.3124,-3.3124,-3.3124,-3.3124,-3.3124,-3.3124,-3.3124,-3.3124,-3.3232,-3.3608,-3.3621,-3.3621,-3.3621,-3.3621,-3.3865,-3.4397,-3.5377,-3.6416,-3.758,-3.8771,-3.9726,-4.0466,-4.0902,-4.1337,-2.4914,-2.4551,-2.4297,-2.4727,-2.5166,-2.5498,-2.5498,-2.5625,-2.5693,-2.5693,-2.4537,-2.3469,-2.3057,-2.2218,-2.1623,-2.1679,-2.2125,-2.2506,-2.2608,-2.2623,-2.255,-2.2359,-2.2608,-2.2798,-2.2798,-2.3091,0.0,-2.312,-2.3106,-2.3106,-2.3106,-2.4402,-2.5668,-2.6935,-2.8256,-2.953,-3.0889,-3.0889,-3.0889,-3.0889,-3.0889,-3.0889,-3.0889,-3.0723,-3.0981,-3.1526,-3.1083,-3.0984,-3.1112,-3.0812,-3.0419,-2.9994,-2.9994,-2.9994,-2.9994,-2.9994,-2.9994,-2.9994,-2.9994,-2.9994,-3.0047,-3.0443,-3.1032,-3.1779,-3.2889,-3.3944,-3.486,-3.5153,-3.555,-3.5755,-3.5403,-3.5014,-3.4625,-3.4274,-3.3884,-3.3508,-3.3156,-3.3124,-3.3124,-3.3124,-3.3124,-3.3124,-3.3124,-3.3124,-3.3124,-3.3124,-3.3124,-3.3124,-3.3124,-3.3124,-3.3124,-3.3124,-3.3124,-3.3124,-3.3124,-3.3124,-3.3319,-3.3872,-3.3897,-3.3985,-3.4186,-3.4527,-3.4947,-3.5462,-3.6769,-3.7823,-3.8666,-3.9895,-4.067,-4.1105,-4.1337,-4.1686,-2.4265,-2.3969,-2.3896,-2.4316,-2.4727,-2.5077,-2.5077,-2.5361,-2.5625,-2.5567,-2.4979,-2.4131,-2.3049,0.0,-2.2052,-2.1736,-2.1957,-2.2293,-2.2601,-2.2645,-2.2645,0.0,0.0,0.0,0.0,0.0,0.0,-2.3135,0.0,-2.3106,-2.3106,-2.4456,-2.5737,-2.6952,-2.8325,-2.9599,-3.0889,-3.0889,-3.0889,-3.0889,-3.0889,-3.0889,-3.0869,-3.041,-3.0537,-3.1093,-3.0631,-3.0591,-3.0688,-3.0657,-3.0387,-2.9994,-2.9994,-2.9994,-2.9994,-2.9994,-2.9994,-2.9994,-2.9994,-2.9994,-3.0193,-3.1187,-3.1575,-3.188,-3.2901,-3.3993,-3.4872,-3.4872,-3.5619,-3.6405,-3.6405,-3.5567,-3.4705,-3.4726,-3.3897,-3.3106,-3.3124,-3.3124,-3.3124,-3.3124,-3.3124,-3.3124,-3.3124,-3.3124,-3.3124,-3.3124,-3.3124,-3.3124,-3.3124,-3.3124,-3.3124,-3.3124,-3.3124,-3.3124,-3.3124,-3.3149,-3.3357,-3.3909,-3.3972,-3.4223,-3.4738,-3.5607,-3.6475,-3.739,-3.8366,-3.9309,-4.0147,-4.0815,-4.1149,-4.1163,-4.1802,-4.2092,-2.393,-2.3834,-2.3896,-2.4316,-2.4502,-2.458,-2.458,-2.4668,-2.4512,-2.3834,-2.3084,-2.2268,-2.1269,-2.0891,0.0,-2.1283,-2.1811,0.0,-2.2908,-2.2981,0.0,-2.2981,0.0,-2.3106,-2.3106,-2.3186,0.0,0.0,-2.3106,-2.3106,-2.3106,-2.5248,-2.665,-2.7013,-2.9185,-3.0518,-3.0889,-3.0889,-3.0889,-3.0889,-3.0889,-3.0889,-3.0879,-3.064,-3.0717,-3.1073,-3.0539,-3.0468,-3.0657,-3.0315,-3.0098,-2.9994,-2.9994,-2.9994,-2.9994,-2.9994,-2.9994,-2.9994,-2.9994,-2.9994,-3.0047,-3.0339,-3.1494,-3.2851,-3.3101,-3.4532,-3.6013,-3.6013,-3.6216,-3.6405,-3.6405,-3.5855,-3.5194,-3.4781,-3.4198,-3.3583,-3.3212,-3.3124,-3.3124,-3.3124,-3.3124,-3.3124,-3.3124,-3.3124,-3.3124,-3.3124,-3.3124,-3.3124,-3.3124,-3.3124,-3.3124,-3.3124,-3.3124,-3.3124,-3.3124,-3.3458,-3.3922,-3.4474,-3.4856,-3.5144,-3.5282,-3.5557,-3.6217,-3.7362,-3.8123,-3.9299,-4.0844,-4.1512,-4.1845,-4.1845,-4.202,-4.2092,-2.3545,-2.3506,-2.3564,-2.3754,-2.4004,-2.4141,-2.4141,-2.4287,-2.4275,-2.37,-2.3455,-2.2863,-2.1345,-2.1374,0.0,0.0,0.0,0.0,-2.3018,-2.3106,-2.3106,0.0,-2.3237,0.0,-2.312,-2.3237,-2.3267,0.0,-2.3106,-2.3355,-2.3969,-2.592,-2.7254,-2.7787,-2.9853,-3.0889,-3.0889,-3.0889,-3.0889,-3.0889,-3.0889,-3.0889,-3.0869,-3.051,-3.0495,-3.0771,-3.0167,-3.0112,-3.0367,-3.0098,-2.9994,-2.9994,-2.9994,-2.9994,-2.9994,-2.9994,-2.9994,-2.9994,-2.9994,-2.9994,-3.0099,-3.0536,-3.1852,-3.33,-3.3747,-3.5078,-3.6405,-3.6405,-3.6405,-3.6405,-3.6405,-3.5956,-3.542,-3.5107,-3.4618,-3.4173,-3.3872,-3.3608,-3.337,-3.3174,-3.3124,-3.3124,-3.3124,-3.3124,-3.3124,-3.3124,-3.3124,-3.3124,-3.3124,-3.3124,-3.3124,-3.3124,-3.3124,-3.3124,-3.3124,-3.3583,-3.4135,-3.4688,-3.5194,-3.5781,-3.6471,-3.6916,-3.7634,-3.8763,-3.9591,-4.0518,-4.1541,-4.1918,-4.2092,-4.2092,-4.2092,-4.2092,-2.3257,-2.314,-2.3091,-2.3091,-2.3428,-2.3701,-2.3701,-2.3984,-2.4212,-2.4132,0.0,-2.4174,-2.2074,-2.2511,-2.2732,-2.1368,0.0,-2.2337,-2.2959,-2.3084,-2.3106,-2.3106,-2.3362,-2.342,-2.3135,-2.3362,-2.3476,-2.3377,-2.3355,-2.3845,-2.501,-2.6286,-2.7675,-2.9107,-3.0274,-3.0889,-3.0889,-3.0889,-3.0889,-3.0889,-3.0889,-3.0918,-3.083,-3.029,-3.0153,-3.0374,-2.9868,-2.9774,-2.9994,-2.9994,-2.9994,-2.9994,-2.9994,-2.9994,-2.9994,-2.9994,-2.9994,-2.9994,-2.9994,-2.9994,-3.0193,-3.1227,-3.2336,-3.34,-3.4483,-3.5571,-3.6405,-3.6405,-3.6405,-3.6405,-3.6405,-3.5956,-3.5495,-3.5495,-3.5082,-3.468,-3.468,-3.4286,-3.3759,-3.3282,-3.3174,-3.3124,-3.3124,-3.3124,-3.3124,-3.3124,-3.3124,-3.3149,-3.3224,-3.3119,-3.3124,-3.3124,-3.3124,-3.3124,-3.3124,-3.3658,-3.4211,-3.4688,-3.5257,-3.6227,-3.7566,-3.8419,-3.9329,-4.0375,-4.1269,-4.1829,-4.2092,-4.2092,-4.2092,-4.2092,-4.2092,-4.2092,-2.3584,-2.3408,-2.3091,-2.3091,-2.3149,-2.3208,-2.3208,-2.3266,0.0,0.0,-2.2945,-2.267,-2.0991,-2.1288,-2.1575,-2.0914,0.0,0.0,-2.2615,-2.2937,-2.3106,0.0,-2.3157,-2.3171,-2.3113,-2.3164,0.0,0.0,-2.4764,-2.4826,-2.5071,-2.6286,-2.8104,-3.046,-3.0762,-3.0889,-3.0889,-3.0889,-3.0889,-3.0889,-3.0889,-3.0809,-3.0655,-3.0412,-3.0313,-3.0221,-3.0011,0.0,-2.9994,-2.9994,-2.9994,-2.9994,-2.9994,-2.9994,-2.9994,-2.9994,-2.9994,-2.9994,-2.9994,-2.9994,-3.0193,-3.1227,-3.2336,-3.34,-3.4483,-3.5571,-3.6405,-3.6405,-3.6405,-3.6405,-3.6405,-3.5956,-3.5495,-3.5495,-3.5082,-3.468,-3.468,-3.4286,-3.3872,-3.3771,-3.3382,-3.3124,-3.3124,-3.3124,-3.3124,-3.3124,-3.3124,-3.3244,-3.3696,-3.3357,-3.3124,-3.3124,-3.3124,-3.3124,-3.3124,-3.3997,-3.4625,-3.4668,-3.5667,-3.6351,-3.6628,-3.6815,-3.7691,-3.9417,-3.9607,-4.0517,-4.2092,-4.2092,-4.2092,-4.2092,-4.2092,-4.2092,-2.373,-2.3799,-2.375,-2.3535,-2.3477,-2.3477,-2.3477,0.0,0.0,0.0,-2.3369,-2.3298,-2.22,0.0,0.0,0.0,0.0,0.0,-2.3282,-2.4201,0.0,-2.4186,-2.4154,-2.3845,-2.3168,-2.372,-2.4394,-2.5071,-2.5737,-2.6407,-2.7056,-2.8343,-2.9618,-3.083,-3.0889,-3.0889,-3.0889,-3.0889,-3.0889,-3.0889,-3.076,-3.0707,-3.0584,-3.0374,-3.0289,-3.0173,-3.0043,-2.9994,-2.9994,-2.9994,-2.9994,-2.9994,-2.9994,-2.9994,-2.9994,-2.9994,-2.9994,-2.9994,-2.9994,-2.9994,-3.0193,-3.1227,-3.2336,-3.33,-3.3796,-3.5126,-3.6405,-3.6405,-3.6405,-3.6405,-3.6405,-3.6169,-3.5968,-3.5968,-3.5768,-3.5416,-3.4851,-3.4512,-3.4161,-3.3583,-3.3257,-3.3124,-3.3124,-3.3124,-3.3169,-3.3458,-3.3508,-3.3709,-3.4261,-3.4098,-3.3822,-3.3533,-3.3508,-3.3382,-3.3106,-3.3822,-3.4412,-3.4655,-3.5479,-3.629,-3.7116,-3.7612,-3.8496,-3.9899,-4.046,-4.1184,-4.2092,-4.2092,-4.2092,-4.2092,-4.2092,-4.2092,-2.4014,-2.4238,-2.4336,-2.4004,-2.3926,-2.3896,-2.3809,-2.3594,0.0,0.0,-2.4258,-2.4351,-2.3749,0.0,-2.3006,0.0,-2.2512,0.0,-2.4208,-2.5384,-2.6004,0.0,-2.532,0.0,-2.4038,-2.4641,0.0,-2.5851,-2.7134,-2.8155,-2.8861,-3.0147,-3.0889,-3.0889,-3.0889,-3.0889,-3.0889,-3.0889,-3.084,-3.0732,-3.0667,-3.0571,-3.0419,-3.0292,-3.0197,-3.0138,-3.0044,-2.9994,-2.9994,-2.9994,-2.9994,-2.9994,-2.9994,-2.9994,-2.9994,-2.9994,-2.9994,-2.9994,-2.9994,-2.9994,-3.0151,-3.0981,-3.2145,-3.325,-3.3449,-3.4872,-3.6405,-3.6405,-3.6405,-3.6405,-3.6405,-3.6405,-3.6405,-3.6405,-3.6317,-3.5943,-3.5031,-3.4668,-3.4286,-3.342,-3.3156,-3.3124,-3.3124,-3.3224,-3.3395,-3.3834,-3.3997,-3.4274,-3.4781,-3.4856,-3.4726,-3.4299,-3.4035,-3.3671,-3.3174,-3.3583,-3.4135,-3.4688,-3.5194,-3.6105,-3.7415,-3.8419,-3.9329,-4.0289,-4.1254,-4.1856,-4.2092,-4.2092,-4.2092,-4.2092,-4.2092,-4.2092,-2.4783,-2.4687,-2.4404,-2.4365,-2.4355,-2.4258,-2.3877,0.0,0.0,-2.4346,-2.4707,-2.4842,-2.4165,-2.3998,0.0,0.0,0.0,-2.3014,0.0,-2.5205,-2.5688,-2.671,0.0,0.0,-2.6562,-2.5737,-2.6034,-2.8376,-2.9795,-3.003,-2.8979,-3.0147,-3.0889,-3.0889,-3.0889,-3.0889,-3.0889,-3.0889,-3.0674,-3.0264,-3.051,-3.0366,-2.9862,-3.0116,-3.013,-3.0004,-3.0015,-2.9994,0.0,-2.9994,-2.9994,-2.9994,-2.9994,-2.9994,-2.9994,-2.9994,-2.9994,-2.9994,-2.9994,-2.9994,-2.9994,-3.0141,-3.1545,-3.34,-3.4337,-3.5475,-3.6405,-3.6405,-3.6405,-3.6405,-3.6405,-3.6405,-3.6405,-3.6405,-3.5981,-3.5545,-3.5445,-3.4675,-3.3947,-3.3847,-3.342,-3.3124,-3.3124,-3.3483,-3.3847,-3.3884,-3.4324,-3.4806,-3.5357,-3.542,-3.5408,-3.5357,-3.45,-3.3671,-3.3174,-3.3583,-3.4135,-3.4688,-3.5194,-3.5793,-3.6521,-3.7441,-3.8373,-3.9285,-4.026,-4.1198,-4.2092,-4.2092,-4.2092,-4.2092,-4.2092,-4.2092,-2.458,-2.4941,-2.5099,-2.4873,-2.4805,-2.4766,-2.46,0.0,-2.4492,-2.4756,-2.4951,-2.51,-2.5091,-2.455,-2.3985,0.0,-2.393,-2.4516,-2.5539,-2.6711,-2.7543,-2.7744,-2.7456,0.0,0.0,0.0,-2.8146,-2.9962,-3.0587,-3.0645,-3.0147,-3.0587,-3.0889,-3.0889,-3.0889,-3.0889,-3.0889,-3.0615,-3.0438,-3.0433,-3.0247,-3.0093,-3.0022,-3.0079,-3.0065,-2.9994,-2.9994,-2.9994,0.0,-2.9994,-2.9994,-2.9994,-2.9994,-2.9994,-2.9994,-2.9994,-2.9994,-2.9994,-2.9994,-2.9994,-2.9994,-2.9994,-3.0991,-3.2437,-3.3487,-3.4581,-3.5571,-3.6216,-3.6405,-3.6405,-3.6405,-3.6405,-3.6405,-3.6405,-3.6194,-3.5943,-3.5571,-3.5157,-3.4655,-3.4035,-3.3721,-3.347,-3.3174,-3.3533,-3.401,-3.4349,-3.4818,-3.537,-3.5968,-3.6031,-3.5906,-3.5533,-3.5107,-3.4663,-3.411,-3.4274,-3.4625,-3.5144,-3.537,-3.6012,-3.7196,-3.8147,-3.9077,-4.0029,-4.0986,-4.1717,-4.2092,-4.2092,-4.2092,-4.2092,-4.2092,-4.2092,-2.458,-2.5156,-2.5615,-2.5352,-2.5264,-2.5234,0.0,-2.4932,-2.4853,-2.5077,-2.5176,-2.5361,-2.5635,-2.5069,-2.455,0.0,-2.4988,-2.5611,-2.6405,-2.7815,-2.8774,0.0,0.0,-2.851,0.0,-2.8938,-2.9903,-3.083,-3.0889,-3.0889,-3.0889,-3.082,-3.0868,-3.0889,-3.082,-3.0809,-3.0809,-3.0463,-3.0234,-3.0228,-2.9998,-2.9897,-2.9873,-2.9981,-2.9994,-2.9994,-2.9994,-2.9994,0.0,-2.9994,-2.9994,-2.9994,-2.9994,-2.9994,-2.9994,-2.9994,-2.9994,-2.9994,-2.9994,-2.9994,-2.9994,-2.9994,-3.0744,-3.1779,-3.2889,-3.3944,-3.5017,-3.6108,-3.6405,-3.6405,-3.6405,-3.6292,-3.6157,-3.6367,-3.6153,-3.5818,-3.5545,-3.5245,-3.4781,-3.4048,-3.3771,-3.3583,-3.3357,-3.3771,-3.4324,-3.4876,-3.5382,-3.5931,-3.6367,-3.6405,-3.6267,-3.583,-3.5793,-3.5504,-3.4776,-3.468,-3.4919,-3.547,-3.5759,-3.6506,-3.7736,-3.8988,-3.9899,-4.0603,-4.1577,-4.2092,-4.2092,-4.2092,-4.2092,-4.2092,-4.2092,-4.2092,-2.4988,-2.5391,-2.5693,-2.5684,-2.5684,-2.5567,-2.5166,-2.541,-2.5547,-2.5156,-2.542,-2.5684,-2.5693,-2.5684,-2.5684,-2.5684,-2.5402,-2.5758,-2.7441,-2.8097,0.0,0.0,0.0,-2.992,-3.0752,-3.0889,-3.0889,-3.0889,-3.0889,0.0,-3.0889,-3.0689,-3.0707,-3.0879,-3.0689,-3.0613,-3.0613,-3.0458,-3.0083,-2.9411,-2.9934,-2.9799,-2.9142,-2.9732,-2.9994,-2.9994,-2.9994,-2.9994,0.0,-2.9994,-2.9994,-2.9994,-2.9994,-2.9994,-2.9994,-2.9994,-2.9994,-2.9994,-2.9994,-2.9994,-2.9994,-2.9994,-3.0744,-3.1779,-3.2889,-3.3944,-3.5017,-3.6108,-3.6405,-3.6405,-3.6405,-3.5968,-3.5646,-3.6279,-3.5529,-3.4843,-3.5382,-3.4688,-3.3909,-3.3897,-3.3458,-3.3257,-3.3796,-3.4349,-3.4856,-3.5408,-3.5994,-3.6405,-3.6405,-3.6405,-3.6405,-3.6405,-3.6405,-3.5906,-3.4813,-3.468,-3.4919,-3.547,-3.6418,-3.7207,-3.7782,-3.9593,-4.0603,-4.0603,-4.1577,-4.2092,-4.2092,-4.2092,-4.2092,-4.2092,-4.2092,-4.2092,-2.4238,-2.4951,-2.5615,-2.5361,-2.5508,-2.5654,-2.5557,-2.5586,-2.5645,-2.5557,-2.5586,-2.5693,-2.5693,-2.5693,-2.5879,-2.6464,-2.6763,0.0,0.0,0.0,0.0,-3.0099,-3.0354,-3.0614,0.0,0.0,-3.0889,-3.0889,-3.0889,-3.0752,-3.043,-3.034,-3.0445,-3.0707,-3.0555,-3.0438,-3.0438,-3.0173,-3.0001,-2.9924,-2.9611,-2.9538,-2.9732,-2.9722,-2.9827,-2.9994,-2.9994,-2.9994,-2.9994,-2.9994,-2.9994,-2.9994,-2.9994,-2.9994,-2.9994,-2.9994,-2.9994,-2.9994,-2.9994,-2.9994,-2.9994,-2.9994,-3.0744,-3.1779,-3.2889,-3.3944,-3.5017,-3.6108,-3.6405,-3.6329,-3.5893,-3.5621,-3.5545,-3.5768,-3.5495,-3.5382,-3.5981,-3.5529,-3.4981,-3.4981,-3.4575,-3.4261,-3.4437,-3.4868,-3.5295,-3.547,-3.6006,-3.6405,-3.6405,-3.6405,-3.6405,-3.6405,-3.6405,-3.6267,-3.5868,-3.5843,-3.5918,-3.6094,-3.6421,-3.7246,-3.872,-3.9329,-4.0273,-4.1591,-4.1953,-4.2092,-4.2092,-4.2092,-4.2092,-4.2092,-4.2092,-4.2092,0.0,-2.499,-2.5625,-2.5391,-2.5527,-2.5693,-2.5693,-2.5693,-2.5693,-2.5693,-2.5693,-2.5693,-2.5693,-2.5693,-2.5918,-2.667,-2.7139,0.0,0.0,0.0,0.0,-3.0391,0.0,0.0,0.0,-3.0889,-3.0889,-3.0889,-3.0732,-3.0508,-3.0215,-3.0015,-3.0007,-3.0286,-3.0239,-3.0208,-3.0318,-3.0045,-2.9929,-2.9982,-2.9591,-2.9564,-2.9837,-2.9774,-2.9827,-2.9994,-2.9994,-2.9994,0.0,-2.9994,-2.9994,-2.9994,-2.9994,-2.9994,-2.9994,-2.9994,-2.9994,-2.9994,-2.9994,-2.9994,-3.0047,-3.0495,-3.1586,-3.3028,-3.408,-3.4872,-3.5523,-3.6203,-3.6267,-3.5968,-3.5596,-3.5345,-3.5245,-3.5445,-3.5495,-3.5658,-3.6292,-3.5931,-3.5495,-3.5495,-3.5056,-3.4743,-3.4956,-3.527,-3.5571,-3.583,-3.6144,-3.6405,-3.6405,-3.6405,-3.6405,-3.6405,-3.6405,-3.6405,-3.6405,-3.6405,-3.6405,-3.6405,-3.707,-3.7965,-3.9166,-3.9927,-4.0873,-4.2092,-4.2092,-4.2092,-4.2092,-4.2092,-4.2092,-4.2092,-4.2092,-4.2092,0.0,-2.542,-2.5684,-2.5645,-2.5664,-2.5693,-2.5693,-2.5693,0.0,-2.5693,-2.5693,-2.5703,-2.5732,-2.5732,-2.5947,-2.6445,-2.6855,0.0,0.0,-2.9092,0.0,0.0,-3.0889,0.0,-3.0889,-3.0889,-3.0879,-3.084,-3.0439,-3.0166,-3.0174,-2.9652,-2.948,-2.9755,-2.9755,-2.9863,-3.0207,-3.0053,-2.9879,-2.9606,-2.9879,-2.9827,-2.9606,-2.9879,-2.9994,0.0,-2.9994,-2.9994,-2.9994,-2.9994,-2.9994,-2.9994,-2.9994,-2.9994,-2.9994,-2.9994,-2.9994,-2.9994,-2.9994,-2.9994,-3.0193,-3.133,-3.3055,-3.4824,-3.6011,-3.6355,-3.6355,-3.6355,-3.5906,-3.5433,-3.5395,-3.5031,-3.4806,-3.532,-3.547,-3.5658,-3.6292,-3.5931,-3.5508,-3.5558,-3.5119,-3.4906,-3.5458,-3.5558,-3.5768,-3.6329,-3.6405,-3.6405,-3.6405,-3.6405,-3.6405,-3.6405,-3.6405,-3.6405,-3.6405,-3.6405,-3.6452,-3.6499,-3.8147,-3.9166,-3.9285,-4.1043,-4.2051,-4.2092,-4.2092,-4.2092,-4.2092,-4.2092,-4.2092,-4.2092,-4.2092,-4.2092,-2.5586,0.0,-2.5606,-2.5312,-2.5478,-2.5693,0.0,-2.5693,-2.5693,-2.5693,0.0,-2.5791,-2.6172,-2.624,-2.6592,-2.7666,0.0,0.0,-2.915,0.0,0.0,-3.082,-3.0889,-3.0889,-3.0889,-3.0889,-3.0742,-3.0391,-3.0264,-3.0035,-2.9618,-2.9207,-2.9105,-2.925,-2.909,-2.9313,-3.0054,-2.9826,-2.9774,-2.9889,-2.9774,-2.9659,-2.9606,-2.9669,-2.9711,-2.9722,-2.9931,-2.9994,-2.9994,-2.9994,-2.9994,-2.9994,-2.9994,-2.9994,-2.9994,-2.9994,-2.9994,-2.9994,-2.9994,-2.9994,-3.0297,-3.2196,-3.2887,-3.3309,-3.5157,-3.5683,-3.5683,-3.5683,-3.5295,-3.4768,-3.4399,-3.45,-3.4705,-3.4843,-3.5194,-3.5658,-3.6292,-3.5931,-3.5621,-3.6094,-3.573,-3.5483,-3.6069,-3.6169,-3.6267,-3.6392,-3.6405,-3.6405,-3.6405,-3.6405,-3.6405,-3.6405,-3.6405,-3.6405,-3.6405,-3.6405,-3.6734,-3.7453,-3.79,-3.8765,-4.0202,-4.0703,-4.1296,-4.2092,-4.2092,-4.2092,-4.2092,-4.2092,-4.2092,-4.2092,-4.2092,-4.2092,-2.5693,-2.584,-2.5977,-2.5732,-2.5859,-2.6035,-2.6035,0.0,0.0,0.0,0.0,0.0,0.0,0.0,0.0,0.0,-2.8008,0.0,0.0,0.0,-3.0605,-3.0859,-3.0889,-3.0889,0.0,-3.0703,-3.0526,-3.0396,-3.0013,-2.9767,-2.9565,-2.9075,-2.8902,-2.9079,-2.8717,-2.8887,-2.9564,-2.9448,-2.9501,-2.9827,-2.9669,-2.9659,-2.9774,-2.9659,-2.9669,-2.9774,-2.9827,-2.9889,-2.9994,-2.9994,-2.9994,-2.9994,-2.9994,-2.9994,-2.9994,-2.9994,-2.9994,-2.9963,-2.9746,-2.9878,-3.037,-3.2232,-3.2804,-3.3102,-3.4647,-3.4944,-3.4806,-3.5044,-3.4731,-3.4336,-3.4286,-3.45,-3.4743,-3.4994,-3.5516,-3.5994,-3.6342,-3.6119,-3.6006,-3.6355,-3.6119,-3.6019,-3.6355,-3.6405,-3.6405,-3.6405,-3.6405,-3.6405,-3.6405,-3.6405,-3.6405,-3.6405,-3.6405,-3.6405,-3.6405,-3.6405,-3.664,-3.7129,-3.7978,-3.8899,-3.9899,-4.0802,-4.1535,-4.2092,-4.2092,-4.2092,-4.2092,-4.2092,-4.2092,-4.2092,-4.2092,-4.2092,-2.5693,-2.6103,-2.6465,-2.6406,-2.6387,-2.6387,-2.6387,0.0,0.0,0.0,0.0,0.0,0.0,-2.6543,0.0,0.0,0.0,0.0,-2.9502,-3.0312,-3.081,-3.0889,-3.083,0.0,-3.0781,-3.0428,-3.0248,-3.0416,-2.9798,-2.9569,-2.9759,-2.914,-2.8877,-2.9185,-2.8664,-2.8558,-2.9026,-2.9036,-2.9185,-2.9501,-2.9606,-2.9669,-2.9837,-2.9659,-2.9722,-2.9837,0.0,0.0,-2.9942,-2.9942,-2.9942,-2.9994,-2.9994,-2.9994,-2.9984,-2.9911,-2.9891,-2.9829,-2.9363,-2.9611,-3.0442,-3.184,-3.27,-3.331,-3.4272,-3.4211,-3.3872,-3.4336,-3.4135,-3.3897,-3.4449,-3.4663,-3.4818,-3.537,-3.5968,-3.6405,-3.6405,-3.6405,-3.6405,-3.6405,-3.6405,-3.6405,-3.6405,-3.6405,-3.6405,-3.6405,-3.6405,-3.6405,-3.6405,-3.6405,-3.6405,-3.6405,-3.6405,-3.6405,-3.6405,-3.6405,-3.6452,-3.6581,-3.8225,-3.9343,-3.9607,-4.1226,-4.2092,-4.2092,-4.2092,-4.2092,-4.2092,-4.2092,-4.2092,-4.2092,-4.2092,-4.2092,-2.5693,-2.6318,-2.6836,-2.6484,-2.6387,-2.6387,-2.6387,0.0,0.0,0.0,0.0,0.0,0.0,-2.7217,-2.7744,0.0,0.0,-2.9528,0.0,0.0,-3.0449,-3.084,0.0,-3.0303,-3.0303,-3.0148,-2.9921,-2.962,-2.9669,-2.9699,-2.9623,-2.9278,-2.9185,-2.9501,-2.894,-2.8684,-2.8781,-2.8781,-2.8877,-2.9185,-2.9448,-2.9448,-2.9237,-2.9501,-2.9448,-2.9237,0.0,-2.9343,-2.9659,-2.9659,-2.9774,-2.9994,-2.9994,-2.9994,-2.9942,-2.9559,-2.9415,-2.9342,-2.8876,-2.9307,-3.0274,-3.1442,-3.2125,-3.2641,-3.3699,-3.3646,-3.3262,-3.3307,-3.3269,-3.3332,-3.3884,-3.4374,-3.4818,-3.537,-3.5968,-3.6405,-3.6405,-3.6405,-3.6405,-3.6405,-3.6405,-3.6405,-3.6405,-3.6405,-3.6405,-3.6405,-3.6405,-3.6405,-3.6405,-3.6405,-3.6405,-3.6405,-3.6405,-3.6405,-3.6405,-3.6405,-3.6722,-3.7533,-3.8585,-3.9927,-4.1606,-4.1953,-4.2092,-4.2092,-4.2092,-4.2092,-4.2092,-4.2092,-4.2092,-4.2092,-4.2092,-4.2092,-2.5625,-2.6201,-2.668,-2.6719,-2.6904,-2.708,-2.708,0.0,0.0,0.0,0.0,0.0,0.0,0.0,-2.807,-2.9101,0.0,-2.9971,-3.0166,-3.041,-3.0557,0.0,0.0,-3.0164,-3.0108,-2.9826,-2.9709,-2.9836,-2.9745,-2.9725,-2.9784,-2.9501,-2.9343,-2.9343,-2.894,-2.8621,-2.8514,-2.8461,-2.8621,-2.8877,-2.9036,-2.9089,-2.9079,-2.9089,-2.9089,-2.9079,0.0,-2.9036,-2.9343,-2.9554,-2.9659,-2.9774,-2.9942,-2.9849,-2.957,-2.9104,-2.8773,-2.8566,-2.8597,-2.8915,-2.9577,-3.0804,-3.1528,-3.2131,-3.3127,-3.3325,-3.3124,-3.3124,-3.3124,-3.3269,-3.4123,-3.4537,-3.4939,-3.578,-3.6182,-3.6405,-3.6405,-3.6405,-3.6405,-3.6405,-3.6405,-3.6405,-3.6405,-3.6405,-3.6405,-3.6405,-3.6405,-3.6405,-3.6405,-3.6405,-3.6405,-3.6405,-3.6405,-3.6405,-3.6405,-3.6405,-3.7036,-3.8464,-3.9417,-4.0589,-4.2051,-4.2092,-4.2092,-4.2092,-4.2092,-4.2092,-4.2092,-4.2092,-4.2092,-4.2092,-4.2092,-4.2092,-2.5567,-2.6055,-2.6465,-2.6787,-2.7119,-2.7441,-2.7744,-2.7393,0.0,0.0,0.0,0.0,0.0,-2.7822,0.0,-2.9531,-2.999,-3.0234,-3.0342,-3.0576,-3.0653,-3.0358,-3.0143,-3.001,-2.9962,-2.9654,-2.9611,-3.0041,-2.9811,-2.9774,-2.9994,-2.9827,-2.9513,-2.9086,-2.878,-2.8466,-2.8094,-2.8041,-2.8202,-2.8631,-2.8684,-2.8834,-2.8983,-2.8781,-2.8834,-2.8983,-2.8727,-2.8781,-2.9036,-2.929,-2.9448,-2.9596,-2.9713,-2.9436,-2.8938,-2.8587,-2.8162,-2.7821,-2.8173,-2.8449,-2.8918,-3.0237,-3.1072,-3.1801,-3.2797,-3.3124,-3.3124,-3.3124,-3.3124,-3.3307,-3.4274,-3.4525,-3.4813,-3.5906,-3.6169,-3.6207,-3.638,-3.6405,-3.6405,-3.6405,-3.6405,-3.6405,-3.6405,-3.6405,-3.6405,-3.6405,-3.6405,-3.6405,-3.6405,-3.6405,-3.6405,-3.6405,-3.6405,-3.6405,-3.6405,-3.6581,-3.7376,-3.8874,-3.9989,-4.1057,-4.2051,-4.2092,-4.2092,-4.2092,-4.2092,-4.2092,-4.2092,-4.2092,-4.2092,-4.2092,-4.2092,-4.2092,-2.5567,-2.6055,-2.6396,-2.6426,-2.6455,0.0,-2.7978,-2.7607,0.0,-2.7539,0.0,0.0,0.0,-2.8301,-2.9121,-3.001,-3.0176,-3.0342,-3.0781,0.0,-3.0348,-3.0557,-2.9911,-2.957,-2.9802,-2.9657,-2.9605,-2.9657,-2.9847,-2.9994,-2.9994,-2.9994,-2.9631,-2.8941,-2.8632,-2.8173,-2.7498,-2.7202,-2.751,-2.8344,-2.8568,-2.8727,-2.8737,-2.8727,-2.8727,-2.8727,-2.8461,-2.8461,-2.8737,-2.8727,-2.9089,-2.9565,-2.9115,-2.8573,-2.8017,-2.7937,-2.7686,-2.7361,-2.7392,-2.7957,-2.8863,-2.9897,-3.088,-3.1801,-3.2797,-3.3124,-3.3124,-3.3124,-3.3124,-3.3219,-3.3809,-3.396,-3.4236,-3.5295,-3.5558,-3.5696,-3.6304,-3.6405,-3.6405,-3.6405,-3.6405,-3.6405,-3.6405,-3.6405,-3.6405,-3.6405,-3.6405,-3.6405,-3.6405,-3.6405,-3.6405,-3.6405,-3.6405,-3.6405,-3.6405,-3.7176,-3.7891,-3.8336,-3.9768,-4.1057,-4.2051,-4.2092,-4.2092,-4.2092,-4.2092,-4.2092,-4.2092,-4.2092,-4.2092,-4.2092,-4.2092,-4.2092,-2.5205,-2.584,-2.6387,-2.6387,-2.6582,0.0,0.0,-2.8047,-2.8008,-2.8711,-2.8428,0.0,0.0,0.0,-2.9111,-2.9707,-2.9814,-2.9929,-3.0276,-3.0204,-3.0053,-3.0108,-2.9843,-2.9641,-2.968,-2.9656,-2.9669,-2.9827,-2.9942,-2.9942,-2.9774,-2.9445,-2.9054,-2.8416,-2.7991,-2.7619,-2.7165,-2.7063,-2.7178,-2.75,-2.7604,-2.7803,-2.8068,-2.8068,-2.8206,-2.8461,-2.8344,-2.8198,-2.8088,-2.8522,-2.8505,-2.8205,-2.8127,-2.7988,-2.7883,-2.7614,-2.7455,-2.7309,-2.7309,-2.8305,-2.9715,-3.0079,-3.1258,-3.2624,-3.2982,-3.3124,-3.3124,-3.3124,-3.3124,-3.3206,-3.3759,-3.3897,-3.4085,-3.4806,-3.4994,-3.5132,-3.573,-3.5855,-3.5956,-3.6342,-3.6405,-3.6405,-3.6405,-3.6405,-3.6405,-3.6405,-3.6405,-3.6405,-3.6405,-3.6405,-3.6405,-3.6405,-3.6405,-3.6405,-3.6405,-3.7469,-3.8178,-3.8285,-3.974,-4.0872,-4.1442,-4.1874,-4.2092,-4.2092,-4.2092,-4.2092,-4.2092,-4.2092,-4.2092,-4.2092,-4.2092,-4.2092,-2.5259,-2.5918,-2.6387,-2.6387,0.0,0.0,-2.8096,-2.8398,-2.8691,-2.9479,-2.8994,-2.8447,-2.831,0.0,0.0,0.0,-2.9733,-3.0169,-3.0475,-3.0748,-3.0805,-3.0453,-3.0298,-3.0093,-2.9742,-2.9722,-2.9774,-2.9994,-2.986,-2.9725,-2.9506,-2.8962,-2.8391,-2.781,-2.74,-2.7031,-2.6611,-2.6611,-2.6611,-2.6611,-2.6611,-2.6904,-2.7461,-2.7461,-2.7617,-2.7891,-2.7891,-2.7725,-2.7532,-2.7983,-2.7772,-2.7211,-2.7419,-2.7511,-2.7541,-2.728,-2.7214,-2.7357,-2.7631,-2.862,-2.9852,-3.0441,-3.1524,-3.2711,-3.2982,-3.3124,-3.3124,-3.3124,-3.3124,-3.3169,-3.3545,-3.3633,-3.3771,-3.4324,-3.4462,-3.4618,-3.5345,-3.5495,-3.5658,-3.6304,-3.6405,-3.6405,-3.6405,-3.6405,-3.6405,-3.6405,-3.6405,-3.6405,-3.6405,-3.6405,-3.6405,-3.6405,-3.6675,-3.6739,-3.6548,-3.7634,-3.832,-3.8428,-3.9633,-4.0532,-4.1065,-4.1744,-4.2092,-4.2092,-4.2092,-4.2092,-4.2092,-4.2092,-4.2092,-4.2092,-4.2092,-4.2092,-2.5901,-2.6281,-2.6436,0.0,0.0,0.0,-2.8096,-2.8613,-2.9033,-2.9473,-2.9219,-2.8789,-2.8369,-2.8291,0.0,-2.8848,-3.0069,-3.1114,-3.1554,-3.243,-3.272,-3.1918,-3.1456,-3.0888,-3.0099,-2.9994,-2.9994,-2.9984,-2.9559,-2.9301,-2.9301,-2.8593,-2.7893,-2.723,-2.6913,-2.6448,-2.5693,-2.5693,-2.5693,-2.5693,-2.5693,-2.6132,-2.7012,-2.7012,-2.7012,-2.7012,-2.7012,-2.7012,-2.7012,-2.7002,-2.6899,-2.6814,-2.7111,-2.7094,-2.69,-2.69,-2.7081,-2.7441,-2.8351,-2.8724,-2.9037,-3.0946,-3.1625,-3.1801,-3.2797,-3.3124,-3.3124,-3.3124,-3.3124,-3.3124,-3.3124,-3.3124,-3.3219,-3.3759,-3.3884,-3.4198,-3.5245,-3.5495,-3.5658,-3.6292,-3.6405,-3.6405,-3.6405,-3.6405,-3.6405,-3.6405,-3.6405,-3.6405,-3.6392,-3.6392,-3.6392,-3.6392,-3.7209,-3.7502,-3.6824,-3.7704,-3.8399,-3.8682,-3.9325,-4.0121,-4.105,-4.1744,-4.2092,-4.2092,-4.2092,-4.2092,-4.2092,-4.2092,-4.2092,-4.2092,-4.2092,-4.2092,-2.7058,-2.7425,0.0,0.0,0.0,0.0,0.0,-2.8174,0.0,0.0,-2.9014,-2.8789,-2.8369,-2.8291,0.0,-2.9729,-3.0213,-3.0976,-3.2255,-3.2656,-3.2831,-3.2803,-3.202,-3.1381,-3.1135,-3.0443,-2.986,-2.9539,-2.9384,-2.9064,-2.8553,-2.7853,-2.734,-2.6913,-2.632,-2.5908,-2.5693,-2.5693,-2.5693,-2.5693,-2.5693,-2.6035,-2.6572,-2.6572,-2.6738,-2.7012,-2.7012,-2.6846,-2.6553,-2.624,-2.6349,-2.6705,-2.6515,-2.6617,-2.69,-2.69,-2.7081,-2.7441,-2.8351,-2.9176,-2.9943,-3.1214,-3.2077,-3.2711,-3.3025,-3.3124,-3.3124,-3.3124,-3.3124,-3.3124,-3.3124,-3.3124,-3.3162,-3.3282,-3.3319,-3.352,-3.4236,-3.4688,-3.5082,-3.568,-3.6094,-3.6405,-3.6405,-3.6405,-3.6279,-3.5843,-3.5793,-3.5655,-3.5253,-3.5203,-3.5203,-3.5203,-3.5464,-3.5537,-3.5359,-3.6756,-3.7708,-3.7783,-3.9629,-4.0792,-4.1091,-4.1744,-4.2092,-4.2092,-4.2092,-4.2092,-4.2092,-4.2092,-4.2092,-4.2092,-4.2092,-4.2092,-2.7431,0.0,0.0,0.0,0.0,-2.8562,-2.8031,0.0,0.0,0.0,-2.8916,-2.8789,-2.854,-2.8804,0.0,-3.0317,-3.1276,-3.2303,-3.3266,-3.3909,-3.4117,-3.3883,-3.2889,-3.2006,-3.1352,-3.0354,-2.9528,-2.9063,-2.8856,-2.8488,-2.7972,-2.7288,-2.6801,-2.6546,-2.6016,-2.5693,-2.5693,-2.5693,-2.5693,-2.5693,-2.5693,-2.583,-2.6133,-2.6133,-2.6269,-2.6454,-2.6454,-2.6367,-2.6113,-2.5801,-2.5928,-2.6271,-2.6064,-2.6207,-2.6602,-2.6699,-2.689,-2.7357,-2.8806,-2.9669,-3.0441,-3.1757,-3.2624,-3.3124,-3.3124,-3.3124,-3.3124,-3.3124,-3.3124,-3.3124,-3.3124,-3.3124,-3.3124,-3.3124,-3.3124,-3.3275,-3.3784,-3.4161,-3.4625,-3.5345,-3.5805,-3.6107,-3.6367,-3.6182,-3.5931,-3.5545,-3.5307,-3.5056,-3.4718,-3.468,-3.468,-3.468,-3.5015,-3.5302,-3.5422,-3.7001,-3.8021,-3.81,-4.0006,-4.1091,-4.1091,-4.1744,-4.2092,-4.2092,-4.2092,-4.2092,-4.2092,-4.2092,-4.2092,-4.2092,-4.2092,-4.2092,0.0,0.0,0.0,0.0,0.0,0.0,-2.8607,-2.8819,-2.9011,-2.8857,0.0,-2.9011,-2.885,-2.9723,-3.0618,-3.0968,-3.2955,-3.4434,-3.4581,-3.5619,-3.6048,-3.5017,-3.3923,-3.2677,-3.1131,-3.0019,-2.9154,-2.8587,-2.8162,-2.7806,-2.7531,-2.6863,-2.64,-2.61,-2.583,-2.5693,-2.5693,-2.5693,-2.5693,-2.5693,-2.5693,-2.5693,-2.5693,-2.5693,-2.5693,-2.5693,-2.5693,-2.5693,-2.5693,-2.5693,-2.5693,-2.5693,-2.5693,-2.5868,-2.6149,-2.64,-2.6699,-2.7272,-2.9441,-3.0215,-3.0531,-3.2481,-3.3124,-3.3124,-3.3124,-3.3124,-3.3124,-3.3124,-3.3124,-3.3124,-3.3124,-3.3124,-3.3124,-3.3124,-3.3124,-3.3219,-3.3721,-3.3872,-3.4198,-3.5157,-3.5395,-3.5583,-3.6166,-3.5793,-3.5408,-3.5357,-3.4881,-3.4575,-3.4575,-3.4575,-3.4575,-3.4575,-3.5401,-3.6036,-3.6275,-3.7867,-3.8899,-3.9064,-4.0296,-4.1004,-4.1004,-4.17,-4.2092,-4.2092,-4.2092,-4.2092,-4.2092,-4.2092,-4.2092,-4.2092,-4.2092,-4.2092,0.0,0.0,0.0,0.0,0.0,0.0,0.0,-3.0348,-2.9951,-2.8676,-2.9295,-2.9973,-2.9932,-3.1019,-3.2241,-3.3415,-3.403,-3.4775,-3.581,-3.6216,-3.6147,-3.5429,-3.4459,-3.3218,-3.17,-3.0563,-2.9398,-2.8149,-2.7976,-2.7634,-2.7054,-2.6701,-2.64,-2.61,-2.583,-2.5693,-2.5693,-2.5693,-2.5693,-2.5693,-2.5693,-2.5693,-2.5693,-2.5693,-2.5693,-2.5693,-2.5693,-2.5693,-2.5693,-2.5693,-2.5693,-2.5693,-2.5693,-2.5975,-2.64,-2.6496,-2.6784,-2.7489,-2.9486,-3.0215,-3.0531,-3.2481,-3.3124,-3.3124,-3.3124,-3.3124,-3.3124,-3.3124,-3.3124,-3.3124,-3.3124,-3.3124,-3.3124,-3.3124,-3.3124,-3.3106,-3.3275,-3.3596,-3.3972,-3.4211,-3.4555,-3.4893,-3.5052,-3.4977,-3.4705,-3.4324,-3.3784,-3.3432,-3.3432,-3.3432,-3.3432,-3.3432,-3.4255,-3.4782,-3.4831,-3.6851,-3.8124,-3.8195,-3.9503,-4.0307,-4.0307,-4.1453,-4.2092,-4.2092,-4.2092,-4.2092,-4.2092,-4.2092,-4.2092,-4.2092,-4.2092,-4.2092,0.0,0.0,0.0,0.0,0.0,0.0,0.0,0.0,-3.1224,-3.0369,-3.0773,-3.1327,-3.1491,-3.2504,-3.3613,-3.4422,-3.5017,-3.5619,-3.631,-3.6132,-3.5868,-3.5533,-3.434,-3.3147,-3.2147,-3.0667,-2.9342,-2.8381,-2.7748,-2.7221,-2.6709,-2.6448,-2.6207,-2.5917,-2.5781,-2.5693,-2.5693,-2.5693,-2.5693,-2.5693,-2.5693,-2.5693,-2.5693,-2.5693,-2.5693,-2.5693,-2.5693,-2.5693,-2.5693,-2.5693,-2.5693,-2.5693,-2.5693,-2.5878,-2.6169,-2.64,-2.6688,-2.7156,-2.8899,-2.9806,-3.0441,-3.1901,-3.2711,-3.3124,-3.3124,-3.3124,-3.3124,-3.3124,-3.3124,-3.3124,-3.3124,-3.3124,-3.3124,-3.3124,-3.3124,-3.3124,-3.3124,-3.3307,-3.3583,-3.3847,-3.4135,-3.4412,-3.4675,-3.45,-3.4135,-3.3583,-3.3257,-3.3124,-3.3124,-3.3124,-3.3124,-3.3124,-3.3865,-3.4551,-3.4924,-3.6766,-3.7921,-3.8029,-3.9333,-3.9958,-3.9683,-4.0612,-4.1279,-4.1613,-4.1613,-4.1773,-4.2092,-4.2092,-4.2092,-4.2092,-4.2092,-4.1932,0.0,0.0,0.0,0.0,0.0,0.0,0.0,0.0,0.0,-3.2694,-3.2644,-3.2744,-3.3017,-3.397,-3.4836,-3.503,-3.581,-3.6367,-3.6279,-3.583,-3.542,-3.5245,-3.4026,-3.2965,-3.2331,-3.0744,-2.9479,-2.8757,-2.7715,-2.6928,-2.6496,-2.6245,-2.5955,-2.5684,-2.5693,-2.5693,-2.5693,-2.5693,-2.5693,-2.5693,-2.5693,-2.5693,-2.5693,-2.5693,-2.5693,-2.5693,-2.5693,-2.5693,-2.5693,-2.5693,-2.5693,-2.5693,-2.5693,-2.5732,-2.583,-2.6255,-2.6448,-2.6678,-2.8117,-2.9303,-3.0294,-3.1258,-3.2264,-3.3124,-3.3124,-3.3124,-3.3124,-3.3124,-3.3124,-3.3124,-3.3124,-3.3124,-3.3124,-3.3124,-3.3124,-3.3124,-3.3124,-3.3124,-3.3206,-3.3671,-3.3759,-3.3897,-3.4361,-3.406,-3.3608,-3.3187,-3.3124,-3.3124,-3.3124,-3.3124,-3.3124,-3.3124,-3.3865,-3.4662,-3.5359,-3.683,-3.7799,-3.7967,-3.9112,-3.9552,-3.9044,-3.9509,-4.0133,-4.0902,-4.1033,-4.1424,-4.2092,-4.2092,-4.2034,-4.1918,-4.1918,-4.157,0.0,0.0,0.0,0.0,0.0,0.0,0.0,0.0,0.0,0.0,-3.4129,-3.4129,-3.4178,-3.5271,-3.6156,-3.6156,-3.631,-3.6194,-3.5671,-3.5545,-3.5144,-3.4236,-3.3902,-3.3229,-3.1825,-3.1455,-3.0567,-2.8817,-2.8341,-2.7636,-2.6544,-2.6245,-2.5955,-2.5684,-2.5693,-2.5693,-2.5693,-2.5693,-2.5693,-2.5693,-2.5693,-2.5693,-2.5693,-2.5693,-2.5693,-2.5693,-2.5693,-2.5693,-2.5693,-2.5693,-2.5693,-2.5693,-2.5693,-2.582,-2.6052,-2.6149,-2.6294,-2.6678,-2.7908,-2.9004,-3.0045,-3.1214,-3.2264,-3.3124,-3.3124,-3.3124,-3.3124,-3.3124,-3.3124,-3.3124,-3.3124,-3.3124,-3.3124,-3.3124,-3.3124,-3.3124,-3.3124,-3.3124,-3.3106,-3.3169,-3.3224,-3.3206,-3.3282,-3.3232,-3.3156,-3.3124,-3.3124,-3.3124,-3.3124,-3.3124,-3.3124,-3.3124,-3.3865,-3.4426,-3.4551,-3.6098,-3.706,-3.7053,-3.7916,-3.842,-3.8333,-3.8405,-3.9015,-4.0205,-4.08,-4.1424,-4.2092,-4.2092,-4.1802,-4.1221,-4.1221,-4.0873,0.0,0.0,0.0,0.0,0.0,0.0,0.0,0.0,0.0,0.0,-3.5523,-3.5523,-3.5523,-3.6013,-3.6405,-3.6405,-3.6107,-3.5818,-3.5533,-3.4969,-3.4449,-3.396,-3.3621,-3.3202,-3.2506,-3.1945,-3.0979,-2.9429,-2.8541,-2.7568,-2.6342,-2.6014,-2.583,-2.5693,-2.5693,-2.5693,-2.5693,-2.5693,-2.5693,-2.5693,-2.5693,-2.5693,-2.5693,-2.5693,-2.5693,-2.5693,-2.5693,-2.5693,-2.5693,-2.5693,-2.5693,-2.5693,-2.5693,-2.5781,-2.5917,-2.6052,-2.6197,-2.6428,-2.7694,-2.8866,-3.0,-3.1069,-3.2208,-3.3124,-3.3124,-3.3124,-3.3124,-3.3124,-3.3124,-3.3124,-3.3124,-3.3124,-3.3124,-3.3124,-3.3124,-3.3124,-3.3124,-3.3124,-3.3124,-3.3124,-3.3124,-3.3124,-3.3124,-3.3124,-3.3124,-3.3124,-3.3124,-3.3124,-3.3124,-3.3124,-3.3124,-3.3124,-3.3865,-3.4592,-3.5047,-3.6215,-3.7092,-3.7606,-3.8,-3.8202,-3.8202,-3.8202,-3.8797,-4.0075,-4.0379,-4.1047,-4.2092,-4.1715,-4.1381,-4.1091,-4.0713,-4.0191,0.0,0.0,0.0,0.0,0.0,0.0,0.0,0.0,0.0,0.0,-3.6405,-3.6405,-3.6405,-3.6405,-3.6367,-3.6182,-3.5805,-3.5395,-3.5119,-3.4412,-3.3847,-3.3709,-3.3319,-3.3124,-3.3124,-3.2351,-3.1291,-2.9897,-2.8797,-2.7558,-2.6187,-2.5868,-2.5693,-2.5693,-2.5693,-2.5693,-2.5693,-2.5693,-2.5693,-2.5693,-2.5693,-2.5693,-2.5693,-2.5693,-2.5693,-2.5693,-2.5693,-2.5693,-2.5693,-2.5693,-2.5693,-2.5693,-2.5693,-2.5693,-2.5781,-2.6187,-2.637,-2.6562,-2.7835,-2.9026,-3.0135,-3.1024,-3.2077,-3.3025,-3.3081,-3.3124,-3.3124,-3.3124,-3.3124,-3.3124,-3.3124,-3.3124,-3.3124,-3.3124,-3.3124,-3.3124,-3.3124,-3.3124,-3.3124,-3.3124,-3.3124,-3.3124,-3.3124,-3.3124,-3.3124,-3.3124,-3.3124,-3.3124,-3.3124,-3.3124,-3.3124,-3.3124,-3.3865,-3.462,-3.5237,-3.6281,-3.7169,-3.7848,-3.8089,-3.8202,-3.8202,-3.8202,-3.8725,-3.9842,-3.9871,-4.0525,-4.1845,-4.1163,-4.0771,-4.0612,-4.0104,-3.9538,0.0,0.0,0.0,0.0,0.0,0.0,0.0,0.0,0.0,0.0,0.0,-3.6405,-3.6405,-3.6405,-3.6194,-3.5621,-3.552,-3.5132,-3.4135,-3.3935,-3.3709,-3.3181,-3.3136,-3.3124,-3.3124,-3.281,-3.1845,-2.9943,-2.9269,-2.8121,-2.6187,-2.5868,-2.5693,-2.5693,-2.5693,-2.5693,-2.5693,-2.5693,-2.5693,-2.5693,-2.5693,-2.5693,-2.5693,-2.5693,-2.5693,-2.5693,-2.5693,-2.5693,-2.5693,-2.5693,-2.5693,-2.5693,-2.5693,-2.5693,-2.583,-2.6781,-2.7142,-2.7332,-2.8609,-2.9669,-3.0576,-3.1125,-3.1933,-3.2766,-3.3025,-3.3124,-3.3124,-3.3124,-3.3124,-3.3124,-3.3124,-3.3124,-3.3124,-3.3124,-3.3124,-3.3124,-3.3124,-3.3124,-3.3124,-3.3124,-3.3124,-3.3124,-3.3124,-3.3124,-3.3124,-3.3124,-3.3124,-3.3124,-3.3124,-3.3124,-3.3124,-3.3124,-3.3865,-3.4439,-3.4481,-3.595,-3.6936,-3.6975,-3.772,-3.8202,-3.8202,-3.8202,-3.8536,-3.9233,-3.9247,-3.9871,-4.1149,-4.0481,-3.9857,-3.9305,-3.9262,-3.8884,0.0,0.0,0.0,0.0,0.0,0.0,0.0,0.0,0.0,0.0,0.0,-3.6304,-3.5893,-3.583,-3.5768,-3.5533,-3.5207,-3.4831,-3.4487,-3.4424,-3.4349,-3.4161,-3.3822,-3.3608,-3.3608,-3.3052,-3.2077,-3.0609,-2.9555,-2.8355,-2.6867,-2.61,-2.5693,-2.5693,-2.5693,-2.5693,-2.5693,-2.5693,-2.5693,-2.5693,-2.5693,-2.5693,-2.5693,-2.5693,-2.5693,-2.5693,-2.5693,-2.5693,-2.5693,-2.5693,-2.5693,-2.5693,-2.5693,-2.5693,-2.5732,-2.61,-2.6648,-2.7379,-2.8448,-2.9567,-3.0678,-3.1693,-3.232,-3.2754,-3.3025,-3.3124,-3.3124,-3.3124,-3.3124,-3.3124,-3.3124,-3.3124,-3.3124,-3.3124,-3.3124,-3.3124,-3.3124,-3.3124,-3.3124,-3.3124,-3.3124,-3.3124,-3.3124,-3.3124,-3.3124,-3.3124,-3.3124,-3.3124,-3.3124,-3.3124,-3.3124,-3.3124,-3.3368,-3.3781,-3.4356,-3.5413,-3.632,-3.6844,-3.772,-3.8202,-3.8202,-3.8202,-3.8522,-3.9189,-3.8783,-3.9189,-4.0452,-3.9828,-3.9407,-3.9189,-3.8754,-3.8434,-3.2164,0.0,0.0,0.0,0.0,0.0,0.0,0.0,0.0,0.0,0.0,0.0,-3.5295,-3.5069,-3.4944,-3.4944,-3.4839,-3.4663,-3.4474,-3.4613,-3.468,-3.468,-3.4399,-3.4173,-3.4173,-3.3364,-3.2401,-3.125,-2.9748,0.0,-2.7284,-2.6235,-2.5693,-2.5693,-2.5693,-2.5693,-2.5693,-2.5693,-2.5693,-2.5693,-2.5693,-2.5693,-2.5693,-2.5693,-2.5693,-2.5693,-2.5693,-2.5693,-2.5693,-2.5693,-2.5693,-2.5693,-2.5693,-2.5693,-2.5732,-2.61,-2.6829,-2.784,-2.8866,-2.9932,-3.1059,-3.2069,-3.2475,-3.268,-3.2995,-3.3124,-3.3124,-3.3124,-3.3124,-3.3124,-3.3124,-3.3124,-3.3124,-3.3124,-3.3124,-3.3124,-3.3124,-3.3124,-3.3124,-3.3124,-3.3124,-3.3124,-3.3124,-3.3124,-3.3124,-3.3124,-3.3124,-3.3124,-3.3124,-3.3124,-3.3124,-3.3124,-3.3368,-3.3781,-3.4356,-3.5128,-3.5989,-3.6844,-3.7453,-3.7886,-3.8202,-3.8202,-3.8405,-3.8855,-3.8434,-3.8623,-3.9465,-3.9059,-3.887,-3.8855,-3.8405,-3.8202,0.0,0.0,0.0,0.0,0.0,0.0,0.0,0.0,0.0,0.0,0.0,0.0,0.0,-3.4261,-3.3884,-3.3872,-3.4349,-3.4537,-3.3997,-3.4412,-3.4731,-3.4731,-3.4705,-3.4705,-3.4705,-3.3789,-3.2816,-3.1815,-2.9837,-2.8251,-2.7284,-2.6284,-2.5693,-2.5693,-2.5693,-2.5693,-2.5693,-2.5693,-2.5693,-2.5693,-2.5693,-2.5693,-2.5693,-2.5693,-2.5693,-2.5693,-2.5693,-2.5693,-2.5693,-2.5693,-2.5693,-2.5693,-2.5693,-2.5693,-2.583,-2.6829,-2.784,-2.8855,-2.9841,-3.0869,-3.1793,-3.2257,-3.24,-3.2475,-3.2952,-3.3124,-3.3124,-3.3124,-3.3124,-3.3124,-3.3124,-3.3124,-3.3124,-3.3124,-3.3124,-3.3124,-3.3124,-3.3124,-3.3124,-3.3124,-3.3124,-3.3124,-3.3124,-3.3124,-3.3124,-3.3124,-3.3124,-3.3124,-3.3124,-3.3124,-3.3124,-3.3124,-3.3865,-3.4356,-3.4356,-3.5115,-3.5949,-3.6805,-3.6897,-3.7323,-3.8165,-3.8202,-3.8202,-3.8202,-3.8202,-3.8202,-3.8202,-3.8202,-3.8202,-3.8202,-3.8202,-3.8202,-3.1687,0.0,0.0,0.0,0.0,0.0,0.0,0.0,0.0,0.0,0.0,0.0,0.0,0.0,-3.3771,-3.337,-3.411,-3.4675,-3.4512,-3.5316,-3.5952,-3.5952,-3.5554,-3.527,-3.527,-3.4012,-3.3052,0.0,-3.0262,-2.8588,-2.8308,-2.6658,-2.5693,-2.5693,-2.5693,-2.5693,-2.5693,-2.5693,-2.5693,-2.5693,-2.5693,-2.5693,-2.5693,-2.5693,-2.5693,-2.5693,-2.5693,-2.5693,-2.5693,-2.5693,-2.5693,-2.5693,-2.5693,-2.5693,-2.583,-2.6829,-2.784,-2.8855,-2.9841,-3.0869,-3.1793,-3.2257,-3.24,-3.2475,-3.2952,-3.3124,-3.3124,-3.3124,-3.3124,-3.3124,-3.3124,-3.3124,-3.3124,-3.3124,-3.3124,-3.3124,-3.3124,-3.3124,-3.3124,-3.3124,-3.3124,-3.3124,-3.3124,-3.3124,-3.3124,-3.3124,-3.3124,-3.3124,-3.3124,-3.3124,-3.3124,-3.3124,-3.3326,-3.3454,-3.3454,-3.4746,-3.5695,-3.5949,-3.7155,-3.7962,-3.8202,-3.8202,-3.8202,-3.8202,-3.8202,-3.8202,-3.8202,-3.8202,-3.8202,-3.8202,-3.8202,-3.8202,-3.1537,-3.2215,-3.3061,-3.278,0.0,0.0,-3.3483,-3.3558,0.0,0.0,0.0,0.0,0.0,0.0,0.0,0.0,-3.3809,-3.4462,-3.4688,-3.5667,-3.6405,-3.6405,-3.6081,-3.5846,-3.5706,-3.4598,-3.3731,-3.3374,-3.0674,-2.8582,-2.7494,-2.6332,-2.5693,-2.5693,-2.5693,-2.5693,-2.5693,-2.5693,-2.5693,-2.5693,-2.5693,-2.5693,-2.5693,-2.5693,-2.5693,-2.5693,-2.5693,-2.5693,-2.5693,-2.5693,-2.5693,-2.5693,-2.5693,-2.5965,-2.6418,-2.6962,-2.8121,-2.9418,-2.9988,-3.0913,-3.1893,-3.2257,-3.2475,-3.2605,-3.2995,-3.3124,-3.3124,-3.3124,-3.3124,-3.3124,-3.3124,-3.3124,-3.3124,-3.3124,-3.3124,-3.3124,-3.3124,-3.3124,-3.3124,-3.3124,-3.3124,-3.3124,-3.3124,-3.3124,-3.3124,-3.3124,-3.3124,-3.3124,-3.3124,-3.3124,-3.3124,-3.3124,-3.3124,-3.3124,-3.3124,-3.3995,-3.4718,-3.5087,-3.6056,-3.6766,-3.7116,-3.7477,-3.7644,-3.7644,-3.8,-3.8202,-3.8202,-3.8202,-3.8202,-3.8202,-3.8202,-3.8202,-3.1637,-3.2265,-3.2943,-3.2353,-3.2641,0.0,-3.3006,-3.3031,-3.3124,0.0,0.0,0.0,0.0,0.0,0.0,0.0,0.0,-3.4085,-3.4605,-3.5617,-3.6329,-3.6405,-3.6405,-3.6275,-3.6015,-3.5283,-3.4472,-3.3752,-3.1072,-2.837,-2.5849,-2.5693,-2.5693,-2.5693,-2.5693,-2.5693,-2.5693,-2.5693,-2.5693,-2.5693,-2.5693,-2.5693,-2.5693,-2.5693,-2.5693,-2.5693,-2.5693,-2.5693,-2.5693,-2.5693,-2.5693,-2.5684,-2.583,-2.6418,-2.7237,-2.7463,-2.8669,-3.0215,-3.0351,-3.1059,-3.1994,-3.23,-3.2519,-3.2723,-3.3025,-3.3124,-3.3124,-3.3124,-3.3124,-3.3124,-3.3124,-3.3124,-3.3124,-3.3124,-3.3124,-3.3124,-3.3124,-3.3124,-3.3124,-3.3124,-3.3124,-3.3124,-3.3124,-3.3124,-3.3124,-3.3124,-3.3124,-3.3124,-3.3124,-3.3124,-3.3124,-3.3124,-3.3124,-3.3124,-3.3124,-3.321,-3.3569,-3.4356,-3.4468,-3.4855,-3.5574,-3.6439,-3.6897,-3.6897,-3.7772,-3.8202,-3.8202,-3.8202,-3.8202,-3.8202,-3.8202,-3.8202,-3.2202,-3.2554,-3.2943,-3.2353,-3.2641,0.0,-3.2491,-3.2742,-3.3124,0.0,0.0,0.0,0.0,0.0,0.0,0.0,0.0,0.0,-3.4605,-3.5245,-3.5868,-3.6355,-3.6405,-3.6275,-3.6015,-3.5283,-3.4632,-3.4275,-3.1314,-2.837,-2.5849,-2.5693,-2.5693,-2.5693,-2.5693,-2.5693,-2.5693,-2.5693,-2.5693,-2.5693,-2.5693,-2.5693,-2.5693,-2.5693,-2.5693,-2.5693,-2.5693,-2.5693,-2.5693,-2.5693,-2.5693,-2.5781,-2.66,-2.701,-2.7426,-2.9004,-2.9841,-3.0306,-3.1149,-3.156,-3.1849,-3.2257,-3.2431,-3.2562,-3.2995,-3.3124,-3.3124,-3.3124,-3.3124,-3.3124,-3.3124,-3.3124,-3.3124,-3.3124,-3.3124,-3.3124,-3.3124,-3.3124,-3.3124,-3.3124,-3.3124,-3.3124,-3.3124,-3.3124,-3.3124,-3.3124,-3.3124,-3.3124,-3.3124,-3.3124,-3.3124,-3.3124,-3.3124,-3.3124,-3.3124,-3.3738,-3.423,-3.4397,-3.5006,-3.5427,-3.5574,-3.6439,-3.6897,-3.6897,-3.7772,-3.8202,-3.8202,-3.8202,-3.8202,-3.8202,-3.8202,-3.8202,-3.2365,-3.2641,-3.2943,-3.2353,-3.2641,0.0,0.0,-3.2867,-3.3124,-3.3124,-3.3124,0.0,0.0,0.0,0.0,0.0,0.0,0.0,0.0,-3.4981,-3.5696,-3.6342,-3.6405,-3.6216,-3.586,-3.5422,-3.4401,-3.2506,-3.0558,-2.837,-2.5849,-2.5693,-2.5693,-2.5693,-2.5693,-2.5693,-2.5693,-2.5693,-2.5693,-2.5693,-2.5693,-2.5693,-2.5693,-2.5693,-2.5693,-2.5693,-2.5693,-2.5693,-2.5693,-2.5693,-2.5693,-2.5781,-2.6829,-2.7521,-2.8121,-2.9658,-3.0543,-3.1003,-3.1528,-3.1761,-3.1893,-3.2257,-3.2475,-3.2636,-3.2995,-3.3124,-3.3124,-3.3124,-3.3124,-3.3124,-3.3124,-3.3124,-3.3124,-3.3124,-3.3124,-3.3124,-3.3124,-3.3124,-3.3124,-3.3124,-3.3124,-3.3124,-3.3124,-3.3124,-3.3124,-3.3124,-3.3124,-3.3124,-3.3124,-3.3124,-3.3124,-3.3124,-3.3124,-3.3124,-3.3124,-3.3484,-3.3738,-3.3738,-3.4121,-3.4345,-3.4345,-3.5602,-3.6439,-3.6897,-3.7772,-3.8,-3.7567,-3.8,-3.8202,-3.8202,-3.8202,-3.8202,-3.2503,-3.2717,-3.2918,-3.2227,-3.2566,-3.3061,0.0,0.0,0.0,-3.3124,-3.3124,0.0,0.0,0.0,0.0,0.0,0.0,0.0,0.0,-3.4663,0.0,-3.5981,-3.6144,-3.5971,-3.5508,-3.5365,-3.391,-3.0562,-2.9803,-2.837,-2.5849,-2.5693,-2.5693,-2.5693,-2.5693,-2.5693,-2.5693,-2.5693,-2.5693,-2.5693,-2.5693,-2.5693,-2.5693,-2.5693,-2.5693,-2.5693,-2.5693,-2.5693,-2.5693,-2.5693,-2.5693,-2.583,-2.701,-2.7981,-2.8866,-3.0022,-3.1003,-3.1705,-3.1705,-3.1805,-3.1981,-3.23,-3.2562,-3.281,-3.3025,-3.3124,-3.3124,-3.3124,-3.3124,-3.3124,-3.3124,-3.3124,-3.3124,-3.3124,-3.3124,-3.3124,-3.3124,-3.3124,-3.3124,-3.3124,-3.3124,-3.3124,-3.3124,-3.3124,-3.3124,-3.3124,-3.3124,-3.3124,-3.3124,-3.3124,-3.3124,-3.3124,-3.3124,-3.3124,-3.3124,-3.3124,-3.3124,-3.3124,-3.3124,-3.3124,-3.3124,-3.4553,-3.5749,-3.6649,-3.7529,-3.7606,-3.6897,-3.7772,-3.8202,-3.8202,-3.8202,-3.8202,-3.3006,-3.3074,-3.2817,-3.175,-3.2277,-3.286,-3.1813,0.0,-3.3124,-3.3124,0.0,0.0,0.0,0.0,0.0,0.0,0.0,0.0,0.0,0.0,-3.4286,-3.4851,-3.5169,-3.5236,-3.4908,-3.4471,-3.3088,-3.048,-2.9803,-2.837,-2.5849,-2.5693,-2.5693,-2.5693,-2.5693,-2.5693,-2.5693,-2.5693,-2.5693,-2.5693,-2.5693,-2.5693,-2.5693,-2.5693,-2.5693,-2.5693,-2.5693,-2.5693,-2.5693,-2.5693,-2.5693,-2.5878,-2.7804,-2.8588,-2.8912,-3.0824,-3.1617,-3.1705,-3.1705,-3.1705,-3.1805,-3.2257,-3.2692,-3.3081,-3.3081,-3.3124,-3.3124,-3.3124,-3.3124,-3.3124,-3.3124,-3.3124,-3.3124,-3.3124,-3.3124,-3.3124,-3.3124,-3.3124,-3.3124,-3.3124,-3.3124,-3.3124,-3.3124,-3.3124,-3.3124,-3.3124,-3.3124,-3.3124,-3.3124,-3.3124,-3.3124,-3.3124,-3.3124,-3.3124,-3.3124,-3.3124,-3.3124,-3.3124,-3.3124,-3.3124,-3.3124,-3.4021,-3.4937,-3.5735,-3.6596,-3.7014,-3.6897,-3.7772,-3.8202,-3.8202,-3.8202,-3.8202,-3.3124,-3.3124,-3.288,-3.2064,-3.2215,-3.2453,-3.1976,-3.1989,-3.219,-3.2503,0.0,0.0,0.0,0.0,0.0,0.0,-3.3124,0.0,0.0,0.0,-3.3746,0.0,0.0,0.0,-3.4388,-3.3877,-3.2559,-3.0013,-2.965,-2.837,-2.5849,-2.5693,-2.5693,-2.5693,-2.5693,-2.5693,-2.5693,-2.5693,-2.5693,-2.5693,-2.5693,-2.5693,-2.5693,-2.5693,-2.5693,-2.5693,-2.5693,-2.5693,-2.5693,-2.5693,-2.5693,-2.5917,-2.7898,-2.868,-2.8855,-3.0306,-3.1193,-3.1705,-3.1705,-3.1761,-3.1937,-3.2419,-3.281,-3.3124,-3.3124,-3.3124,-3.3124,-3.3124,-3.3124,-3.3124,-3.3124,-3.3124,-3.3124,-3.3124,-3.3124,-3.3124,-3.3124,-3.3124,-3.3124,-3.3124,-3.3124,-3.3124,-3.3124,-3.3124,-3.3124,-3.3124,-3.3124,-3.3124,-3.3124,-3.3124,-3.3124,-3.3124,-3.3124,-3.3124,-3.3124,-3.3124,-3.3124,-3.3124,-3.3124,-3.3326,-3.3823,-3.4189,-3.4551,-3.4896,-3.6215,-3.6649,-3.6148,-3.7515,-3.8202,-3.8202,-3.8202,-3.8202,-3.3124,-3.3124,-3.2905,-3.2164,-3.2102,-3.2139,-3.1838,-3.1687,-3.1725,-3.2127,-3.234,0.0,0.0,0.0,-3.3124,-3.3124,0.0,-3.3124,0.0,0.0,0.0,0.0,0.0,0.0,0.0,-3.3383,-3.2089,-2.9657,-2.935,-2.8232,-2.5849,-2.5693,-2.5693,-2.5693,-2.5693,-2.5693,-2.5693,-2.5693,-2.5693,-2.5693,-2.5693,-2.5693,-2.5693,-2.5693,-2.5693,-2.5693,-2.5693,-2.5693,-2.5693,-2.5693,-2.5693,-2.583,-2.7295,-2.8215,-2.8866,-3.0125,-3.1104,-3.1761,-3.1761,-3.1981,-3.2245,-3.2581,-3.2896,-3.3124,-3.3124,-3.3124,-3.3124,-3.3124,-3.3124,-3.3124,-3.3124,-3.3124,-3.3124,-3.3124,-3.3124,-3.3124,-3.3124,-3.3124,-3.3124,-3.3124,-3.3124,-3.3124,-3.3124,-3.3124,-3.3124,-3.3124,-3.3124,-3.3124,-3.3124,-3.3124,-3.3124,-3.3124,-3.3124,-3.3124,-3.3124,-3.3124,-3.3124,-3.3124,-3.3124,-3.3368,-3.4021,-3.4021,-3.4021,-3.4021,-3.5467,-3.5883,-3.5264,-3.6752,-3.7591,-3.7848,-3.8089,-3.8202,-3.3124,-3.3124,-3.2847,-3.17,-3.1813,-3.1938,-3.0909,-3.1461,-3.219,-3.2215,-3.2654,-3.3056,-3.3056,-3.3111,-3.3124,-3.3124,-3.3124,0.0,0.0,0.0,0.0,0.0,0.0,0.0,0.0,-3.2952,-3.1702,0.0,-2.9033,-2.7825,-2.583,-2.5693,-2.5693,-2.5693,-2.5693,-2.5693,-2.5693,-2.5693,-2.5693,-2.5693,-2.5693,-2.5693,-2.5693,-2.5693,-2.5693,-2.5693,-2.5693,-2.5693,-2.5693,-2.5693,-2.5693,-2.5693,-2.5781,-2.6982,-2.8958,-3.0913,-3.1805,-3.1994,-3.1994,-3.2288,-3.268,-3.2711,-3.2896,-3.3124,-3.3124,-3.3124,-3.3124,-3.3124,-3.3124,-3.3124,-3.3124,-3.3124,-3.3124,-3.3124,-3.3124,-3.3124,-3.3124,-3.3124,-3.3124,-3.3124,-3.3124,-3.3124,-3.3124,-3.3124,-3.3124,-3.3124,-3.3124,-3.3124,-3.3124,-3.3124,-3.3124,-3.3124,-3.3124,-3.3124,-3.3124,-3.3124,-3.3124,-3.3124,-3.3124,-3.3124,-3.3154,-3.3154,-3.3154,-3.3154,-3.4021,-3.4481,-3.4439,-3.5278,-3.6108,-3.6975,-3.781,-3.8202,0.0,0.0,-3.2893,-3.2127,-3.18,-3.1574,-3.121,-3.1148,-3.126,-3.1599,-3.2114,-3.2503,-3.2503,-3.2817,-3.3124,-3.3124,-3.3124,-3.3124,0.0,0.0,0.0,0.0,0.0,0.0,0.0,0.0,0.0,0.0,-2.8814,0.0,-2.583,-2.5693,-2.5693,-2.5693,-2.5693,-2.5693,-2.5693,-2.5693,-2.5693,-2.5693,-2.5693,-2.5693,-2.5693,-2.5693,-2.5693,-2.5693,-2.5693,-2.5693,-2.5693,-2.5693,-2.5693,-2.583,-2.7163,-2.8085,-2.8773,-2.9464,-3.0588,-3.1805,-3.1937,-3.2113,-3.2288,-3.2593,-3.2754,-3.2853,-3.3038,-3.3124,-3.3124,-3.3124,-3.3124,-3.3124,-3.3124,-3.3124,-3.3124,-3.3124,-3.3124,-3.3124,-3.3124,-3.3124,-3.3124,-3.3124,-3.3124,-3.3124,-3.3124,-3.3124,-3.3124,-3.3124,-3.3124,-3.3124,-3.3124,-3.3124,-3.3124,-3.3124,-3.3124,-3.3124,-3.3124,-3.3124,-3.3124,-3.3124,-3.3124,-3.3124,-3.3124,-3.3124,-3.3124,-3.3124,-3.3949,-3.4397,-3.4397,-3.5196,-3.6029,-3.6897,-3.7208,-3.7644,-3.3124,-3.3124,0.0,-3.2353,-3.1951,0.0,-3.1436,-3.1286,-3.1245,-3.1542,-3.2098,-3.2474,-3.2304,-3.2744,-3.3068,-3.2982,-3.3038,-3.3124,0.0,-3.3124,0.0,0.0,0.0,0.0,0.0,0.0,-3.0869,-2.8866,-2.868,0.0,0.0,-2.5693,-2.5693,-2.5693,-2.5693,-2.5693,-2.5693,-2.5693,-2.5693,-2.5693,-2.5693,-2.5693,-2.5693,-2.5693,-2.5693,-2.5693,-2.5693,-2.5693,-2.5693,-2.5693,-2.5917,-2.637,-2.7662,-2.8577,-2.928,-2.9612,-3.0633,-3.1849,-3.2081,-3.2125,-3.2213,-3.2506,-3.2593,-3.2636,-3.2822,-3.2896,-3.2939,-3.2939,-3.3038,-3.3124,-3.3124,-3.3124,-3.3124,-3.3124,-3.3124,-3.3124,-3.3124,-3.3124,-3.3124,-3.3124,-3.3124,-3.3124,-3.3124,-3.3124,-3.3124,-3.3124,-3.3124,-3.3124,-3.3124,-3.3124,-3.3124,-3.3124,-3.3124,-3.3124,-3.3124,-3.3124,-3.3124,-3.3124,-3.3124,-3.3124,-3.3124,-3.3124,-3.3124,-3.3124,-3.3654,-3.3949,-3.3949,-3.4483,-3.5156,-3.6016,-3.6016,-3.6452]}]]